     2              OBSERVATION DATA    GPS                 RINEX VERSION / TYPE
teqc 1997Jul24 19970814                                     PGM / RUN BY / DATE
                                                            COMMENT
BIT 2 OF LLI FLAGS DATA COLLECTED UNDER A-S CONDITION       COMMENT
BIT 2 OF LLI FLAGS DATA COLLECTED UNDER A-S CONDITION       COMMENT
Original Marker Name: OTAY                                  COMMENT
Campaign Name: hpgn ca 1991                                 COMMENT
4-Character Station Name: OTAY                              COMMENT
6-Character Antenna Code: TRMSST                            COMMENT
Vertical Measurement Point: BPA                             COMMENT
Vertical Offset to Rinex Ref. Point: 0.0000                 COMMENT
Radial Measurement Point: RRP                               COMMENT
Radial Offset to Rinex Ref. Point: 0.0000                   COMMENT
Antenna Height from Field Measurement: 2.2200 m             COMMENT
Original XYZ: -2428822.8675 -4799756.3403 3417280.7142      COMMENT
New XYZ position is based on association with SCEC monument COMMENT
E1C8G3P4+0011. Position of that monument is believed to be  COMMENT
valid to within 1 m horizontally; vertical accuracy         COMMENT
should be no worse than 3-times this value.                 COMMENT
                                                            COMMENT
Revised Rinex header created by UCSD GPS archive for        COMMENT
GSAC on 10-Apr-1999 (1999:100) 02:57:55 GMT                 COMMENT
For assistance contact dagnew@ucsd.edu or hjohnson@ucsd.edu COMMENT
                                                            COMMENT
(SANDIE NASA 1976)                                          MARKER NAME
unknown CALIF DEPT TRANSPORTATION                           OBSERVER / AGENCY
622 TRIMBLE 4000 SST NP 4.30 / SP 4.20                      REC # / TYPE / VERS
123 TR 4000SST L1/L2 GEO                                    ANT # / TYPE
 -2428826.0000 -4799750.0000  3417273.0000                  APPROX POSITION XYZ
        2.2200        0.0000        0.0000                  ANTENNA: DELTA H/E/N
     1     1     0                                          WAVELENGTH FACT L1/2
     3    C1    L1    L2                                    # / TYPES OF OBSERV
     0                                                      INTERVAL
  1991     4     8     0    26    0.000000                  TIME OF FIRST OBS
  1991     4     8     3    30    0.000000                  TIME OF LAST OBS
     0                                                      # OF SATELLITES
                                                            END OF HEADER
 91  4  8  0 26  0.0000000  0  5G 2G15G 6G13G19
  20899293.586       61658.723 8
  23612137.2344         -0.98755
  20757662.2424         -0.52257
  21820257.242          -0.97316
  23703703.2424         -0.18355
 91  4  8  0 26 15.0000000  0  5G 2G15G 6G13G19
  20901450.000       72990.217 8
  23612842.305        3697.412 6
  20755224.703      -12811.365 7
  21812393.9844     -41326.62746
  23712853.930       48077.772 5
 91  4  8  0 26 30.0000000  0  5G 2G15G 6G13G19
  20903610.6644      84343.95248        -0.21273
  23613564.156        7509.699 5        -0.04231
  20752797.000      -25566.458 7        -0.17633
  21804544.1804     -82569.57246        -0.08371
  23722005.6334      96191.13845
 91  4  8  0 26 45.0000000  0  5G 2G15G 6G13G19
  20905776.5394      95727.91548      8870.41163
  23614311.9774      11443.81146      3065.53361
  20750381.0474     -38257.85947     -9889.54763
  21796714.8674    -123721.53546    -32066.41161
  23731169.016      144347.573 4        -0.33331
 91  4  8  0 27  0.0000000  0  5G 2G15G 6G13G19
  20907950.0394     107146.57448     17768.07364
  23615084.0554      15504.27046      6229.56161
  20747978.9534     -50880.65247    -19725.46163
  21788900.367     -164777.795 6    -64058.16821
  23740341.047      192551.756 4     37561.23221
 91  4  8  0 27 15.0000000  0  5G 2G15G 6G13G19
  20910129.2194     118599.89148     26692.74563
  23615882.781       19691.305 6      9492.22121
  20745590.711      -63434.521 7    -29507.66823
  21781106.3204    -205738.09846    -95975.17061
  23749527.0394     240803.43345     75159.81261
 91  4  8  0 27 30.0000000  0  5G 2G15G 6G13G19
  20912315.1414     130087.37448     35644.02964
  23616707.2424      24004.62146     12853.30361
  20743213.5554     -75919.51447    -39236.20763
  21773331.891     -246602.255 6   -127817.23721
  23758714.438      289102.121 5    112795.03321
 91  4  8  0 27 45.0000000  0  5G 2G15G 6G13G19
  20914508.3204     141610.53348     44623.11764
  23617548.0084      28445.63346     16313.86461
  20740852.359      -88333.834 7    -48909.67623
  21765572.750     -287368.613 6   -159583.09121
  23767917.641      337449.193 5    150467.96621
 91  4  8  0 28  0.0000000  0  5G 2G15G 6G13G19
  20916707.9384     153168.99448     53629.71464
  23618421.609       33014.145 6     19873.78621
  20738503.422     -100677.834 7    -58528.35523
  21757831.2274    -328037.01546   -191272.63861
  23777127.500      385844.012 5    188178.07621
 91  4  8  0 28 15.0000000  0  5G 2G15G 6G13G19
  20918914.2814     164763.00648     62664.01564
  23619312.7344      37710.34146     23533.20061
  20736166.4924    -112950.93547    -68091.78263
  21750110.8204    -368607.19046   -222885.64261
  23786345.086      434286.696 5    225925.49721
 91  4  8  0 28 30.0000000  0  5G 2G15G 6G13G19
  20921125.7974     176390.72648     71724.58564
  23620232.172       42532.553 6     27290.80821
  20733845.5004    -125154.51747    -77601.03563
  21742411.008     -409080.416 6   -254423.08321
  23795570.750      482775.496 5    263708.85821
 91  4  8  0 28 45.0000000  0  5G 2G15G 6G13G19
  20923346.3674     188055.39248     80813.94564
  23621172.109       47484.650 6     31149.62721
  20731536.6954    -137284.85747    -87053.22063
  21734726.875     -449452.949 6   -285882.07121
  23804808.2734     531313.77844    301530.77861
 91  4  8  0 29  0.0000000  0  5G 2G15G 6G13G19
  20925573.6174     199756.09248     89931.37264
  23622137.344       52565.448 6     35108.73221
  20729241.664     -149342.809 7    -96449.00023
  21727065.2734    -489725.83546   -317263.41661
  23814051.3674     579900.19644    339390.18561
 91  4  8  0 29 15.0000000  0  5G 2G15G 6G13G19
  20927806.6564     211493.16148     99077.14164
  23623134.195       57775.673 6     39168.69521
  20726961.594     -161327.676 7   -105787.83423
  21719420.4844    -529898.09346   -348566.34561
  23823309.195      628534.937 4    377287.25921
 91  4  8  0 29 30.0000000  0  5G 2G15G 6G13G19
  20930046.2034     223262.49348    108248.05564
  23624149.5394      63111.16246     43326.26461
  20724693.164     -173243.544 7   -115072.90023
  21711793.6094    -569973.72546   -379793.98561
  23832573.438      677213.855 4    415218.75121
 91  4  8  0 29 45.0000000  0  5G 2G15G 6G13G19
  20932292.3054     235067.13648    117446.48564
  23625187.6414      68574.77946     47583.66461
  20722440.7424    -185086.75747   -124301.35363
  21704185.8524    -609949.32646   -410943.69161
  23841846.469      725939.874 4    453186.94221
 91  4  8  0 30  0.0000000  0  5G 2G15G 6G13G19
  20934545.4304     246906.90548    126672.27964
  23626252.9924      74166.56946     51940.93361
  20720200.414     -196857.397 7   -133473.25523
  21696598.430     -649824.655 6   -442015.24421
  23851124.6174     774712.67444    491191.58761
 91  4  8  0 30 15.0000000  0  5G 2G15G 6G13G19
  20936804.4694     258782.12648    135925.70064
  23627341.688       79887.232 6     56398.64021
  20717974.266     -208554.622 7   -142587.95223
  21689028.4694    -689599.10046   -473008.19361
  23860421.8674     823532.62644    529232.97061
 91  4  8  0 30 30.0000000  0  5G 2G15G 6G13G19
  20939070.9844     270691.65548    145205.86564
  23628452.672       85735.622 6     60955.88921
  20715762.0944    -220179.34547   -151646.15263
  21681478.289     -729273.521 6   -503923.20621
  23869719.344      872398.343 4    567310.02021
 91  4  8  0 30 45.0000000  0  5G 2G15G 6G13G19
  20941345.0704     282638.87648    154515.38964
  23629588.750       91715.266 5     65615.39021
  20713565.2274    -231727.95847   -160645.04163
  21673949.500     -768844.330 6   -534757.48921
  23879022.703      921313.119 4    605425.32321
 91  4  8  0 31  0.0000000  0  5G 2G15G 6G13G19
  20943624.7734     294623.64348    163854.16464
  23630749.5474      97826.12945     70377.13261
  20711381.5554    -243200.14047   -169584.37963
  21666440.3284    -808311.30346   -565510.85161
  23888335.109      970276.809 4    643578.70321
 91  4  8  0 31 15.0000000  0  5G 2G15G 6G13G19
  20945913.7344     306642.62348    173219.60864
  23631936.664      104064.786 6     75238.46521
  20709212.766     -254599.132 7   -178466.68823
  21658948.6804    -847677.28846   -596185.51961
  23897669.0554    1019286.01744    681767.57861
 91  4  8  0 31 30.0000000  0  5G 2G15G 6G13G19
  20948206.7894     318694.09448    182610.36664
  23633150.4844     110429.64346     80198.12961
  20707056.555     -265926.271 7   -187293.00923
  21651473.8134    -886943.62646   -626782.53861
  23906998.133     1068338.913 4    719990.48221
 91  4  8  0 31 45.0000000  0  5G 2G15G 6G13G19
  20950504.9384     330778.95048    192027.13364
  23634387.320      116922.010 6     85257.13821
  20704915.3834    -277180.26647   -196062.32763
  21644021.9924    -926109.14746   -657301.00461
  23916346.148     1117436.280 4    758248.01121
 91  4  8  0 32  0.0000000  0  5G 2G15G 6G13G19
  20952812.6414     342903.10547    201474.52764
  23635647.1564     123547.75046     90420.07961
  20702788.305     -288354.925 7   -204769.82623
  21636589.328     -965167.656 6   -687736.09121
  23925697.9924    1166583.76144    796544.61061
 91  4  8  0 32 15.0000000  0  5G 2G15G 6G13G19
  20955126.4064     355063.74048    210950.34364
  23636936.828      130303.870 6     95684.62521
  20700677.102     -299452.913 7   -213417.58923
  21629175.5314   -1004121.77946   -718089.83361
  23935060.391     1215778.444 4    834877.99521
 91  4  8  0 32 30.0000000  0  5G 2G15G 6G13G19
  20957447.3754     367257.80648    220452.21164
  23638241.4064     137187.58346    101048.61561
  20698578.086     -310476.982 7   -222007.74823
  21621782.2194   -1042974.39846   -748364.48261
  23944427.9924    1265017.14445    873245.67161
 91  4  8  0 32 45.0000000  0  5G 2G15G 6G13G19
  20959774.5164     379487.24548    229981.64564
  23639574.1644     144201.47746    106514.01861
  20696495.211     -321424.747 7   -230538.45023
  21614407.9454   -1081723.13946   -778558.19061
  23953809.188     1314301.815 5    911649.17021
 91  4  8  0 33  0.0000000  0  5G 2G15G 6G13G19
  20962108.1484     391750.12047    239537.13264
  23640935.4384     151343.23746    112079.06061
  20694427.133     -332297.943 7   -239011.05023
  21607055.8594   -1120369.69946   -808672.27461
  23963195.8594    1363630.23545    950086.78061
 91  4  8  0 33 15.0000000  0  5G 2G15G 6G13G19
  20964447.7424     404048.69647    249120.43064
  23642318.422      158614.984 6    117745.40421
  20692372.422     -343094.108 7   -247423.62923
  21599720.6334   -1158911.54346   -838704.75961
  23972592.1724    1413004.42945    988560.00661
 91  4  8  0 33 30.0000000  0  5G 2G15G 6G13G19
  20966795.1414     416382.80047    258731.41964
  23643726.2344     166016.87046    123513.12761
  20690331.406     -353812.954 7   -255775.95223
  21592406.961    -1197348.262 6   -868655.33321
  23981995.5944    1462424.43345   1027068.97461
 91  4  8  0 33 45.0000000  0  5G 2G15G 6G13G19
  20969150.1954     428754.88348    268372.00164
  23645164.578      173551.451 6    129384.25121
  20688308.305     -364451.727 7   -264065.87923
  21585113.109    -1235677.104 6   -898521.84321
  23991409.7194    1511892.62044   1065615.44861
 91  4  8  0 34  0.0000000  0  5G 2G15G 6G13G19
  20971510.8754     441162.16747    278040.01164
  23646624.0234     181215.96246    135356.63161
  20686297.680     -375012.764 7   -272295.23423
  21577839.1724   -1273900.51747   -928306.20761
  24000829.148     1561406.070 4   1104197.23421
 91  4  8  0 34 15.0000000  0  5G 2G15G 6G13G19
  20973877.5634     453606.73847    287737.07864
  23648106.2344     189012.53046    141431.91461
  20684303.891     -385494.150 7   -280462.52523
  21570585.0474   -1312016.43847   -958006.80961
  24010261.1254    1610966.65644   1142815.73661
 91  4  8  0 34 30.0000000  0  5G 2G15G 6G13G19
  20976253.8204     466087.42847    297462.28864
  23649612.9384     196940.17446    147609.32961
  20682324.4224    -395896.51047   -288568.23063
  21563352.5864   -1350025.62647   -987624.23361
  24019701.5084    1660573.11444   1181469.97161
 91  4  8  0 34 45.0000000  0  5G 2G15G 6G13G19
  20978636.8914     478605.53647    307216.65564
  23651142.172      205000.140 6    153889.83821
  20680359.766     -406218.158 7   -296611.04823
  21556140.164    -1387926.549 7  -1017157.30821
  24029153.359     1710226.729 4   1220160.97421
 91  4  8  0 35  0.0000000  0  5G 2G15G 6G13G19
  20981025.8914     491159.88647    316999.26264
  23652698.2114     213191.27545    160272.55161
  20678410.6254    -416460.09047   -304591.75063
  21548947.070    -1425720.028 7  -1046606.66721
  24038608.078     1759926.127 4   1258887.63521
 91  4  8  0 35 15.0000000  0  5G 2G15G 6G13G19
  20983419.8754     503749.30747    326809.19864
  23654285.383      221512.855 6    166756.92621
  20676477.6644    -426623.18847   -312511.01464
  21541774.844    -1463406.789 7  -1075972.85821
  24048075.570     1809669.938 4   1297648.88521
 91  4  8  0 35 30.0000000  0  5G 2G15G 6G13G19
  20985821.8984     516373.46447    336646.20464
  23655897.1724     229964.22746    173342.45861
  20674558.297     -436707.539 7   -320368.92324
  21534625.102    -1500986.843 7  -1105255.90721
  24057546.156     1859457.725 4   1336444.44321
 91  4  8  0 35 45.0000000  0  5G 2G15G 6G13G19
  20988232.6644     529033.80947    346511.41564
  23657529.3444     238547.12146    180030.45661
  20672654.2274    -446711.40047   -328164.11264
  21527495.266    -1538458.590 7  -1134454.56221
  24067031.2034    1909290.72944   1375275.20761
 91  4  8  0 36  0.0000000  0  5G 2G15G 6G13G19
  20990648.0554     541730.76847    356405.14464
  23659191.148      247261.876 6    186821.22521
  20670766.5234    -456634.10947   -335896.06564
  21520383.703    -1575821.361 7  -1163568.29921
  24076521.4844    1959169.21944   1414141.44361
 91  4  8  0 36 15.0000000  0  5G 2G15G 6G13G19
  20993070.7584     554463.90547    366327.06764
  23660872.453      256108.340 6    193714.61421
  20668893.969     -466475.578 7   -343564.71523
  21513296.063    -1613075.248 7  -1192597.18821
  24086025.8594    2009092.68244   1453042.67561
 91  4  8  0 36 30.0000000  0  5G 2G15G 6G13G19
  20995501.1254     567232.69747    376276.78364
  23662580.1484     265085.65346    200709.95361
  20667035.609     -476236.194 7   -351170.36624
  21506226.2114   -1650220.48447  -1221541.41161
  24095531.8834    2059060.61444   1491978.60261
 91  4  8  0 36 45.0000000  0  5G 2G15G 6G13G19
  20997937.9844     580036.85947    386254.05064
  23664310.773      274193.898 6    207807.31921
  20665193.828     -485915.979 7   -358713.03124
  21499179.883    -1687256.996 7  -1250400.92221
  24105051.4384    2109072.53644   1530948.78461
 91  4  8  0 37  0.0000000  0  5G 2G15G 6G13G19
  21000381.0784     592875.34547    396258.06364
  23666070.7734     283431.89346    215005.78761
  20663367.742     -495515.670 7   -366193.28224
  21492151.398    -1724185.523 7  -1279176.29921
  24114570.266     2159127.136 4   1569952.22721
 91  4  8  0 37 15.0000000  0  5G 2G15G 6G13G19
  21002829.8834     605747.79547    406288.54364
  23667854.2814     292799.64846    222305.36361
  20661555.4534    -505035.16647   -373611.04564
  21485146.7424   -1761006.03047  -1307867.49561
  24124106.3444    2209224.27243   1608988.81161
 91  4  8  0 37 30.0000000  0  5G 2G15G 6G13G19
  21005286.9614     618659.18747    416349.37564
  23669662.7274     302302.35246    229710.11161
  20659761.2194    -514469.17647   -380962.19264
  21478160.5784   -1797713.27047  -1336470.41761
  24133648.359     2259368.921 4   1648062.43221
 91  4  8  0 37 45.0000000  0  5G 2G15G 6G13G19
  21007752.0944     631604.59547    426436.70964
  23671495.5234     311934.86346    237215.99161
  20657981.477     -523822.548 7   -388250.50724
  21471195.133    -1834312.113 7  -1364988.89321
  24143198.4144    2309555.58743   1687168.79361
 91  4  8  0 38  0.0000000  0  5G 2G15G 6G13G19
  21010221.2274     644584.38147    436550.82664
  23673354.5704     321697.53046    244823.29661
  20656215.0394    -533094.85347   -395475.65364
  21464251.336    -1870802.088 7  -1393422.54021
  24152761.148     2359784.493 4   1726308.05721
 91  4  8  0 38 15.0000000  0  5G 2G15G 6G13G19
  21012697.8284     657600.41247    446693.19264
  23675237.7504     331592.23646    252533.47761
  20654467.6564    -542283.66047   -402635.73264
  21457327.3204   -1907180.90047  -1421769.55061
  24162327.9384    2410057.37744   1765481.57661
 91  4  8  0 38 30.0000000  0  5G 2G15G 6G13G19
  21015182.9454     670652.41147    456863.58364
  23677144.109      341618.843 6    260346.44521
  20652735.313     -551388.860 7   -409730.67324
  21450427.086    -1943448.321 6  -1450029.77321
  24171899.2664    2460374.00343   1804689.19761
 91  4  8  0 38 45.0000000  0  5G 2G15G 6G13G19
  21017671.3594     683738.59147    467060.60564
  23679074.6724     351775.56645    268260.80661
  20651017.961     -560412.133 7   -416761.77424
  21443547.172    -1979606.043 7  -1478204.52021
  24181483.1644    2510732.28943   1843929.26561
 91  4  8  0 39  0.0000000  0  5G 2G15G 6G13G19
  21020168.7424     696858.62047    477284.01664
  23681029.563      362062.134 5    276276.34021
  20649316.1884    -569353.39347   -423728.95864
  21436686.875    -2015654.054 7  -1506293.77221
  24191070.734     2561131.958 3   1883201.60421
 91  4  8  0 39 15.0000000  0  5G 2G15G 6G13G19
  21022673.6254     710015.49748    487536.12864
  23683015.6644     372481.54845    284395.38061
  20647630.586     -578209.413 7   -430629.73024
  21429845.750    -2051589.156 6  -1534295.04021
  24200671.227     2611575.840 3   1922508.38221
 91  4  8  0 39 30.0000000  0  5G 2G15G 6G13G19
  21025183.0474     723210.46947    497817.92364
  23685025.8754     383035.16946    292619.01361
  20645963.172     -586978.895 7   -437463.07324
  21423031.680    -2087410.149 7  -1562207.39221
  24210283.031     2662064.947 3   1961850.37421
 91  4  8  0 39 45.0000000  0  5G 2G15G 6G13G19
  21027699.9694     736441.38047    508127.73164
  23687056.9064     393720.69346    300945.42461
  20644309.6334    -595663.61747   -444230.36564
  21416237.172    -2123118.719 7  -1590032.14021
  24219903.039     2712596.911 4   2001225.80221
 91  4  8  0 40  0.0000000  0  5G 2G15G 6G13G19
  21030224.8364     749708.92047    518466.07864
  23689119.5864     404538.90946    309375.22961
  20642674.141     -604262.508 7   -450930.77924
  21409462.078    -2158713.840 6  -1617768.50021
  24229521.8594    2763172.32543   2040635.06761
 91  4  8  0 40 15.0000000  0  5G 2G15G 6G13G19
  21032758.7034     763014.92547    528834.39964
  23691202.3444     415492.00346    317910.12861
  20641053.117     -612773.429 7   -457562.64724
  21402711.2584   -2194193.26847  -1645414.71561
  24239151.8284    2813792.92343   2080079.52561
 91  4  8  0 40 30.0000000  0  5G 2G15G 6G13G19
  21035297.3054     776361.04147    539233.97464
  23693316.742      426581.391 6    326551.23821
  20639450.1564    -621194.46647   -464124.46764
  21395980.3204   -2229555.06347  -1672969.24361
  24248793.3524    2864460.27543   2119560.44561
 91  4  8  0 40 45.0000000  0  5G 2G15G 6G13G19
  21037844.0234     789740.47647    549659.51464
  23695445.102      437800.394 6    335293.33921
  20637865.344     -629532.035 7   -470621.25224
  21389272.023    -2264805.781 6  -1700437.22721
  24258447.3444    2915167.43543   2159072.37961
 91  4  8  0 41  0.0000000  0  5G 2G15G 6G13G19
  21040396.5234     803156.63347    560113.66864
  23697607.711      449152.552 5    344139.19121
  20636294.734     -637782.604 7   -477050.25324
  21382586.0864   -2299941.88147  -1727815.91661
  24268103.2664    2965917.60743   2198617.78561
 91  4  8  0 41 15.0000000  0  5G 2G15G 6G13G19
  21042956.8594     816614.29947    570600.16464
  23699791.4534     460642.51045    353092.42761
  20634741.508     -645941.217 7   -483407.59424
  21375925.031    -2334958.251 7  -1755101.29421
  24277775.3834    3016715.30343   2238200.28561
 91  4  8  0 41 30.0000000  0  5G 2G15G 6G13G19
  21045526.1484     830108.70047    581115.28864
  23701999.211      472265.380 5    362149.22921
  20633205.961     -654012.137 7   -489696.60024
  21369282.867    -2369859.333 7  -1782296.82721
  24287448.461     3067555.915 3   2277816.16121
 91  4  8  0 41 45.0000000  0  5G 2G15G 6G13G19
  21048100.9924     843639.53947    591658.80064
  23704237.492      484021.028 5    371309.48721
  20631687.164     -661995.538 7   -495917.41024
  21362662.602    -2404645.212 7  -1809402.60421
  24297130.0314    3118438.75243   2317464.97561
 91  4  8  0 42  0.0000000  0  5G 2G15G 6G13G19
  21050682.2894     857207.34747    602231.12364
  23706503.883      495909.980 5    380573.61521
  20630184.984     -669890.657 7   -502069.43024
  21356066.484    -2439315.380 7  -1836418.21721
  24306818.6094    3169364.22243   2357147.01461
 91  4  8  0 42 15.0000000  0  4G 2G15G 6G13
  21053271.2584     870810.99947    612831.37864
  23708793.391      507931.298 5    389940.89021
  20628699.063     -677698.096 7   -508153.13924
  21349489.508    -2473870.380 7  -1863344.09321
 91  4  8  0 42 30.0000000  0  4G 2G15G 6G13
  21055866.1884     884448.99147    623458.38764
  23711105.688      520083.387 5    399410.06921
  20627229.266     -685419.209 7   -514169.57524
  21342937.320    -2508311.550 7  -1890181.26421
 91  4  8  0 42 45.0000000  0  4G 2G15G 6G13
  21058469.0944     898126.84047    634116.45664
  23713439.3674     532371.91845    408985.57461
  20625777.797     -693048.139 7   -520114.17923
  21336404.289    -2542633.175 7  -1916925.28221
 91  4  8  0 43  0.0000000  0  4G 2G15G 6G13
  21061079.0394     911843.17948    644804.51164
  23715803.781      544795.391 5    418666.21021
  20624344.039     -700586.067 7   -525987.87223
  21329894.2504   -2576836.45347  -1943577.09261
 91  4  8  0 43 15.0000000  0  4G 2G15G 6G13
  21063695.3834     925594.97548    655520.20064
  23718195.813      557350.903 5    428449.75221
  20622925.922     -708035.651 7   -531792.72523
  21323407.3914   -2610923.98047  -1970138.69761
 91  4  8  0 43 30.0000000  0  4G 2G15G 6G13
  21066320.7344     939386.03048    666266.48064
  23720612.414      570042.059 5    438338.97221
  20621525.906     -715393.029 7   -537525.73323
  21316943.9144   -2644891.96647  -1996607.16561
 91  4  8  0 43 45.0000000  0  4G 2G15G 6G13
  21068951.4774     953214.00947    677041.52864
  23723045.852      582866.427 5    448332.00521
  20620142.953     -722660.273 7   -543188.50523
  21310503.7814   -2678742.47047  -2022984.08361
 91  4  8  0 44  0.0000000  0  4G 2G15G 6G13
  21071588.6804     967079.92447    687846.14163
  23725518.656      595825.157 5    458429.72221
  20618777.461     -729835.955 7   -548779.93223
  21304085.1724   -2712473.99147  -2049268.29061
 91  4  8  0 44 15.0000000  0  4G 2G15G 6G13
  21074236.3524     980983.27148    698679.91764
  23728009.172      608917.734 6    468631.75721
  20617428.391     -736920.362 7   -554300.23023
  21297687.1414   -2746086.95847  -2075460.12161
 91  4  8  0 44 30.0000000  0  4G 2G15G 6G13
  21076887.3914     994922.59747    709541.72664
  23730531.7734     622143.06045    478937.22761
  20616098.461     -743914.645 7   -559750.30523
  21291313.5164   -2779582.65447  -2101560.57261
 91  4  8  0 44 45.0000000  0  4G 2G15G 6G13
  21079550.0394    1008902.33948    720435.03164
  23733064.8914     635505.57445    489349.60461
  20614785.078     -750813.967 7   -565126.38623
  21284963.2814   -2812956.15747  -2127565.79861
 91  4  8  0 45  0.0000000  0  4G 2G15G 6G13
  21082215.6724    1022922.03148    731359.46764
  23735638.6094     649004.19245    499868.03361
  20613490.5084    -757618.86347   -570428.89163
  21278634.2814   -2846207.83747  -2153476.10561
 91  4  8  0 45 15.0000000  0  4G 2G15G 6G13
  21084890.6564    1036977.63648    742311.88963
  23738231.7114     662635.24745    510489.65761
  20612212.469     -764332.863 7   -575660.56523
  21272330.1174   -2879341.49047  -2179294.44961
 91  4  8  0 45 30.0000000  0  4G 2G15G 6G13
  21087573.3914    1051071.39348    753294.03763
  23740845.8754     676400.99345    521216.22261
  20610952.648     -770953.568 7   -580819.54123
  21266047.5394   -2912354.54447  -2205018.82061
 91  4  8  0 45 45.0000000  0  4G 2G15G 6G13
  21090261.9844    1065204.49447    764306.83763
  23743492.836      690302.737 5    532048.74721
  20609710.648     -777479.426 7   -585904.60823
  21259788.9774   -2945245.76647  -2230648.24961
 91  4  8  0 46  0.0000000  0  4G 2G15G 6G13
  21092959.6414    1079378.21748
  23746164.117      704341.534 5
  20608488.297     -783908.983 7   -590914.64023
  21253551.4924   -2978013.71547  -2256181.63261
 91  4  8  0 46 15.0000000  0  4G 2G15G 6G13
  21095664.0474    1093588.79448
  23748864.070      718513.478 5
  20607281.555     -790245.538 7   -595852.19723
  21247339.5554   -3010661.77847  -2281621.58961
 91  4  8  0 46 30.0000000  0  4G 2G15G 6G13
  21098376.3134    1107836.48248    797526.57063
  23751584.461      732819.152 5    565178.50421
  20606092.984     -796488.841 7   -600717.09423
  21241149.5474   -3043189.35347  -2306967.66161
 91  4  8  0 46 45.0000000  0  4G 2G15G 6G13
  21101094.2814    1122124.96748    808660.44763
  23754331.8364     747261.96445    576432.63861
  20604924.117     -802634.909 7   -605506.22023
  21234984.2504   -3075592.66847  -2332216.90561
 91  4  8  0 47  0.0000000  0  4G 2G15G 6G13
  21103819.0394    1136453.68047    819825.66863
  23757106.117      761841.334 5    587793.20821
  20603773.320     -808684.009 7   -610219.79323
  21228841.383    -3107872.202 7  -2357369.71021
 91  4  8  0 47 15.0000000  0  4G 2G15G 6G13
  21106554.6174    1150822.78048    831022.37563
  23759910.492      776557.533 5    599260.41621
  20602639.672     -814635.653 7   -614857.41623
  21222722.969    -3140027.261 7  -2382425.52021
 91  4  8  0 47 30.0000000  0  4G 2G15G 6G13
  21109297.5474    1165230.34348    842249.03563
  23762732.656      791408.615 5    610832.70321
  20601524.258     -820491.371 7   -619420.29623
  21216626.9454   -3172059.60547  -2407385.69761
 91  4  8  0 47 45.0000000  0  4G 2G15G 6G13
  21112046.4454    1179680.69448    853509.04963
  23765586.422      806398.858 5    622513.42621
  20600430.594     -826246.885 7   -623905.09623
  21210555.0634   -3203964.77347  -2432246.77761
 91  4  8  0 48  0.0000000  0  4G 2G15G 6G13
  21114805.7894    1194174.17148    864802.66963
  23768470.063      821528.673 5    634302.91121
  20599354.250     -831901.399 7   -628311.19423
  21204508.172    -3235742.195 7  -2457008.31821
 91  4  8  0 48 15.0000000  0  4G 2G15G 6G13
  21117570.2734    1208705.79048    876125.99563
  23771371.820      836793.052 5    646197.24821
  20598297.070     -837459.646 7   -632642.27823
  21198485.4064   -3267396.70247  -2481674.08561
 91  4  8  0 48 30.0000000  0  4G 2G15G 6G13
  21120343.0634    1223280.72248    887483.08163
  23774306.523      852197.011 5    658200.35221
  20597258.125     -842916.233 7   -636894.14223
  21192485.6724   -3298922.74447  -2506239.74861
 91  4  8  0 48 45.0000000  0  4G 2G15G 6G13
  21123126.2974    1237895.01748    898870.83964
  23777258.3444     867736.60845    670309.15361
  20596237.914     -848274.919 7   -641069.72123
  21186509.961    -3330324.045 7  -2530708.20321
 91  4  8  0 49  0.0000000  0  4G 2G15G 6G13
  21125913.1954    1252548.85547    910289.40863
  23780243.281      883411.763 5    682523.57321
  20595237.086     -853535.345 7   -645168.73423
  21180558.5474   -3361600.39847  -2555079.29761
 91  4  8  0 49 15.0000000  0  4G 2G15G 6G13
  21128709.0084    1267242.92148    921739.32463
  23783256.016      899223.395 5    694844.34421
  20594255.320     -858696.457 7   -649190.36223
  21174630.5004   -3392751.04047  -2579352.43761
 91  4  8  0 49 30.0000000  0  4G 2G15G 6G13
  21131511.4924    1281974.22447    933218.25563
  23786286.883      915168.390 5    707269.02321
  20593290.305     -863761.058 7   -653136.78623
  21168726.711    -3423778.617 7  -2603529.68921
 91  4  8  0 49 45.0000000  0  4G 2G15G 6G13
  21134323.1414    1296745.50947    944728.34063
  23789344.2424     931249.53045    719799.78361
  20592346.727     -868725.864 7   -657005.44823
  21162846.0864   -3454680.03347  -2627608.63261
 91  4  8  0 50  0.0000000  0  4G 2G15G 6G13
  21137141.0944    1311554.16748    956267.55063
  23792430.2034     947464.07045    732434.50561
  20591421.148     -873593.529 7   -660798.41023
  21156988.8054   -3485457.85647  -2651591.26161
 91  4  8  0 50 15.0000000  0  4G 2G15G 6G13
  21139967.1954    1326401.68747    967837.03763
  23795541.9064     963813.47745    745174.32661
  20590513.125     -878362.123 7   -664514.17823
  21151153.9694   -3516110.26447  -2675476.16461
 91  4  8  0 50 30.0000000  0  4G 2G15G 6G13
  21142800.2114    1341291.35348    979439.37063
  23798675.078      980301.207 5    758021.92521
  20589624.266     -883028.062 7   -668149.95223
  21145346.2194   -3546633.94247  -2699260.75961
 91  4  8  0 50 45.0000000  0  4G 2G15G 6G13
  21145641.4144    1356222.59148    991074.09263
  23801840.734      996926.468 5    770976.67821
  20588757.258     -887591.903 7   -671706.17523
  21139563.8204   -3577029.19747  -2722945.28361
 91  4  8  0 51  0.0000000  0  4G 2G15G 6G13
  21148489.7894    1371194.61748   1002740.59363
  23805035.9844    1013688.39945    784037.92461
  20587907.156     -892054.163 7   -675183.23923
  21133803.281    -3607296.663 7  -2746530.23721
 91  4  8  0 51 15.0000000  0  4G 2G15G 6G13
  21151345.7344    1386202.61448   1014435.13563
  23808253.336     1030582.204 5    797201.95121
  20587077.086     -896419.345 7   -678584.66023
  21128066.2814   -3637440.93847  -2770019.19661
 91  4  8  0 51 30.0000000  0  4G 2G15G 6G13
  21154210.2814    1401254.01548   1026163.48963
  23811490.266     1047615.041 5    810474.31521
  20586265.797     -900679.864 7   -681904.52123
  21122354.805    -3667454.389 7  -2793406.22121
 91  4  8  0 51 45.0000000  0  4G 2G15G 6G13
  21157081.9844    1416344.33748   1037922.17763
  23814756.266     1064782.618 5    823851.65621
  20585474.055     -904839.919 7   -685146.10523
  21116668.8984   -3697341.41147  -2816694.72161
 91  4  8  0 52  0.0000000  0  4G 2G15G 6G13
  21159960.2274    1431473.73148   1049711.30963
  23818052.2194    1082085.14145    837334.17061
  20584701.617     -908898.972 7   -688308.98423
  21111005.0944   -3727101.55247  -2839884.34961
 91  4  8  0 52 15.0000000  0  4G 2G15G 6G13
  21162846.7664    1446643.24848   1061531.71163
  23821364.2274    1099523.56245    850922.56861
  20583949.617     -912855.834 7   -691392.23223
  21105367.3204   -3756733.39247  -2862974.00661
 91  4  8  0 52 30.0000000  0  4G 2G15G 6G13
  21165742.7274    1461853.64548   1073383.97063
  23824711.828     1117098.515 5    864617.34321
  20583214.852     -916709.499 7   -694395.06723
  21099750.7894   -3786235.82347  -2885962.82661
 91  4  8  0 52 45.0000000  0  4G 2G15G 6G13
  21168644.8594    1477105.25648   1085268.33863
  23828078.867     1134810.279 5    878418.73221
  20582502.773     -920459.293 7   -697316.95923
  21094162.1334   -3815608.62147  -2908850.63161
 91  4  8  0 53  0.0000000  0  4G 2G15G 6G13
  21171553.7194    1492394.39148   1097181.95063
  23831475.617     1152655.024 5    892323.74421
  20581807.688     -924108.827 7   -700160.73723
  21088597.5634   -3844855.38547  -2931640.23461
 91  4  8  0 53 15.0000000  0  4G 2G15G 6G13
  21174471.2664    1507723.81048   1109126.95363
  23834901.945     1170635.240 5    906334.32521
  20581131.320     -927654.946 7   -702923.93523
  21083054.586    -3873973.109 7  -2954329.28321
 91  4  8  0 53 30.0000000  0  4G 2G15G 6G13
  21177395.8444    1523090.87248   1121101.28463
  23838348.172     1188748.441 5    920448.52921
  20580477.273     -931100.081 7   -705608.43623
  21077538.539    -3902964.168 7  -2976919.63721
 91  4  8  0 53 45.0000000  0  4G 2G15G 6G13
  21180325.7114    1538493.86148   1133103.61663
  23841818.1884    1206992.79046    934664.92061
  20579840.359     -934445.762 7   -708215.44723
  21072046.9384   -3931830.21547  -2999412.56961
 91  4  8  0 54  0.0000000  0  4G 2G15G 6G13
  21183265.6094    1553939.28948   1145139.01263
  23845316.547     1225374.849 6    948988.62421
  20579225.563     -937685.218 7   -710739.68023
  21066578.313    -3960564.469 7  -3021802.80821
 91  4  8  0 54 15.0000000  0  4G 2G15G 6G13
  21186212.8754    1569425.94248   1157206.53363
  23848839.000     1243893.480 6    963418.75221
  20578628.406     -940819.421 7   -713181.90123
  21061133.5084   -3989167.94247  -3044091.14861
 91  4  8  0 54 30.0000000  0  4G 2G15G 6G13
  21189167.5004    1584951.56048   1169304.41763
  23852388.7114    1262545.98946    977953.20361
  20578051.125     -943850.444 7   -715543.72123
  21055717.281    -4017642.843 7  -3066279.30421
 91  4  8  0 54 45.0000000  0  4G 2G15G 6G13
  21192129.2034    1600517.47448   1181433.69663
  23855966.352     1281333.780 6    992593.06321
  20577495.1564    -946776.74247   -717823.94063
  21050322.633    -4045987.775 7  -3088366.18821
 91  4  8  0 55  0.0000000  0  4G 2G15G 6G13
  21195097.9614    1616127.22147   1193597.13963
  23859567.328     1300260.301 6   1007341.02321
  20576957.5164    -949594.44147   -720019.54063
  21044955.438    -4074198.909 7  -3110348.80721
 91  4  8  0 55 15.0000000  0  4G 2G15G 6G13
  21198078.0634    1631780.57947   1205794.56663
  23863196.648     1319325.187 6   1022196.79621
  20576442.969     -952303.746 7   -722130.66823
  21039611.0314   -4102276.34547  -3132227.24261
 91  4  8  0 55 30.0000000  0  4G 2G15G 6G13
  21201064.2344    1647476.21147   1218024.92564
  23866847.633     1338527.385 6   1037159.55121
  20575946.781     -954905.644 7   -724158.10323
  21034293.438    -4130220.895 7  -3154002.14021
 91  4  8  0 55 45.0000000  0  4G 2G15G 6G13
  21204060.4454    1663214.03247   1230288.17164
  23870526.7814    1357866.48045   1052229.01761
  20575471.578     -957399.854 7   -726101.63523
  21029000.0164   -4158032.68847  -3175673.59461
 91  4  8  0 56  0.0000000  0  4G 2G15G 6G13
  21207063.2504    1678996.11147   1242585.88863
  23874235.6254    1377344.22545   1067406.48861
  20575020.1644    -959784.15447   -727959.51963
  21023733.305    -4185709.600 7  -3197239.94921
 91  4  8  0 56 15.0000000  0  4G 2G15G 6G13
  21210073.0634    1694823.41247   1254918.85163
  23877964.2424    1396961.32745   1082692.54461
  20574586.8054    -962057.51347   -729730.95963
  21018493.1884   -4213250.65747  -3218700.43361
 91  4  8  0 56 30.0000000  0  4G 2G15G 6G13
  21213094.8594    1710694.95447   1267286.29864
  23881729.7424    1416717.05046   1098086.62861
  20574175.672     -964220.570 7   -731416.44323
  21013276.992    -4240656.508 7  -3240055.55921
 91  4  8  0 56 45.0000000  0  4G 2G15G 6G13
  21216124.1174    1726608.36447   1279686.35364
  23885512.781     1436609.170 6   1113586.99421
  20573782.266     -966275.385 7   -733017.59123
  21008087.5944   -4267929.26847  -3261306.98861
 91  4  8  0 57  0.0000000  0  4G 2G15G 6G13
  21219160.4844    1742568.45347   1292122.79064
  23889322.4924    1456642.42245   1129197.33261
  20573414.328     -968216.912 7   -734530.45023
  21002923.867    -4295064.064 7  -3282450.91121
 91  4  8  0 57 15.0000000  0  4G 2G15G 6G13
  21222204.7504    1758571.60547   1304592.78164
  23893163.2274    1476812.98045   1144914.65561
  20573066.7274    -970048.50147   -735957.65463
  20997785.711    -4322064.371 7  -3303490.03321
 91  4  8  0 57 30.0000000  0  4G 2G15G 6G13
  21225258.5474    1774619.50847   1317097.64564
  23897028.9774    1497122.30245   1160740.10261
  20572736.7194    -971768.32247   -737297.76963
  20992673.281    -4348928.278 7  -3324422.87321
 91  4  8  0 57 45.0000000  0  4G 2G15G 6G13
  21228321.6564    1790710.69247   1329636.23364
  23900918.3204    1517568.73945   1176672.40161
  20572432.2664    -973377.68547   -738551.80863
  20987586.898    -4375657.322 7  -3345250.62521
 91  4  8  0 58  0.0000000  0  4G 2G15G 6G13
  21231393.2344    1806850.49447   1342212.69564
  23904834.523     1538157.817 6   1192715.85521
  20572147.000     -974871.054 7   -739715.45623
  20982527.344    -4402245.943 7  -3365968.96021
 91  4  8  0 58 15.0000000  0  4G 2G15G 6G13
  21234472.8134    1823036.17147   1354824.91064
  23908779.1254    1558886.57645   1208868.15261
  20571884.500     -976250.758 7   -740790.53623
  20977492.789    -4428696.552 7  -3386579.74121
 91  4  8  0 58 30.0000000  0  4G 2G15G 6G13
  21237561.3834    1839269.32647   1367474.12464
  23912751.039     1579756.230 5   1225130.22921
  20571644.273     -977515.138 7   -741775.75723
  20972487.523    -4455007.460 7  -3407081.67621
 91  4  8  0 58 45.0000000  0  4G 2G15G 6G13
  21240659.7274    1855549.14547   1380159.70064
  23916749.1954    1600766.12045   1241501.58561
  20571425.4694    -978664.69647   -742671.50463
  20967507.3984   -4481179.41447  -3427475.33461
 91  4  8  0 59  0.0000000  0  4G 2G15G 6G13
  21243766.0944    1871871.20947   1392878.19764
  23920772.078     1621911.685 5   1257978.66421
  20571229.1724    -979703.78747   -743481.18063
  20962552.797    -4507216.677 7  -3447764.03222
 91  4  8  0 59 15.0000000  0  4G 2G15G 6G13
  21246879.7424    1888239.13747   1405632.42664
  23924822.367     1643196.570 5   1274564.30721
  20571052.445     -980628.523 7   -744201.74023
  20957624.016    -4533115.539 7  -3467944.88122
 91  4  8  0 59 30.0000000  0  4G 2G15G 6G13
  21250003.6414    1904654.26047   1418423.43564
  23928901.7274    1664621.98745   1291259.43961
  20570899.977     -981437.235 7   -744831.89123
  20952723.102    -4558874.377 7  -3488016.62922
 91  4  8  0 59 45.0000000  0  4G 2G15G 6G13
  21253137.5634    1921116.81647   1431251.40064
  23933003.070     1686187.913 5   1308064.06421
  20570766.4694    -982129.41547   -745371.24563
  20947846.773    -4584492.738 7  -3507978.91522
 91  4  8  1  0  0.0000000  0  4G 2G15G 6G13
  21256279.1484    1937624.72047   1444114.70164
  23937138.1024    1707892.19945   1324976.50161
  20570654.7424    -982707.05547   -745821.34863
  20942998.4454   -4609972.71647  -3527833.37662
 91  4  8  1  0 15.0000000  0  4G 2G15G 6G13
  21259429.5944    1954179.79347   1457014.76164
  23941292.5314    1729736.83145   1341998.29761
  20570569.891     -983167.976 7   -746180.49423
  20938176.367    -4635312.086 7  -3547578.26222
 91  4  8  1  0 30.0000000  0  4G 2G15G 6G13
  21262587.9924    1970779.02447   1469949.22564
  23945476.2424    1751718.44645   1359126.83361
  20570501.961     -983515.056 7   -746450.93223
  20933381.172    -4660513.871 7  -3567215.94022
 91  4  8  1  0 45.0000000  0  4G 2G15G 6G13
  21265755.6024    1987430.75847   1482924.60664
  23949688.0084    1773845.17845   1376368.44161
  20570461.2344    -983739.72147   -746625.98863
  20928612.352    -4685569.575 7  -3586739.79522
 91  4  8  1  1  0.0000000  0  4G 2G15G 6G13
  21268932.5394    2004127.30847   1495934.90964
  23953924.688     1796109.104 5   1393716.96321
  20570437.164     -983849.467 7
  20923870.211    -4710486.873 7  -3606155.79422
 91  4  8  1  1 15.0000000  0  4G 2G15G 6G13
  21272119.1804    2020870.39947   1508981.47264
  23958183.3284    1818511.84545   1411173.63961
  20570440.664     -983842.431 7
  20919155.250    -4735263.897 7  -3625462.49722
 91  4  8  1  1 30.0000000  0  4G 2G15G 6G13
  21275314.6414    2037662.09847   1522065.91464
  23962473.5634    1841055.72045   1428740.29761
  20570464.602     -983716.392 7
  20914468.430    -4759898.458 7  -3644658.18222
 91  4  8  1  1 45.0000000  0  4G 2G15G 6G13
  21278518.3134    2054500.77747   1535186.96464
  23966792.1334    1863739.05245   1446415.61961
  20570509.188     -983472.667 7
  20909807.016    -4784392.239 7  -3663744.16922
 91  4  8  1  2  0.0000000  0  4G 2G15G 6G13
  21281733.0164    2071388.57047   1548346.28364
  23971136.5394    1886563.66045   1464201.03761
  20570578.352     -983108.858 7   -746134.33223
  20905172.602    -4808742.728 7  -3682718.50522
 91  4  8  1  2 15.0000000  0  4G 2G15G 6G13
  21284955.5704    2088325.54847   1561543.92464
  23975506.945     1909529.174 5   1482096.25521
  20570673.883     -982624.919 7   -745757.22023
  20900566.359    -4832949.945 7  -3701581.20122
 91  4  8  1  2 30.0000000  0  4G 2G15G 6G13
  21288187.6884    2105309.71048   1574778.33464
  23979902.6024    1932633.39845   1500099.54761
  20570787.250     -982022.463 7   -745287.76023
  20895987.289    -4857015.897 7  -3720333.81122
 91  4  8  1  2 45.0000000  0  4G 2G15G 6G13
  21291429.2274    2122341.50848   1588049.86964
  23984326.0554    1955876.97545   1518211.42061
  20570924.227     -981300.976 7   -744725.54423
  20891434.1884   -4880939.79147  -3738975.74962
 91  4  8  1  3  0.0000000  0  4G 2G15G 6G13
  21294678.6024    2139420.63047   1601358.27164
  23988777.6724    1979259.47745   1536431.55761
  20571085.859     -980460.413 7   -744070.54523
  20886908.5004   -4904721.67047  -3757507.01262
 91  4  8  1  3 15.0000000  0  4G 2G15G 6G13
  21297939.3134    2156550.95548   1614706.56964
  23993253.930     2002784.715 5   1554762.92621
  20571267.938     -979496.711 7   -743319.60023
  20882410.789    -4928357.571 7  -3775924.52522
 91  4  8  1  3 30.0000000  0  4G 2G15G 6G13
  21301207.0314    2173728.46848   1628091.64164
  23997755.0164    2026448.61445   1573202.33161
  20571473.922     -978413.621 7   -742475.61923
  20877940.9924   -4951851.35847  -3794231.30362
 91  4  8  1  3 45.0000000  0  4G 2G15G 6G13
  21304486.4614    2190955.21848   1641515.08064
  24002284.4384    2050252.86745   1591751.10561
  20571702.258     -977208.877 7   -741536.83623
  20873497.641    -4975201.068 7  -3812425.81122
 91  4  8  1  4  0.0000000  0  4G 2G15G 6G13
  21307774.5474    2208233.61248   1654978.76964
  24006842.2504    2074199.71545   1610410.99061
  20571956.383     -975880.004 7   -740501.33323
  20869081.9694   -4998404.13747  -3830506.05262
 91  4  8  1  4 15.0000000  0  4G 2G15G 6G13
  21311070.8364    2225561.79048   1668481.24064
  24011423.492     2098287.425 5   1629180.64921
  20572233.031     -974428.622 7   -739370.37323
  20864693.1414   -5021462.37447  -3848473.44362
 91  4  8  1  4 30.0000000  0  4G 2G15G 6G13
  21314377.3524    2242939.37948   1682022.22264
  24016036.1884    2122515.08845   1648059.34261
  20572531.984     -972854.943 7   -738144.11623
  20860333.7734   -5044376.12947  -3866328.25262
 91  4  8  1  4 45.0000000  0  4G 2G15G 6G13
  21317695.5164    2260369.13548   1695603.84664
  24020670.039     2146885.476 5   1667049.25821
  20572853.266     -971156.105 7   -736820.33123
  20856000.945    -5067142.382 7  -3884068.12122
 91  4  8  1  5  0.0000000  0  4G 2G15G 6G13
  21321020.2814    2277849.91347   1709225.22964
  24025337.0784    2171397.38045   1686149.44361
  20573201.836     -969332.874 7   -735399.60923
  20851696.7584   -5089762.14147  -3901693.83762
 91  4  8  1  5 15.0000000  0  4G 2G15G 6G13
  21324358.0634    2295383.47848   1722887.74864
  24030028.0314    2196052.30245   1705361.08161
  20573572.609     -967383.365 7   -733880.48823
  20847419.3364   -5112233.51647  -3919203.93762
 91  4  8  1  5 30.0000000  0  4G 2G15G 6G13
  21327703.5634    2312966.96348   1736589.15964
  24034748.7034    2220847.29245   1724681.84961
  20573967.813     -965310.291 7   -732265.09323
  20843170.7114   -5134559.54247  -3936600.77162
 91  4  8  1  5 45.0000000  0  4G 2G15G 6G13
  21331057.8364    2330597.96847   1750327.61164
  24039493.2584    2245780.05945   1744109.98861
  20574384.852     -963115.731 7   -730555.03523
  20838950.4924   -5156742.21347  -3953885.91162
 91  4  8  1  6  0.0000000  0  4G 2G15G 6G13
  21334424.1484    2348278.83148   1764104.90764
  24044263.977     2270852.458 5   1763646.92821
  20574826.016     -960797.285 7   -728748.44223
  20834755.8754   -5178779.35047  -3971057.64462
 91  4  8  1  6 15.0000000  0  4G 2G15G 6G13
  21337797.5164    2366010.73848   1777921.96964
  24049061.8524    2296065.52645   1783293.49061
  20575289.203     -958353.685 7   -726844.31923
  20830591.0314   -5200669.72647  -3988115.01962
 91  4  8  1  6 30.0000000  0  4G 2G15G 6G13
  21341182.7424    2383794.48048   1791779.43664
  24053887.680     2321419.995 5   1803050.23121
  20575779.313     -955783.888 7   -724841.85723
  20826453.5554   -5222412.22947  -4005057.16362
 91  4  8  1  6 45.0000000  0  4G 2G15G 6G13
  21344577.2814    2401630.81448   1805677.87464
  24058739.898     2346916.332 5   1822917.52721
  20576292.398     -953086.802 7   -722740.21323
  20822344.3204   -5244006.12047  -4021883.51261
 91  4  8  1  7  0.0000000  0  4G 2G15G 6G13
  21347978.1724    2419515.80247   1819614.22964
  24063616.4064    2372550.50445   1842892.21961
  20576830.6724    -950266.37447   -720542.46863
  20818263.0634   -5265455.36947  -4038597.15162
 91  4  8  1  7 15.0000000  0  4G 2G15G 6G13
  21351393.4384    2437452.95848   1833591.23764
  24068519.664     2398325.744 5   1862976.82221
  20577392.055     -947318.790 7   -718245.63723
  20814209.4924   -5286756.44047  -4055195.32862
 91  4  8  1  7 30.0000000  0  4G 2G15G 6G13
  21354815.5394    2455442.61447   1847609.14264
  24073453.4304    2424242.42945   1883171.64761
  20577975.898     -944243.365 7   -715849.18723
  20810184.1644   -5307908.61047  -4071677.47761
 91  4  8  1  7 45.0000000  0  4G 2G15G 6G13
  21358248.0784    2473482.47047   1861666.18164
  24078410.0394    2450298.07845   1903474.74861
  20578584.031     -941042.469 7   -713354.96323
  20806186.8364   -5328914.13247  -4088045.35162
 91  4  8  1  8  0.0000000  0  4G 2G15G 6G13
  21361691.9304    2491573.95348   1875763.44264
  24083394.0944    2476493.99045   1923887.15261
  20579218.070     -937714.410 7   -710761.65423
  20802218.1644   -5349771.51547  -4104297.79661
 91  4  8  1  8 15.0000000  0  4G 2G15G 6G13
  21365144.2504    2509720.48247   1889903.59363
  24088403.8834    2502833.22245   1944411.23561
  20579877.117     -934255.577 7   -708066.44723
  20798278.2814   -5370477.30747  -4120432.12262
 91  4  8  1  8 30.0000000  0  4G 2G15G 6G13
  21368608.1254    2527918.31848   1904083.72763
  24093447.7274    2529311.91845   1965043.98261
  20580559.6804    -930669.56947   -705272.14863
  20794364.8134   -5391035.28947  -4136451.27261
 91  4  8  1  8 45.0000000  0  4G 2G15G 6G13
  21372078.672     2546163.711 7   1918300.89323
  24098510.4614    2555926.39745   1985782.52361
  20581264.1094    -926959.78047   -702381.41663
  20790480.289    -5411448.942 7  -4152357.97121
 91  4  8  1  9  0.0000000  0  4G 2G15G 6G13
  21375561.9304    2564463.73947   1932560.66263
  24103602.8054    2582683.34445   2006632.11761
  20581995.406     -923119.141 7   -699388.68723
  20786624.9384   -5431711.18947  -4168146.66961
 91  4  8  1  9 15.0000000  0  4G 2G15G 6G13
  21379055.0704    2582814.95648   1946860.31363
  24108718.8364    2609579.06145   2027589.80961
  20582750.227     -919150.927 7   -696296.55923
  20782796.9694   -5451825.37847  -4183820.00661
 91  4  8  1  9 30.0000000  0  4G 2G15G 6G13
  21382555.5234    2601219.96147   1961201.86363
  24113864.9064    2636616.15845   2048657.67261
  20583529.898     -915052.196 7   -693102.72523
  20778999.3834   -5471788.95847  -4199375.98561
 91  4  8  1  9 45.0000000  0  4G 2G15G 6G13
  21386067.8834    2619676.72148   1975583.76363
  24119034.8834    2663792.47345   2069834.02761
  20584334.633     -910825.000 7   -689808.79223
  20775227.2114   -5491603.65847  -4214815.94662
 91  4  8  1 10  0.0000000  0  4G 2G15G 6G13
  21389590.0314    2638186.59748   1990007.03963
  24124236.2664    2691109.20345   2091119.79961
  20585164.0634    -906467.73747   -686413.51463
  20771484.7664   -5511268.29247  -4230138.97862
 91  4  8  1 10 15.0000000  0  4G 2G15G 6G13
  21393122.0944    2656747.50347   2004470.08363
  24129460.1564    2718563.93045   2112513.09361
  20586017.469     -901982.490 7   -682918.51023
  20767771.7584   -5530784.89247  -4245346.66161
 91  4  8  1 10 30.0000000  0  4G 2G15G 6G13
  21396666.0554    2675360.58548   2018973.78563
  24134712.445     2746157.661 5   2134014.72321
  20586895.820     -897367.722 7   -679322.57123
  20764086.289    -5550152.139 7  -4260437.96922
 91  4  8  1 10 45.0000000  0  4G 2G15G 6G13
  21400215.9774    2694022.33548   2033515.39763
  24139989.016     2773886.542 5   2155621.62421
  20587797.781     -892626.930 7   -675628.43623
  20760428.2734   -5569373.53647  -4275415.62562
 91  4  8  1 11  0.0000000  0  4G 2G15G 6G13
  21403776.4534    2712737.91847   2048098.97163
  24145292.6174    2801755.95645   2177338.05261
  20588725.2974    -887754.61647   -671831.82463
  20756799.469    -5588443.866 7  -4290275.56722
 91  4  8  1 11 15.0000000  0  4G 2G15G 6G13
  21407348.5234    2731505.06047   2062722.71763
  24150622.4924    2829763.20745   2199161.88261
  20589677.5164    -882752.89647   -667934.37663
  20753199.0314   -5607365.14747  -4305019.36862
 91  4  8  1 11 30.0000000  0  4G 2G15G 6G13
  21410927.9924    2750323.14147   2077386.15563
  24155976.3284    2857907.41345   2221092.44561
  20590653.9224    -877622.20947   -663936.43263
  20749627.023    -5626138.151 7  -4319647.63122
 91  4  8  1 11 45.0000000  0  4G 2G15G 6G13
  21414520.1414    2769192.80547   2092089.79763
  24161356.5704    2886188.73545   2243129.83161
  20591653.945     -872361.946 7   -659837.51523
  20746082.6564   -5644762.17047  -4334159.79962
 91  4  8  1 12  0.0000000  0  4G 2G15G 6G13
  21418121.5004    2788115.08347   2106834.42563
  24166765.0164    2914608.22045   2265274.88761
  20592680.6724    -866970.95147   -655636.72963
  20742567.3524   -5663236.05947  -4348554.97462
 91  4  8  1 12 15.0000000  0  4G 2G15G 6G13
  21421731.9694    2807088.13147   2121618.61763
  24172197.938     2943163.973 5   2287526.12321
  20593730.9384    -861450.60147   -651335.15263
  20739078.7584   -5681561.77047  -4362834.69562
 91  4  8  1 12 30.0000000  0  3G 2G 6G13
  21425352.3834    2826112.68048   2136442.94263
  20594805.7584    -855800.16847   -646932.21363
  20735619.555    -5699738.513 7  -4376998.34322
 91  4  8  1 12 45.0000000  0  3G 2G 6G13
  21428980.5634    2845183.75547   2151303.52363
  20595904.7344    -850024.43847   -642431.63663
  20732189.2274   -5717771.00147  -4391049.58262
 91  4  8  1 13  0.0000000  0  3G 2G 6G13
  21432618.813     2864300.845 7   2166199.96823
  20597027.6414    -844123.74947   -637833.69363
  20728785.3834   -5735659.61947  -4404988.69962
 91  4  8  1 13 15.0000000  0  3G 2G 6G13
  21436266.4144    2883466.70048   2181134.40363
  20598173.6414    -838095.27347   -633136.17663
  20725408.656    -5753401.796 7  -4418813.71522
 91  4  8  1 13 30.0000000  0  3G 2G 6G13
  21439922.9144    2902685.30347   2196109.93563
  20599346.6414    -831934.95847   -628335.92263
  20722060.836    -5770993.622 7  -4432521.57922
 91  4  8  1 13 45.0000000  0  3G 2G 6G13
  21443588.8524    2921950.85047   2211122.05663
  20600544.1254    -825648.31347   -623437.23663
  20718740.188    -5788440.587 7  -4446116.56722
 91  4  8  1 14  0.0000000  0  3G 2G 6G13
  21447264.2584    2941265.01247   2226172.04963
  20601763.5004    -819233.59647   -618438.75863
  20715448.8594   -5805741.24047  -4459597.53962
 91  4  8  1 14 15.0000000  0  3G 2G 6G13
  21450948.844     2960628.588 7   2241260.55923
  20603009.1954    -812689.66247   -613339.58563
  20712184.664    -5822894.463 7  -4472963.63022
 91  4  8  1 14 30.0000000  0  3G 2G 6G13
  21454644.7894    2980045.12347   2256390.33263
  20604279.0634    -806012.91347   -608136.91863
  20708949.0234   -5839896.90447  -4486212.23162
 91  4  8  1 14 45.0000000  0  3G 2G 6G13
  21458347.9694    2999509.53447   2271557.39763
  20605573.4454    -799208.26147   -602834.58263
  20705740.852    -5856753.468 7  -4499347.16622
 91  4  8  1 15  0.0000000  0  3G 2G 6G13
  21462061.9384    3019023.00147   2286762.70363
  20606894.4304    -792274.63947   -597431.74863
  20702561.078    -5873463.176 7  -4512367.66922
 91  4  8  1 15 15.0000000  0  3G 2G 6G13
  21465783.4694    3038582.06447   2302003.53263
  20608238.2664    -785215.17947   -591930.86863
  20699408.992    -5890029.130 7  -4525276.14922
 91  4  8  1 15 30.0000000  0  3G 2G 6G13
  21469514.320     3058186.816 7   2317279.97023
  20609604.4694    -778029.60147   -586331.71163
  20696284.016    -5906451.271 7  -4538072.57422
 91  4  8  1 15 45.0000000  0  3G 2G 6G13
  21473254.9774    3077838.37447   2332592.88363
  20610995.8204    -770716.58047   -580633.24863
  20693185.984    -5922728.604 7  -4550756.15722
 91  4  8  1 16  0.0000000  0  3G 2G 6G13
  21477000.8984    3097535.56747   2347941.34163
  20612411.6804    -763277.21847   -574836.33763
  20690116.227    -5938862.261 7  -4563327.79222
 91  4  8  1 16 15.0000000  0  3G 2G 6G13
  21480759.8054    3117286.32047   2363331.54863
  20613852.992     -755703.511 7   -568934.73823
  20687075.523    -5954844.275 7  -4575781.25222
 91  4  8  1 16 30.0000000  0  3G 2G 6G13
  21484528.8444    3137084.37947   2378758.60763
  20615319.320     -748001.691 7   -562933.31023
  20684061.367    -5970681.049 7  -4588121.54322
 91  4  8  1 16 45.0000000  0  3G 2G 6G13
  21488301.7194    3156930.02647   2394222.74663
  20616809.9304    -740171.07747   -556831.52763
  20681075.414    -5986371.992 7  -4600348.20422
 91  4  8  1 17  0.0000000  0  3G 2G 6G13
  21492090.359     3176822.461 7   2409723.36023
  20618323.883     -732212.377 7   -550629.93623
  20678117.195    -6001918.049 7  -4612461.96222
 91  4  8  1 17 15.0000000  0  3G 2G 6G13
  21495885.2584    3196762.97347   2425261.41963
  20619862.125     -724124.330 7   -544327.55223
  20675186.203    -6017318.061 7  -4624461.92022
 91  4  8  1 17 30.0000000  0  3G 2G 6G13
  21499686.9454    3216748.46047   2440834.52463
  20621425.6644    -715909.94147   -537926.72063
  20672282.313    -6032575.136 7  -4636350.49722
 91  4  8  1 17 45.0000000  0  3G 2G 6G13
  21503500.2584    3236780.65047   2456444.03063
  20623013.1094    -707567.36347   -531426.00363
  20669405.898    -6047687.522 7  -4648126.33022
 91  4  8  1 18  0.0000000  0  3G 2G 6G13
  21507321.6024    3256866.96547   2472095.70563
  20624626.406     -699088.827 7   -524819.33923
  20666559.477    -6062647.685 7  -4659783.55222
 91  4  8  1 18 15.0000000  0  3G 2G 6G13
  21511151.1644    3276997.53447   2487781.86463
  20626264.633     -690483.988 7   -518114.26023
  20663740.875    -6077465.266 7  -4671329.66822
 91  4  8  1 18 30.0000000  0  3G 2G 6G13
  21514992.0634    3297173.77947   2503503.62263
  20627925.6804    -681751.48947   -511309.70563
  20660948.242    -6092139.053 7  -4682763.74122
 91  4  8  1 18 45.0000000  0  3G 2G 6G13
  21518840.5314    3317399.32747   2519263.78563
  20629612.3914    -672887.46447   -504402.66963
  20658184.500    -6106665.400 7  -4694082.92422
 91  4  8  1 19  0.0000000  0  3G 2G 6G13
  21522696.3674    3337666.26847   2535056.20563
  20631323.781     -663899.935 7   -497399.38623
  20655444.578    -6121052.223 7  -4705293.38222
 91  4  8  1 19 15.0000000  0  3G 2G 6G13
  21526562.3834    3357979.49247   2550884.69863
  20633058.430     -654783.821 7   -490295.91123
  20652735.234    -6135294.738 7  -4716391.39422
 91  4  8  1 19 30.0000000  0  3G 2G 6G13
  21530437.1954    3378337.99347   2566748.46163
  20634815.1414    -645539.95947   -483092.89663
  20650052.688    -6149393.851 7  -4727377.66022
 91  4  8  1 19 45.0000000  0  3G 2G 6G13
  21534318.9304    3398739.33247   2582645.60963
  20636598.6884    -636170.70547   -475792.16863
  20647395.859    -6163351.951 7  -4738254.05322
 91  4  8  1 20  0.0000000  0  3G 2G 6G13
  21538210.7034    3419191.51347   2598582.37763
  20638408.164     -626667.595 7   -468387.14023
  20644769.617    -6177160.819 7  -4749014.16622
 91  4  8  1 20 15.0000000  0  3G 2G 6G13
  21542110.6724    3439689.61847   2614554.92263
  20640241.0084    -617035.60947   -460881.68763
  20642168.555    -6190825.533 7  -4759661.94622
 91  4  8  1 20 30.0000000  0  3G 2G 6G13
  21546020.5314    3460232.62647   2630562.46364
  20642098.3134    -607275.82247   -453276.65163
  20639594.547    -6204347.392 7  -4770198.40722
 91  4  8  1 20 45.0000000  0  3G 2G 6G13
  21549939.5314    3480822.44647   2646606.47463
  20643979.4534    -597385.96747   -445570.26263
  20637048.875    -6217724.395 7  -4780621.99522
 91  4  8  1 21  0.0000000  0  3G 2G 6G13
  21553864.3284    3501455.15147   2662683.89863
  20645885.422     -587370.030 7   -437765.62623
  20634529.617    -6230960.355 7  -4790935.68822
 91  4  8  1 21 15.0000000  0  3G 2G 6G13
  21557801.3914    3522133.24947   2678796.71963
  20647815.750     -577225.506 7   -429860.79023
  20632038.914    -6244052.930 7  -4801137.64422
 91  4  8  1 21 30.0000000  0  3G 2G 6G13
  21561744.219     3542856.103 7   2694944.37323
  20649771.9454    -566952.61247   -421855.93363
  20629575.930    -6257002.407 7  -4811228.09922
 91  4  8  1 21 45.0000000  0  3G 2G 6G13
  21565693.5704    3563624.39347   2711127.44963
  20651752.4064    -556550.92447   -413750.71363
  20627138.023    -6269808.552 7  -4821206.86422
 91  4  8  1 22  0.0000000  0  3G 2G 6G13
  21569658.0474    3584440.80247   2727348.02763
  20653755.3054    -546017.38747   -405542.75663
  20624727.773    -6282468.705 7  -4831071.87222
 91  4  8  1 22 15.0000000  0  3G 2G 6G13
  21573627.8364    3605304.75947   2743605.64163
  20655783.6094    -535352.66747   -397232.57963
  20622347.047    -6294983.637 7  -4840823.71422
 91  4  8  1 22 30.0000000  0  3G 2G 6G13
  21577606.3674    3626216.84847   2759900.77563
  20657839.305     -524555.882 7   -388819.49123
  20619994.344    -6307352.433 7  -4850461.68822
 91  4  8  1 22 45.0000000  0  3G 2G 6G13
  21581595.2664    3647172.56447   2776229.90063
  20659917.8364    -513631.51747   -380306.99463
  20617666.7274   -6319579.73247  -4859989.41662
 91  4  8  1 23  0.0000000  0  3G 2G 6G13
  21585590.4534    3668174.91747   2792595.35963
  20662021.5394    -502576.44247   -371692.64363
  20615367.930    -6331662.555 7  -4869404.55622
 91  4  8  1 23 15.0000000  0  3G 2G 6G13
  21589596.9304    3689224.91947   2808997.95763
  20664150.8444    -491389.56847   -362975.59163
  20613095.469    -6343599.641 7  -4878706.13322
 91  4  8  1 23 30.0000000  0  3G 2G 6G13
  21593612.3134    3710323.06647   2825438.06663
  20666304.1174    -480070.06347   -354155.19663
  20610852.391    -6355390.700 7  -4887893.92722
 91  4  8  1 23 45.0000000  0  3G 2G 6G13
  21597635.3524    3731470.91147   2841916.90363
  20668485.4614    -468616.54247   -345230.37263
  20608636.664    -6367034.330 7  -4896966.84422
 91  4  8  1 24  0.0000000  0  3G 2G 6G13
  21601669.3594    3752663.79647   2858430.83863
  20670688.8754    -457033.37047   -336204.52063
  20606448.3204   -6378535.15347  -4905928.48362
 91  4  8  1 24 15.0000000  0  3G 2G 6G13
  21605710.3754    3773901.51647   2874979.69963
  20672916.6804    -445320.90447   -327077.92063
  20604285.969    -6389893.446 7  -4914779.05722
 91  4  8  1 24 30.0000000  0  3G 2G 6G13
  21609761.8134    3795185.67147   2891564.75263
  20675168.9924    -433477.26147   -317849.10463
  20602152.188    -6401107.464 7  -4923517.21022
 91  4  8  1 24 45.0000000  0  3G 2G 6G13
  21613820.6254    3816519.05547   2908188.16063
  20677448.5864    -421499.58147   -308515.84563
  20600046.2974   -6412174.62647  -4932140.93362
 91  4  8  1 25  0.0000000  0  3G 2G 6G13
  21617889.0004    3837901.48447   2924849.78963
  20679753.7504    -409388.10547   -299078.32662
  20597967.5314   -6423095.32447  -4940650.53062
 91  4  8  1 25 15.0000000  0  3G 2G 6G13
  21621968.5004    3859331.70647   2941548.66463
  20682084.4614    -397144.00147   -289537.46362
  20595916.492    -6433870.827 7  -4949046.98322
 91  4  8  1 25 30.0000000  0  3G 2G 6G13
  21626053.2194    3880806.90347   2958282.57963
  20684439.2274    -384769.84147   -279895.26063
  20593894.1564   -6444503.69647  -4957332.29862
 91  4  8  1 25 45.0000000  0  3G 2G 6G13
  21630149.3134    3902327.89947   2975052.18663
  20686819.8914    -372264.75347   -270151.03563
  20591897.0084   -6454993.08847  -4965505.80862
 91  4  8  1 26  0.0000000  0  3G 2G 6G13
  21634253.2734    3923895.77947   2991858.32563
  20689224.8204    -359627.62047   -260303.91963
  20589928.7344   -6465338.48147  -4973567.11662
 91  4  8  1 26 15.0000000  0  3G 2G 6G13
  21638365.6804    3945505.85847   3008697.35163
  20691652.8364    -346862.79347   -250357.30363
  20587985.6174   -6475544.32947  -4981519.68462
 91  4  8  1 26 30.0000000  0  3G 2G 6G13
  21642487.3364    3967158.61947   3025569.63463
  20694104.8444    -333969.76647   -240310.78563
  20586070.4224   -6485610.19047  -4989363.17662
 91  4  8  1 26 45.0000000  0  3G 2G 6G13
  21646613.5314    3988852.96547   3042474.31463
  20696584.3204    -320949.59247   -230165.19163
  20584182.2974   -6495537.09547  -4997098.39262
 91  4  8  1 27  0.0000000  0  3G 2G 6G13
  21650751.0004    4010594.03147   3059415.40963
  20699087.2194    -307797.26047   -219916.62163
  20582321.1334   -6505320.13747  -5004721.50562
 91  4  8  1 27 15.0000000  0  3G 2G 6G13
  21654897.7974    4032381.70647   3076392.81963
  20701615.1414    -294512.84247   -209565.13263
  20580487.977    -6514959.579 7  -5012232.71722
 91  4  8  1 27 30.0000000  0  3G 2G 6G13
  21659050.8204    4054211.54047   3093403.08163
  20704165.6094    -281100.37947   -199113.85962
  20578679.344    -6524459.561 7  -5019635.25322
 91  4  8  1 27 45.0000000  0  3G 2G 6G13
  21663213.4064    4076088.44747   3110450.02263
  20706745.3204    -267555.16547   -188559.13863
  20576898.4304   -6533815.55947  -5026925.60962
 91  4  8  1 28  0.0000000  0  3G 2G 6G13
  21667386.3204    4098008.73347   3127530.76363
  20709344.9064    -253880.76647   -177903.76063
  20575144.313    -6543031.252 7  -5034106.63122
 91  4  8  1 28 15.0000000  0  3G 2G 6G13
  21671566.1334    4119972.55847   3144645.43163
  20711973.5784    -240076.91047   -167147.51262
  20573416.4774   -6552106.76047  -5041178.41762
 91  4  8  1 28 30.0000000  0  3G 2G 6G13
  21675752.3134    4141979.75047   3161793.89263
  20714626.2194    -226143.62147   -156290.40263
  20571716.5784   -6561041.98147  -5048140.88762
 91  4  8  1 28 45.0000000  0  3G 2G 6G13
  21679949.9384    4164032.98747   3178978.24063
  20717303.1884    -212078.30047   -145330.41663
  20570043.5474   -6569834.52947  -5054992.18862
 91  4  8  1 29  0.0000000  0  3G 2G 6G13
  21684155.6954    4186131.65147   3196197.97863
  20720003.5084    -197881.24247   -134267.78063
  20568397.1884   -6578484.81247  -5061732.63362
 91  4  8  1 29 15.0000000  0  3G 2G 6G13
  21688369.5634    4208274.56647   3213452.19463
  20722728.3834    -183553.69847   -123103.45662
  20566777.8594   -6586994.10747  -5068363.21462
 91  4  8  1 29 30.0000000  0  3G 2G 6G13
  21692592.0704    4230463.14247   3230741.99263
  20725480.3524    -169094.15347   -111836.27762
  20565185.9304   -6595360.99647  -5074882.83262
 91  4  8  1 29 45.0000000  0  3G 2G 6G13
  21696821.4924    4252697.77147   3248067.68063
  20728256.9614    -154502.21247   -100465.93462
  20563622.3834   -6603585.43947  -5081291.44962
 91  4  8  1 30  0.0000000  0  3G 2G 6G13
  21701061.2894    4274976.32647   3265427.59963
  20731058.5394    -139780.03147    -88994.10462
  20562082.2194   -6611669.52347  -5087590.70162
 91  4  8  1 30 15.0000000  0  3G 2G 6G13
  21705310.2894    4297303.78847   3282825.62163
  20733887.8054    -124922.49247    -77416.80262
  20560572.5164   -6619608.28747  -5093776.71762
 91  4  8  1 30 30.0000000  0  3G 2G 6G13
  21709567.4454    4319677.28547   3300259.52063
  20736741.1174    -109932.19547    -65736.05162
  20559089.2274   -6627404.96747  -5099852.01462
 91  4  8  1 30 45.0000000  0  3G 2G 6G13
  21713836.3754    4342099.23747   3317731.17263
  20739617.1174     -94807.14247    -53950.29562
  20557631.9224   -6635057.06147  -5105814.65162
 91  4  8  1 31  0.0000000  0  3G 2G 6G13
  21718109.2734    4364567.28247   3335238.74363
  20742518.7734     -79549.29647    -42061.06562
  20556204.4224   -6642567.07547  -5111666.57162
 91  4  8  1 31 15.0000000  0  3G 2G 6G13
  21722394.3674    4387083.81547   3352784.09863
  20745450.9614     -64156.01447    -30066.30262
  20554801.4774   -6649932.64447  -5117405.93662
 91  4  8  1 31 30.0000000  0  3G 2G 6G13
  21726689.6094    4409645.01847   3370364.25563
  20748401.8754     -48631.25447    -17969.09562
  20553426.1484   -6657157.76947  -5123035.87462
 91  4  8  1 31 45.0000000  0  3G 2G 6G13
  21730988.0634    4432251.35047   3387979.57663
  20751386.0164     -32974.50347     -5769.02462
  20552078.7734   -6664242.05647  -5128556.06162
 91  4  8  1 32  0.0000000  0  3G 2G 6G13
  21735303.3674    4454907.89247   3405634.02363
  20754388.7664     -17180.81947      6537.74662
  20550757.7504   -6671180.43247  -5133962.55662
 91  4  8  1 32 15.0000000  0  3G 2G 6G13
  21739621.7344    4477614.05247   3423327.13363
  20757422.6414      -1250.63147     18950.87762
  20549465.109    -6677973.538 7  -5139255.84622
 91  4  8  1 32 30.0000000  0  3G 2G 6G13
  21743951.3284    4500367.54247   3441057.12363
  20760477.8204      14813.96547     31468.74862
  20548200.0784   -6684623.70047  -5144437.75562
 91  4  8  1 32 45.0000000  0  3G 2G 6G13
  21748290.7274    4523164.85047   3458821.26063
  20763557.3284      31009.34247     44088.52162
  20546961.1724   -6691134.71747  -5149511.23662
 91  4  8  1 33  0.0000000  0  3G 2G 6G13
  21752639.5554    4546011.14647   3476623.56863
  20766667.7894      47340.87047     56814.39062
  20545749.3834   -6697501.39647  -5154472.24562
 91  4  8  1 33 15.0000000  0  3G 2G 6G13
  21756993.8914    4568902.80247   3494461.21363
  20769802.1884      63804.78247     69643.41262
  20544565.4844   -6703727.51047  -5159323.72462
 91  4  8  1 33 30.0000000  0  3G 2G 6G13
  21761356.672     4591840.935 7   3512335.08923
  20772960.3674      80402.20747     82576.46762
  20543407.344    -6709812.225 7  -5164065.02122
 91  4  8  1 33 45.0000000  0  3G 2G 6G13
  21765734.0394    4614825.99348   3530245.53263
  20776144.2974      97133.79947     95614.07262
  20542275.7274   -6715755.00047  -5168695.72262
 91  4  8  1 34  0.0000000  0  3G 2G 6G13
  21770114.5474    4637858.52747   3548192.95063
  20779353.3284     114000.02547    108756.58662
  20541172.0554   -6721555.65847  -5173215.68462
 91  4  8  1 34 15.0000000  0  3G 2G 6G13
  21774506.555     4660939.752 7   3566178.33723
  20782588.9304     131002.29447    122005.10962
  20540095.3364   -6727212.59547  -5177623.64962
 91  4  8  1 34 30.0000000  0  3G 2G 6G13
  21778910.0004    4684067.30347   3584199.79963
  20785848.2274     148138.16547    135357.73262
  20539046.0704   -6732728.45447  -5181921.68862
 91  4  8  1 34 45.0000000  0  3G 2G 6G13
  21783318.1884    4707241.44947   3602257.56963
  20789135.2274     165408.08247    148814.81862
  20538023.1644   -6738103.04147  -5186109.64262
 91  4  8  1 35  0.0000000  0  3G 2G 6G13
  21787737.664     4730460.160 7   3620350.08823
  20792444.7734     182809.93847    162374.70262
  20537027.1954   -6743338.61247  -5190189.27562
 91  4  8  1 35 15.0000000  0  3G 2G 6G13
  21792163.8674    4753723.18647   3638477.11563
  20795782.1254     200343.61647    176037.30262
  20536056.8134   -6748435.38247  -5194160.75762
 91  4  8  1 35 30.0000000  0  3G 2G 6G13
  21796597.6484    4777028.97647   3656637.46463
  20799145.3284     218007.76847    189801.57462
  20535113.4304   -6753395.09747  -5198025.43262
 91  4  8  1 35 45.0000000  0  3G 2G 6G13
  21801044.9384    4800382.56247   3674835.06863
  20802530.2974     235807.22147    203671.27962
  20534195.3834   -6758212.84947  -5201779.48862
 91  4  8  1 36  0.0000000  0  3G 2G 6G13
  21805493.9844    4823782.43047   3693068.72763
  20805944.3284     253740.42647    217645.20962
  20533306.5944   -6762890.14047  -5205424.10262
 91  4  8  1 36 15.0000000  0  3G 2G 6G13
  21809959.3204    4847229.38747   3711339.09663
  20809380.9534     271808.10047    231723.91862
  20532443.016    -6767426.553 7  -5208958.92521
 91  4  8  1 36 30.0000000  0  3G 2G 6G13
  21814427.6564    4870719.71647   3729643.24263
  20812848.1024     290006.83847    245904.75362
  20531604.9454   -6771825.82347  -5212386.89262
 91  4  8  1 36 45.0000000  0  3G 2G 6G13
  21818905.6484    4894257.74747   3747984.55463
  20816331.7114     308340.97247    260191.08662
  20530795.6254   -6776083.67847  -5215704.66762
 91  4  8  1 37  0.0000000  0  3G 2G 6G13
  21823396.6254    4917843.00147   3766362.68263
  20819848.0084     326809.82247    274582.39862
  20530013.2274   -6780200.96247  -5218912.90462
 91  4  8  1 37 15.0000000  0  3G 2G 6G13
  21827891.672     4941474.909 7   3784777.13923
  20823389.7274     345412.67347    289078.12062
  20529255.2584   -6784178.23047  -5222012.03562
 91  4  8  1 37 30.0000000  0  3G 2G 6G13
  21832395.1334    4965148.99047   3803224.47563
  20826953.9144     364145.42747    303675.07362
  20528523.8754   -6788020.03347  -5225005.61462
 91  4  8  1 37 45.0000000  0  3G 2G 6G13
  21836913.1564    4988871.78747   3821709.77863
  20830543.3674     383014.75847    318378.45362
  20527820.2584   -6791719.93547  -5227888.62262
 91  4  8  1 38  0.0000000  0  3G 2G 6G13
  21841435.2584    5012643.15747   3840232.91363
  20834159.4144     402020.28647    333187.95362
  20527143.1884   -6795278.22647  -5230661.28062
 91  4  8  1 38 15.0000000  0  3G 2G 6G13
  21845969.2974    5036461.82047   3858792.91863
  20837800.5084     421160.83947    348102.67462
  20526493.5634   -6798696.41047  -5233324.76962
 91  4  8  1 38 30.0000000  0  3G 2G 6G13
  21850510.5634    5060326.36847   3877388.66563
  20841468.2814     440434.75347    363121.30662
  20525867.4844   -6801976.13847  -5235880.36561
 91  4  8  1 38 45.0000000  0  3G 2G 6G13
  21855058.1484    5084237.77547   3896020.92963
  20845162.1954     459843.28647    378244.83762
  20525270.2894   -6805116.40547  -5238327.29662
 91  4  8  1 39  0.0000000  0  3G 2G 6G13
  21859617.8444    5108194.39647   3914688.43163
  20848881.9614     479384.93047    393472.09262
  20524698.9614   -6808119.08747  -5240667.01862
 91  4  8  1 39 15.0000000  0  3G 2G 6G13
  21864183.8754    5132196.62847   3933391.47163
  20852628.0704     499059.85447    408803.19062
  20524153.6174   -6810983.91547  -5242899.31362
 91  4  8  1 39 30.0000000  0  3G 2G 6G13
  21868761.3754    5156246.09747   3952131.32863
  20856396.3284     518869.79647    424239.51362
  20523634.8364   -6813709.18747  -5245022.87661
 91  4  8  1 39 45.0000000  0  3G 2G 6G13
  21873348.9924    5180341.31547   3970906.81463
  20860188.6804     538813.31947    439779.91962
  20523144.0084   -6816296.67447  -5247039.06462
 91  4  8  1 40  0.0000000  0  3G 2G 6G13
  21877939.6804    5204488.31347   3989722.65563
  20864015.0164     558896.36547    455429.04162
  20522678.5944   -6818740.49847  -5248943.30662
 91  4  8  1 40 15.0000000  0  3G 2G 6G13
  21882544.7974    5228679.25547   4008572.74463
  20867860.3754     579111.09247    471180.77362
  20522237.9064   -6821048.59647  -5250741.79162
 91  4  8  1 40 30.0000000  0  3G 2G 6G13
  21887156.5234    5252918.51847   4027460.49063
  20871732.4534     599461.95847    487038.59062
  20521827.4384   -6823216.75747  -5252431.23462
 91  4  8  1 40 45.0000000  0  3G 2G 6G13
  21891780.6724    5277204.75847   4046384.84263
  20875630.6484     619947.50347    503001.34362
  20521438.9924   -6825246.43447  -5254012.77061
 91  4  8  1 41  0.0000000  0  3G 2G 6G13
  21896409.3054    5301537.05547   4065345.06663
  20879554.7734     640566.91847    519068.41662
  20521079.3364   -6827138.86047  -5255487.35661
 91  4  8  1 41 15.0000000  0  3G 2G 6G13
  21901047.7814    5325917.39147   4084342.72663
  20883503.4844     661322.15147    535241.32262
  20520745.5864   -6828892.07647  -5256853.46961
 91  4  8  1 41 30.0000000  0  3G 2G 6G13
  21905698.8754    5350348.42847   4103379.91063
  20887481.9694     682215.94347    551522.19562
  20520439.0944   -6830503.45847  -5258109.05961
 91  4  8  1 41 45.0000000  0  3G 2G 6G13
  21910355.0704    5374825.78347   4122453.16063
  20891485.2274     703243.99447    567907.68262
  20520158.3984   -6831977.38947  -5259257.54662
 91  4  8  1 42  0.0000000  0  3G 2G 6G13
  21915021.2274    5399350.12147   4141563.03863
  20895509.8984     724406.95447    584398.29262
  20519904.7274   -6833313.49147  -5260298.63562
 91  4  8  1 42 15.0000000  0  3G 2G 6G13
  21919699.8444    5423921.09647   4160709.25763
  20899559.8444     745704.20347    600993.54962
  20519676.7664   -6834512.63047  -5261232.99162
 91  4  8  1 42 30.0000000  0  3G 2G 6G13
  21924383.9774    5448544.58847   4179896.38663
  20903640.3524     767141.48747    617697.91662
  20519474.2664   -6835568.93347  -5262056.05962
 91  4  8  1 42 45.0010000  0  3G 2G 6G13
  21929080.3884    5473219.90647   4199123.91263
  20907744.8564     788718.13347    634510.88263
  20519299.7314   -6836484.85747  -5262769.73562
 91  4  8  1 43  0.0010000  0  3G 2G 6G13
  21933784.2314    5497938.90247   4218385.45963
  20911876.4274     810426.43647    651426.43563
  20519151.3104   -6837265.29847  -5263377.83862
 91  4  8  1 43 15.0010000  0  3G 2G 6G13
  21938494.4354    5522705.93747   4237684.44763
  20916034.458      832270.539 7    668447.80122
  20519030.4034   -6837907.59447  -5263878.29962
 91  4  8  1 43 30.0010000  0  3G 2G 6G13
  21943217.5214    5547520.03547   4257020.11363
  20920217.9504     854249.49147    685574.24962
  20518932.8724   -6838413.06647  -5264272.14362
 91  4  8  1 43 45.0010000  0  3G 2G 6G13
  21947947.5364    5572381.49547   4276392.67163
  20924428.2394     876363.39047    702805.85462
  20518862.1144   -6838781.66748  -5264559.33562
 91  4  8  1 44  0.0010000  0  3G 2G 6G13
  21952691.7394    5597295.53947   4295806.21463
  20928658.911      898617.532 7    720146.73022
  20518819.7784   -6839008.13647  -5264735.77662
 91  4  8  1 44 15.0010000  0  3G 2G 6G13
  21957441.2864    5622259.23247   4315258.43363
  20932920.9974     921009.19247    737594.77262
  20518805.9424   -6839095.74747
 91  4  8  1 44 30.0010000  0  3G 2G 6G13
  21962197.5444    5647268.21047   4334745.94063
  20937209.700      943533.478 7    755146.14722
  20518812.0214   -6839049.04847
 91  4  8  1 44 45.0010000  0  3G 2G 6G13
  21966970.2634    5672322.73947   4354268.95863
  20941516.5994     966190.90347    772801.27462
  20518847.9424   -6838867.91547
 91  4  8  1 45  0.0010000  0  3G 2G 6G13
  21971744.505     5697428.267 7   4373831.69223
  20945860.3174     988986.99647    790564.45262
  20518908.4504   -6838547.01948
 91  4  8  1 45 15.0010000  0  3G 2G 6G13
  21976531.9584    5722582.90047   4393432.69962
  20950218.5134    1011919.78147    808434.14162
  20518995.8494   -6838088.48548  -5264019.00662
 91  4  8  1 45 30.0010000  0  3G 2G 6G13
  21981329.5284    5747785.17747   4413070.83862
  20954610.9194    1034987.68447    826409.12662
  20519108.1384   -6837493.83047  -5263555.61162
 91  4  8  1 45 45.0010000  0  3G 2G 6G13
  21986131.661     5773033.692 7   4432744.98822
  20959027.1774    1058189.40047    844488.37962
  20519248.5284   -6836764.49147  -5262987.26662
 91  4  8  1 46  0.0010000  0  3G 2G 6G13
  21990946.8804    5798331.38147   4452457.47762
  20963465.364     1081527.732 7    862674.08122
  20519411.8104   -6835898.00648  -5262312.04562
 91  4  8  1 46 15.0010000  0  3G 2G 6G13
  21995773.0994    5823677.32147   4472207.55962
  20967931.5284    1105001.79947    880965.54862
  20519603.9194   -6834895.58048  -5261530.90362
 91  4  8  1 46 30.0010000  0  3G 2G 6G13
  22000601.614     5849072.229 7   4491995.78222
  20972427.4894    1128612.21247    899363.26862
  20519820.1384   -6833756.49548  -5260643.27162
 91  4  8  1 46 45.0010000  0  3G 2G 6G13
  22005442.0604    5874511.84847   4511818.86462
  20976945.7004    1152354.83247    917864.00062
  20520061.4974   -6832484.98248  -5259652.45462
 91  4  8  1 47  0.0010000  0  3G 2G 6G13
  22010293.9504    5900006.27447   4531684.64262
  20981491.3494    1176239.47147    936475.40362
  20520329.9504   -6831071.35648  -5258550.89662
 91  4  8  1 47 15.0010000  0  3G 2G 6G13
  22015154.9584    5925549.07347   4551588.11262
  20986062.177     1200259.908 7    955192.61322
  20520625.3964   -6829522.27648  -5257343.79062
 91  4  8  1 47 30.0010000  0  3G 2G 6G13
  22020024.7634    5951141.04247   4571529.90462
  20990658.989     1224416.658 7    974016.04122
  20520947.0444   -6827837.08948  -5256030.63462
 91  4  8  1 47 45.0010000  0  3G 2G 6G13
  22024905.1774    5976783.11247   4591510.73362
  20995279.591     1248710.646 7    992946.40522
  20521292.888    -6826015.075 8  -5254610.86022
 91  4  8  1 48  0.0010000  0  3G 2G 6G13
  22029792.6224    6002472.17647   4611528.17662
  20999926.8644    1273138.89147   1011981.38462
  20521664.2394   -6824059.39848  -5253086.92862
 91  4  8  1 48 15.0010000  0  3G 2G 6G13
  22034690.5604    6028208.01747   4631582.07762
  21004602.567     1297701.020 7   1031120.69522
  20522060.9814   -6821970.43547  -5251459.13462
 91  4  8  1 48 30.0010000  0  3G 2G 6G13
  22039596.3724    6053992.44747   4651673.83562
  21009305.2084    1322398.74747   1050365.66462
  20522485.9274   -6819746.77447  -5249726.38362
 91  4  8  1 48 45.0010000  0  3G 2G 6G13
  22044512.8804    6079825.75947   4671803.68362
  21014029.0834    1347232.34547   1069716.50862
  20522934.0674   -6817388.29148  -5247888.57662
 91  4  8  1 49  0.0010000  0  3G 2G 6G13
  22049436.3414    6105709.03347   4691972.46662
  21018781.231     1372202.894 7   1089174.06122
  20523409.5754   -6814894.15248  -5245945.05762
 91  4  8  1 49 15.0010000  0  3G 2G 6G13
  22054374.7084    6131642.69047   4712180.50962
  21023558.810     1397310.713 7   1108738.58022
  20523909.1854   -6812263.90847  -5243895.48862
 91  4  8  1 49 30.0010000  0  3G 2G 6G13
  22059318.9664    6157629.43147   4732429.91462
  21028362.989     1422558.572 7   1128412.22422
  20524436.6064   -6809495.31947  -5241738.11462
 91  4  8  1 49 45.0010000  0  3G 2G 6G13
  22064272.8804    6183661.83947   4752714.90362
  21033189.8644    1447938.98047   1148189.15462
  20524987.3884   -6806595.86947  -5239478.77562
 91  4  8  1 50  0.0010000  0  3G 2G 6G13
  22069232.5444    6209741.04147   4773036.35662
  21038050.1064    1473452.87147   1168070.10162
  20525564.9194   -6803564.47548  -5237116.61862
 91  4  8  1 50 15.0010000  0  3G 2G 6G13
  22074208.5754    6235870.82547   4793397.22362
  21042927.7084    1499104.18147   1188058.12762
  20526166.6224   -6800397.68347  -5234648.96162
 91  4  8  1 50 30.0010000  0  3G 2G 6G13
  22079192.2474    6262046.02547   4813793.47762
  21047833.786     1524887.412 7   1208148.93722
  20526794.7314   -6797100.89747  -5232080.00662
 91  4  8  1 50 45.0010000  0  3G 2G 6G13
  22084179.3564    6288276.49647   4834232.79862
  21052769.638     1550812.493 7   1228350.27622
  20527448.9584   -6793664.66047  -5229402.39062
 91  4  8  1 51  0.0010000  0  3G 2G 6G13
  22089178.9974    6314557.05247   4854711.15762
  21057728.927     1576874.098 7   1248657.99722
  20528127.4894   -6790094.31248  -5226620.27762
 91  4  8  1 51 15.0010000  0  3G 2G 6G13
  22094191.2784    6340885.64847
  21062714.872     1603070.293 7
  20528832.669    -6786391.881 7  -5223735.24022
 91  4  8  1 51 30.0010000  0  3G 2G 6G13
  22099209.2714    6367265.16047
  21067723.942     1629403.793 7
  20529563.2164   -6782554.65447  -5220745.16262
 91  4  8  1 51 45.0010000  0  3G 2G 6G13
  22104239.997     6393695.095 7
  21072763.528     1655873.995 7
  20530317.5754   -6778583.48147  -5217650.71161
 91  4  8  1 52  0.0010000  0  4G 2G12G 6G13
  22109277.7784    6420173.59247   4937009.74262
  24423784.6694         -0.84754
  21077826.966     1682479.072 7   1330947.53022
  20531099.161    -6774480.428 7  -5214453.50222
 91  4  8  1 52 15.0010000  0  4G 2G12G 6G13
  22114326.8254    6446700.86747   4957680.33962
  24415459.6614     -43751.22444
  21082912.739     1709219.234 7   1351784.00722
  20531904.9114   -6770245.34147  -5211153.40762
 91  4  8  1 52 30.0010000  0  4G 2G12G 6G13
  22119386.3174    6473277.95047   4978389.75562
  24407138.3494     -87491.36045
  21088024.6694    1736095.41347   1372726.47462
  20532736.1304   -6765877.34547  -5207749.73962
 91  4  8  1 52 45.0010000  0  4G 2G12G 6G13
  22124453.5914    6499903.95647   4999137.28462
  24398816.0364    -131221.95445
  21093164.599     1763106.682 7   1393774.20122
  20533591.5604   -6761377.54547  -5204243.37662
 91  4  8  1 53  0.0010000  0  4G 2G12G 6G13
  22129526.6064    6526583.68147   5019926.67362
  24390495.8024    -174938.10545        -0.39471
  21098335.130     1790257.561 7   1414930.71722
  20534474.9114   -6756741.52248  -5200630.86262
 91  4  8  1 53 15.0010000  0  4G 2G12G 6G13
  22134616.1384    6553314.40647   5040755.81462
  24382179.0364    -218642.14545    -34055.32761
  21103526.7944    1817545.43447   1436193.98662
  20535382.0914   -6751972.10247  -5196914.40662
 91  4  8  1 53 30.0010000  0  4G 2G12G 6G13
  22139711.5134    6580094.60747   5061623.49162
  24373863.7244    -262335.43545    -68101.94861
  21108744.513     1844968.633 7   1457562.69822
  20536315.1534   -6747071.02547  -5193095.35662
 91  4  8  1 53 45.0010000  0  4G 2G12G 6G13
  22144815.5834    6606925.86647   5082530.95962
  24365551.4424    -306016.25545   -102138.82761
  21113990.739     1872528.674 7   1479038.03922
  20537272.4504   -6742037.19747  -5189172.86362
 91  4  8  1 54  0.0010000  0  4G 2G12G 6G13
  22149933.2784    6633808.63347   5103478.57762
  24357242.5524    -349683.91145   -136165.44861
  21119260.146     1900225.863 7   1500620.24922
  20538255.0834   -6736870.17347  -5185146.58362
 91  4  8  1 54 15.0010000  0  4G 2G12G 6G13
  22155060.114     6660743.702 7   5124466.92722
  24348934.9034    -393337.40745   -170181.03961
  21124555.3724    1928060.91747   1522309.88862
  20539264.3564   -6731569.55547  -5181016.20562
 91  4  8  1 54 30.0010000  0  4G 2G12G 6G13
  22160192.2164    6687730.53447   5145495.61962
  24340632.1774    -436976.83445
  21129880.8104    1956033.32747   1544106.56262
  20540297.247    -6726135.877 7  -5176782.14522
 91  4  8  1 54 45.0010000  0  4G 2G12G 6G13
  22165339.5284    6714763.21247   5166560.03462
  24332327.5914    -480607.88745
  21135226.356     1984137.076 7   1566005.57622
  20541355.5754   -6720575.43547  -5172449.30662
 91  4  8  1 55  0.0010000  0  4G 2G12G 6G13
  22170492.6534    6741843.16147   5187661.28762
  24324027.6694    -524229.18145        -0.29771
  21140598.575     2012373.427 7   1588007.91122
  20542439.2554   -6714886.90447  -5168016.65462
 91  4  8  1 55 15.0010000  0  4G 2G12G 6G13
  22175651.6304    6768971.97147   5208800.61162
  24315729.114     -567838.841 5    -33981.68921
  21146000.958     2040743.877 7   1610114.74222
  20543546.3024   -6709069.11047  -5163483.28262
 91  4  8  1 55 30.0010000  0  4G 2G12G 6G13
  22180825.4274    6796154.08347   5229981.47662
  24307434.622     -611432.073 5    -67950.32721
  21151427.146     2069252.915 7   1632329.55322
  20544679.028    -6703117.817 7  -5158845.88822
 91  4  8  1 55 45.0010000  0  4G 2G12G 6G13
  22186007.3564    6823383.89447   5251199.49962
  24299140.661     -655014.223 5   -101910.32321
  21156876.2784    2097894.80447   1654647.89862
  20545835.989    -6697038.752 8  -5154108.93622
 91  4  8  1 56  0.0010000  0  4G 2G12G 6G13
  22191196.1614    6850663.22447   5272456.11062
  24290849.231     -698583.245 5   -135860.09521
  21162353.0834    2126671.29047   1677071.12462
  20547016.380    -6690830.361 8  -5149271.20322
 91  4  8  1 56 15.0010000  0  4G 2G12G 6G13
  22196398.5604    6877991.17947   5293750.61662
  24282562.4504    -742139.80145   -169800.14561
  21167855.544     2155581.409 7   1699598.47622
  20548223.247    -6684493.661 7  -5144333.49322
 91  4  8  1 56 30.0010000  0  4G 2G12G 6G13
  22201609.6384    6905369.27447   5315084.18562
  24274275.6924    -785682.15845
  21173382.5914    2184626.52447   1722230.97962
  20549453.583    -6678027.299 8  -5139294.78521
 91  4  8  1 56 45.0010000  0  4G 2G12G 6G13
  22206827.2864    6932799.44347   5336458.33962
  24265992.6064    -829208.18945
  21178933.6144    2213808.43847   1744970.15562
  20550709.825    -6671429.577 8  -5134153.63222
 91  4  8  1 57  0.0010000  0  4G 2G12G 6G13
  22212059.6464    6960279.07547   5357871.03562
  24257712.6464    -872720.33245
  21184509.724     2243124.350 7   1767813.70122
  20551988.356    -6664703.550 8  -5128912.56522
 91  4  8  1 57 15.0010000  0  4G 2G12G 6G13
  22217298.1614    6987809.23247   5379323.09862
  24249434.1304    -916217.17045        -0.38671
  21190113.325     2272575.376 7   1790762.54022
  20553293.5364   -6657848.32048  -5123570.79862
 91  4  8  1 57 30.0010000  0  4G 2G12G 6G13
  22222542.021     7015390.308 7   5400814.83222
  24241161.5364    -959698.17245    -33881.56461
  21195747.200     2302161.638 7   1813816.75122
  20554621.786    -6650863.768 8  -5118128.27122
 91  4  8  1 57 45.0010000  0  4G 2G12G 6G13
  22227804.7164    7043022.05947   5422346.06362
  24232890.021    -1003163.093 5    -67750.23821
  21201401.997     2331883.174 7   1836976.37422
  20555975.9424   -6643750.16748  -5112585.18462
 91  4  8  1 58  0.0010000  0  4G 2G12G 6G13
  22233071.4354    7070703.35647   5443915.89462
  24224623.8334   -1046612.89145   -101607.13661
  21207081.341     2361738.562 7   1860240.29322
  20557354.0284   -6636509.16347  -5106942.81762
 91  4  8  1 58 15.0010000  0  4G 2G12G 6G13
  22238347.388     7098433.505 7   5465523.78822
  24216358.302    -1090048.138 5   -135452.64821
  21212790.435     2391726.942 7   1883607.84822
  20558754.841    -6629141.670 7  -5101201.88722
 91  4  8  1 58 30.0010000  0  4G 2G12G 6G13
  22243633.9274    7126210.75347   5487168.38762
  24208096.4974   -1133470.18145   -169287.90661
  21218519.849     2421846.558 7   1907077.66422
  20560180.630    -6621649.684 7  -5095363.95622
 91  4  8  1 58 45.0010000  0  4G 2G12G 6G13
  22248930.9584    7154038.77347   5508852.55462
  24199835.6614   -1176875.02645   -203109.77061
  21224277.6224    2452101.03947   1930652.56862
  20561632.4664   -6614029.39848  -5089426.04662
 91  4  8  1 59  0.0010000  0  4G 2G12G 6G13
  22254233.880     7181916.597 7   5530575.51722
  24191578.8964   -1220263.77645   -236919.08361
  21230062.349     2482489.152 7   1954331.60122
  20563105.185    -6606282.371 7  -5083389.37922
 91  4  8  1 59 15.0010000  0  4G 2G12G 6G13
  22259549.9194    7209841.95747   5552335.53062
  24183324.7394   -1263638.49545   -270717.48161
  21235866.231     2513008.438 7   1978112.84322
  20564602.067    -6598411.203 7  -5077255.98222
 91  4  8  1 59 30.0010000  0  4G 2G12G 6G13
  22264875.4504    7237820.34147   5574136.87262
  24175074.067    -1306993.138 5   -304500.21921
  21241701.989     2543664.392 7   2002000.58422
  20566125.896    -6590410.412 8  -5071021.57622
 91  4  8  1 59 45.0010000  0  4G 2G12G 6G13
  22270206.646     7265847.901 7   5595976.51122
  24166827.1064   -1350331.49445   -338270.27961
  21247562.778     2574453.138 7   2025991.79122
  20567672.122    -6582284.177 8  -5064689.42822
 91  4  8  2  0  0.0010000  0  4G 2G12G 6G13
  22275546.0364    7293928.29147   5617857.33162
  24158583.013    -1393649.610 5   -372024.56321
  21253447.0604    2605378.07547   2050089.13262
  20569243.067    -6574029.101 8  -5058256.87622
 91  4  8  2  0 15.0010000  0  4G 2G12G 6G13
  22280900.3644    7322057.67547   5639776.32962
  24150343.6304   -1436951.10545   -405765.87161
  21259356.5214    2636435.19347   2074289.47362
  20570838.3964   -6565649.43148  -5051727.23662
 91  4  8  2  0 30.0010000  0  4G 2G12G 6G13
  22286263.638     7350240.276 7   5661736.78222
  24142106.5284   -1480231.34545   -439490.65761
  21265291.7314    2667628.74347   2098596.12362
  20572456.864    -6557141.092 8  -5045097.34422
 91  4  8  2  0 45.0010000  0  4G 2G12G 6G13
  22291636.3804    7378468.51647   5683732.80862
  24133874.716    -1523497.856 5   -473204.75121
  21271252.927     2698950.999 7   2123003.05922
  20574098.646    -6548511.872 8  -5038373.25322
 91  4  8  2  1  0.0010000  0  4G 2G12G 6G13
  22297017.4034    7406747.35847   5705768.27162
  24125642.903    -1566745.248 5   -506903.93021
  21277240.356     2730406.914 7   2147514.13822
  20575763.6464   -6539756.96848  -5031551.22162
 91  4  8  2  1 15.0010000  0  4G 2G12G 6G13
  22302408.0604    7435077.75347   5727843.89362
  24117417.669    -1609972.320 5   -540587.27721
  21283251.646     2761997.299 7   2172129.99922
  20577455.0284   -6530875.55848  -5024630.61462
 91  4  8  2  1 30.0010000  0  4G 2G12G 6G13
  22307809.0754    7463458.60447   5749958.83362
  24109195.771    -1653180.038 5   -574255.53821
  21289286.810     2793720.891 7   2196849.65822
  20579168.6534   -6521869.01348  -5017612.50462
 91  4  8  2  1 45.0010000  0  4G 2G12G 6G13
  22313220.0214    7491891.12547   5772114.05062
  24100974.856    -1696366.772 5   -607907.46321
  21295347.505     2825578.868 7   2221674.03422
  20580907.528    -6512736.477 8  -5010496.22022
 91  4  8  2  2  0.0010000  0  4G 2G12G 6G13
  22318643.1464    7520374.63347   5794308.98662
  24092762.263    -1739533.134 5   -641543.46521
  21301437.325     2857570.300 7   2246602.39822
  20582668.099    -6503479.003 8  -5003282.58022
 91  4  8  2  2 15.0010000  0  4G 2G12G 6G13
  22324067.5994    7548907.98947   5816542.76362
  24084551.6464   -1782680.06645   -675164.36161
  21307551.021     2889693.819 7   2271633.69522
  20584454.2084   -6494098.02748  -4995972.70662
 91  4  8  2  2 30.0010000  0  4G 2G12G 6G13
  22329510.6384    7577493.29547   5838817.02662
  24076344.9974   -1825805.20745   -708768.27461
  21313687.231     2921951.485 7   2296769.52322
  20586262.794    -6484591.618 8  -4988565.09622
 91  4  8  2  2 45.0010000  0  4G 2G12G 6G13
  22334957.9744    7606125.18647   5861127.59162
  24068141.9744   -1868913.57545   -742359.11261
  21319852.849     2954337.800 7   2322005.59722
  20588094.427    -6474965.437 8  -4981064.14922
 91  4  8  2  3  0.0010000  0  4G 2G12G 6G13
  22340416.0604    7634806.66947   5883476.79862
  24059943.794    -1912001.771 5   -775934.24221
  21326039.521     2986855.912 7   2347344.36922
  20589949.560    -6465216.480 8  -4973467.53722
 91  4  8  2  3 15.0010000  0  4G 2G12G 6G13
  22345880.7554    7663536.43147   5905863.62562
  24051748.833    -1955071.016 5   -809494.58221
  21332253.528     3019504.154 7   2372784.53922
  20591826.981    -6455346.378 8  -4965776.52822
 91  4  8  2  3 30.0010000  0  4G 2G12G 6G13
  22351360.8724    7692319.34547   5928291.87462
  24043556.9194   -1998116.10645   -843036.11661
  21338487.974     3052287.326 7   2398329.85322
  20593729.1384   -6445350.53648  -4957987.53462
 91  4  8  2  3 45.0010000  0  4G 2G12G 6G13
  22356846.2634    7721153.41147   5950759.98762
  24035370.583    -2041138.927 5   -876560.29921
  21344755.5674    3085203.20647   2423978.58062
  20595654.700    -6435231.387 8  -4950102.46322
 91  4  8  2  4  0.0010000  0  4G 2G12G 6G13
  22362344.1464    7750038.86347   5973268.13562
  24027187.3564   -2084139.00645   -910066.76161
  21351043.575     3118251.871 7   2449730.76822
  20597604.630    -6424989.050 8  -4942121.39922
 91  4  8  2  4 15.0010000  0  4G 2G12G 6G13
  22367851.4584    7778975.35747   5995816.04662
  24019007.4274   -2127116.34645   -943555.52261
  21357355.763     3151432.831 7   2475586.04622
  20599576.864    -6414624.132 8  -4934044.81822
 91  4  8  2  4 30.0010000  0  4G 2G12G 6G13
  22373367.4424    7807959.78347   6018401.31362
  24010833.825    -2170073.650 5   -977028.63821
  21363695.146     3184742.988 7   2501541.98822
  20601571.021    -6404139.814 8  -4925875.19822
 91  4  8  2  4 45.0010000  0  4G 2G12G 6G13
  22378892.9424    7836994.80147   6041026.00662
  24002661.442    -2213008.137 5  -1010483.98721
  21370059.583     3218184.781 7   2527600.50222
  20603590.380    -6393533.728 8  -4917610.70022
 91  4  8  2  5  0.0010000  0  4G 2G12G 6G13
  22384425.9354    7866080.23647   6063689.98362
  23994496.575    -2255919.629 5  -1043921.40721
  21376449.067     3251757.919 7   2553761.36522
  20605631.169    -6382806.219 8  -4909251.58722
 91  4  8  2  5 15.0010000  0  4G 2G12G 6G13
  22389969.4034    7895214.81947   6086392.25562
  23986335.310    -2298809.299 6  -1077341.83121
  21382863.481     3285461.006 7   2580023.49122
  20607694.599    -6371958.885 8  -4900799.09522
 91  4  8  2  5 30.0010000  0  4G 2G12G 6G13
  22395523.7244    7924396.67847   6109131.37562
  23978179.3564   -2341678.69446  -1110746.46361
  21389300.763     3319291.964 7   2606385.26022
  20609781.255    -6360993.761 8  -4892254.82722
 91  4  8  2  5 45.0010000  0  4G 2G12G 6G13
  22401086.7164    7953629.45347   6131910.15462
  23970026.6464   -2384523.87846  -1144132.21661
  21395763.481     3353254.295 7   2632849.39622
  20611891.810    -6349907.759 8  -4883616.36822
 91  4  8  2  6  0.0010000  0  4G 2G12G 6G13
  22406657.6774    7982908.60647   6154725.07862
  23961876.7474   -2427349.14146  -1177502.45961
  21402248.833     3387343.327 7   2659412.26422
  20614023.247    -6338705.804 8  -4874887.55422
 91  4  8  2  6 15.0010000  0  4G 2G12G 6G13
  22412240.4894    8012235.77647   6177577.41762
  23953730.9194   -2470152.71546  -1210855.80761
  21408759.778     3421560.422 7   2686074.92022
  20616177.044    -6327386.431 8  -4866067.24422
 91  4  8  2  6 30.0010000  0  4G 2G12G 6G13
  22417829.2084    8041610.75347   6200467.00762
  23945590.5214   -2512934.33446  -1244192.02661
  21415296.388     3455905.428 7   2712837.23922
  20618353.341    -6315950.159 8  -4857155.84722
 91  4  8  2  6 45.0010000  0  4G 2G12G 6G13
  22423424.5134    8071033.05547   6223393.47262
  23937453.8644   -2555694.15846  -1277511.27061
  21421856.481     3490377.777 7   2739698.79122
  20620551.575    -6304397.456 8  -4848153.72322
 91  4  8  2  7  0.0010000  0  4G 2G12G 6G13
  22429035.5524    8100502.54347   6246356.71362
  23929320.146    -2598432.060 6  -1310813.43321
  21428439.630     3524977.153 7   2766659.32622
  20622771.653    -6292728.752 8  -4839061.20622
 91  4  8  2  7 15.0010000  0  4G 2G12G 6G13
  22434653.2634    8130023.76647   6269360.25862
  23921192.0054   -2641143.40846  -1344094.87961
  21435048.052     3559707.885 7   2793722.21522
  20625016.466    -6280939.746 8  -4829874.95222
 91  4  8  2  7 30.0010000  0  4G 2G12G 6G13
  22440279.7314    8159592.95347   6292401.17062
  23913068.521    -2683831.643 6  -1377358.34021
  21441684.208     3594565.988 7   2820884.35522
  20627281.364    -6269034.529 8  -4820598.14022
 91  4  8  2  7 45.0010000  0  4G 2G12G 6G13
  22445915.8884    8189214.14947   6315482.62162
  23904949.950    -2726492.459 6  -1410600.42521
  21448340.130     3629555.471 7   2848148.86322
  20629569.4744   -6257009.36748  -4811227.86162
 91  4  8  2  8  0.0010000  0  4G 2G12G 6G13
  22451562.1774    8218886.81147   6338604.17162
  23896836.935    -2769126.157 6  -1443821.37821
  21455023.981     3664675.598 7   2875515.18022
  20631880.927    -6244865.075 8  -4801764.76522
 91  4  8  2  8 15.0010000  0  4G 2G12G 6G13
  22457219.6304    8248610.60147   6361765.56362
  23888727.958    -2811732.992 5  -1477021.40121
  21461731.419     3699925.775 7   2902982.83422
  20634213.497    -6232602.374 8  -4792209.39622
 91  4  8  2  8 30.0010000  0  4G 2G12G 6G13
  22462882.7784    8278378.79647   6384961.55862
  23880625.794    -2854319.246 6  -1510205.38321
  21468462.638     3735299.197 7   2930546.51822
  20636568.521    -6220228.098 8  -4782567.08322
 91  4  8  2  8 45.0010000  0  4G 2G12G 6G13
  22468557.0214    8308195.55047   6408195.39662
  23872525.4744   -2896880.58446  -1543369.97461
  21475218.622     3770799.786 7   2958209.29322
  20638945.810    -6207738.318 8  -4772834.77222
 91  4  8  2  9  0.0010000  0  4G 2G12G 6G13
  22474241.2164    8338062.66647   6431468.46162
  23864432.1614   -2939414.85946  -1576513.46561
  21481999.380     3806429.158 6   2985972.41422
  20641344.341    -6195131.715 8  -4763011.42422
 91  4  8  2  9 15.0010000  0  4G 2G12G 6G13
  22479934.4274    8367979.63647   6454780.37462
  23856343.5914   -2981922.28046  -1609636.02461
  21488802.755     3842186.717 6   3013835.42122
  20643764.708    -6182409.137 8  -4753097.70422
 91  4  8  2  9 30.0010000  0  4G 2G12G 6G13
  22485638.7244    8397943.56347   6478128.88962
  23848258.6854   -3024405.33846  -1642739.59861
  21495630.966     3878069.619 6   3041796.10422
  20646207.442    -6169573.544 8  -4743095.92522
 91  4  8  2  9 45.0010000  0  4G 2G12G 6G13
  22491350.1774    8427955.63347   6501514.91062
  23840179.302    -3066862.826 6  -1675823.25421
  21502484.263     3914078.670 6   3069855.07522
  20648672.185    -6156624.318 8  -4733005.60022
 91  4  8  2 10  0.0010000  0  4G 2G12G 6G13
  22497068.9114    8458014.86047   6524937.67762
  23832105.146    -3109295.386 6  -1708887.46721
  21509359.4664    3950212.63747   3098011.38762
  20651157.856    -6143562.579 8  -4722827.59922
 91  4  8  2 10 15.0010000  0  4G 2G12G 6G13
  22502797.9744    8488125.42347   6548400.44462
  23824035.4814   -3151698.36846  -1741928.65561
  21516260.974     3986475.798 7   3126268.36922
  20653665.310    -6130384.231 8  -4712558.73722
 91  4  8  2 10 30.0010000  0  4G 2G12G 6G13
  22508538.1694    8518282.63947   6571899.57162
  23815972.278    -3194076.327 6  -1774950.32221
  21523184.7554    4022863.19347   3154622.15762
  20656193.349    -6117094.433 8  -4702203.03321
 91  4  8  2 10 45.0010000  0  4G 2G12G 6G13
  22514286.700     8548489.242 7   6595437.16522
  23807913.489    -3236426.228 6  -1807950.14821
  21530132.888     4059377.319 7   3183074.69622
  20658744.841    -6103690.669 8  -4691758.52922
 91  4  8  2 11  0.0010000  0  4G 2G12G 6G13
  22520043.1774    8578748.21247   6619015.57862
  23799859.927    -3278744.883 6  -1840925.62121
  21537105.919     4096020.979 7   3211628.17522
  20661316.974    -6090170.461 8  -4681223.27922
 91  4  8  2 11 15.0010000  0  4G 2G12G 6G13
  22525809.2474    8609059.28147   6642634.59962
  23791812.599    -3321032.182 6  -1873876.65921
  21544104.653     4132793.788 7   3240282.29322
  20663912.411    -6076534.298 8  -4670597.67822
 91  4  8  2 11 30.0010000  0  4G 2G12G 6G13
  22531588.3884    8639418.70347   6666291.29362
  23783770.317    -3363291.653 6  -1906806.00321
  21551128.489     4169691.854 7   3269034.00822
  20666529.388    -6062786.016 8  -4659884.71122
 91  4  8  2 11 45.0010000  0  4G 2G12G 6G13
  22537376.028     8669824.311 7   6689983.95822
  23775733.4354   -3405525.24646  -1939715.19461
  21558170.700     4206712.816 7   3297881.48422
  20669166.005    -6048927.941 8  -4649086.19022
 91  4  8  2 12  0.0010000  0  4G 2G12G 6G13
  22543166.9664    8700276.77347   6713713.13962
  23767701.825    -3447731.855 6  -1972603.35821
  21565237.9664    4243857.15447   3326825.09362
  20671822.560    -6034959.730 8  -4638201.84722
 91  4  8  2 12 15.0010000  0  4G 2G12G 6G13
  22548970.1144    8730779.56947   6737481.56762
  23759673.192    -3489907.728 6  -2005467.56621
  21572331.872     4281128.196 7   3355867.43722
  20674503.364    -6020878.366 8  -4627229.34222
 91  4  8  2 12 30.0010000  0  4G 2G12G 6G13
  22554789.7634    8761331.63547   6761288.35862
  23751653.7864   -3532053.84346  -2038308.60761
  21579447.450     4318524.527 7   3385007.41122
  20677204.122    -6006685.283 8  -4616169.77822
 91  4  8  2 12 45.0010000  0  4G 2G12G 6G13
  22560607.1534    8791932.42547   6785133.11362
  23743638.8644   -3574170.29146  -2071126.51361
  21586589.849     4356045.736 7   3414244.69722
  20679925.903    -5992381.059 8  -4605023.61022
 91  4  8  2 13  0.0010000  0  4G 2G12G 6G13
  22566440.9354    8822585.06347   6809018.28362
  23735631.130    -3616253.605 6  -2103918.60921
  21593752.231     4393694.514 7   3443581.37922
  20682669.833    -5977963.156 8  -4593788.86322
 91  4  8  2 13 15.0010000  0  4G 2G12G 6G13
  22572285.6224    8853288.16947   6832942.78362
  23727629.036    -3658304.948 6  -2136685.79021
  21600940.7004    4431469.40047   3473016.32762
  20685434.864    -5963433.200 8  -4582466.80022
 91  4  8  2 13 30.0010000  0  4G 2G12G 6G13
  22578136.997     8884041.041 7   6856906.05022
  23719633.4584   -3700324.81946  -2169428.45361
  21608152.0914    4469369.48647   3502548.83662
  20688220.474    -5948792.118 8  -4571058.13922
 91  4  8  2 13 45.0010000  0  4G 2G12G 6G13
  22583998.3174    8914846.05447   6880909.94962
  23711643.3804   -3742310.60746  -2202144.55861
  21615388.1304    4507396.98947   3532180.63062
  20691028.731    -5934037.779 8  -4559561.23322
 91  4  8  2 14  0.0010000  0  4G 2G12G 6G13
  22589871.3024    8945700.08847   6904952.05562
  23703660.8024   -3784265.19446  -2234836.34561
  21622650.1384    4545548.60247   3561909.12862
  20693857.724    -5919173.584 8  -4547978.72822
 91  4  8  2 14 15.0010000  0  4G 2G12G 6G13
  22595751.1774    8976605.93247   6929034.52562
  23695682.9664   -3826185.39946  -2267501.33261
  21629933.9354    4583826.83547   3591736.29062
  20696707.185    -5904197.337 8  -4536308.90522
 91  4  8  2 14 30.0010000  0  4G 2G12G 6G13
  22601641.1144    9007563.06547   6953156.96062
  23687712.6924   -3868071.42646  -2300139.69861
  21637241.7164    4622231.07347   3621661.64062
  20699577.497    -5889109.528 8  -4524552.15521
 91  4  8  2 14 45.0010000  0  4G 2G12G 6G13
  22607543.6224    9038570.05547   6977318.24962
  23679747.2554   -3909924.44246  -2332752.34261
  21644573.317     4660759.755 7   3651683.96822
  20702469.356    -5873911.794 8  -4512709.74922
 91  4  8  2 15  0.0010000  0  4G 2G12G 6G13
  22613455.1854    9069632.03647   7001522.38462
  23671792.0754   -3951739.02346  -2365335.03561
  21651928.458     4699417.789 7   3681807.09022
  20705383.981    -5858599.208 8  -4500777.84622
 91  4  8  2 15 15.0010000  0  4G 2G12G 6G13
  22619374.1304    9100744.13147   7025765.56762
  23663840.2474   -3993519.84646  -2397891.41761
  21659308.989     4738200.052 7   3712027.00922
  20708318.935    -5843177.262 8  -4488760.72422
 91  4  8  2 15 30.0010000  0  4G 2G12G 6G13
  22625302.8884    9131903.33847   7050045.46762
  23655895.5444   -4035269.56346  -2430423.58161
  21666710.263     4777103.382 7   3742341.26822
  20711273.552    -5827649.291 8  -4476660.99122
 91  4  8  2 15 45.0010000  0  4G 2G12G 6G13
  22631243.2864    9163113.40947   7074365.00162
  23647958.497    -4076984.173 6  -2462928.37121
  21674140.364     4816131.254 7   3772752.57422
  20714249.372    -5812011.947 8  -4464476.02722
 91  4  8  2 16  0.0010000  0  4G 2G12G 6G13
  22637192.1144    9194370.12347   7098720.87562
  23640025.067    -4118667.494 6  -2495408.77721
  21681589.5834    4855279.35347   3803257.55862
  20717244.380    -5796269.549 8  -4452209.21122
 91  4  8  2 16 15.0010000  0  4G 2G12G 6G13
  22643146.1064    9225664.26047   7123105.91262
  23632097.411    -4160328.437 6  -2527871.76721
  21689059.021     4894538.319 6   3833848.93322
  20720257.544    -5780431.431 8  -4439867.80722
 91  4  8  2 16 30.0010000  0  4G 2G12G 6G13
  22649112.0364    9257003.30847   7147525.94962
  23624173.411    -4201959.276 6  -2560311.27821
  21696553.755     4933915.350 7   3864532.32022
  20723291.263    -5764490.614 8  -4427446.36922
 91  4  8  2 16 45.0010000  0  4G 2G12G 6G13
  22655086.1224    9288388.63247   7171982.03662
  23616256.997    -4243558.164 6  -2592725.89021
  21704069.3884    4973411.82947   3895308.77062
  20726344.911    -5748445.894 8  -4414943.96422
 91  4  8  2 17  0.0010000  0  4G 2G12G 6G13
  22661060.2244    9319807.22247   7196464.04962
  23608343.7944   -4285137.85846  -2625125.55861
  21711606.6694    5013014.52747   3926167.98462
  20729415.278    -5732310.428 8  -4402370.86222
 91  4  8  2 17 15.0010000  0  4G 2G12G 6G13
  22667045.2314    9351256.33147   7220969.85062
  23600435.8024   -4326701.11446  -2657512.41961
  21719162.4974    5052720.33047   3957107.53762
  20732502.372    -5716087.540 8  -4389729.63522
 91  4  8  2 17 30.0010000  0  4G 2G12G 6G13
  22673037.1064    9382742.01047   7245504.14662
  23592531.1224   -4368241.54746  -2689881.48761
  21726736.4744    5092534.95946   3988131.88462
  20735607.778    -5699771.502 8  -4377015.82822
 91  4  8  2 17 45.0010000  0  4G 2G12G 6G13
  22679035.1694    9414267.66347   7270069.58662
  23584632.1924   -4409755.34846  -2722229.81761
  21734334.5054    5132461.76546   4019243.64862
  20738730.349    -5683359.300 8  -4364227.08222
 91  4  8  2 18  0.0010000  0  4G 2G12G 6G13
  22685045.1854    9445835.35247   7294667.78262
  23576738.536    -4451240.225 6  -2754555.59821
  21741954.356     5172502.577 7   4050444.25422
  20741871.169    -5666849.070 8  -4351361.95022
 91  4  8  2 18 15.0010000  0  4G 2G12G 6G13
  22691059.7394    9477445.97947   7319299.44162
  23568849.7714   -4492694.82746  -2786857.78461
  21749597.2554    5212658.26446   4081734.37262
  20745033.067    -5650240.139 8  -4338419.90722
 91  4  8  2 18 30.0010000  0  4G 2G12G 6G13
  22697085.1534    9509104.96547   7343968.77062
  23560968.0834   -4534113.61546  -2819132.07161
  21757260.0364    5252933.88446   4113117.94762
  20748213.224    -5633527.374 8  -4325396.96122
 91  4  8  2 18 45.0010000  0  4G 2G12G 6G13
  22703119.0214    9540816.11947   7368678.74862
  23553093.114    -4575492.307 6  -2851375.10621
  21764947.497     5293333.087 6   4144597.81622
  20751414.489    -5616707.101 8  -4312290.24122
 91  4  8  2 19  0.0010000  0  4G 2G12G 6G13
  22709161.1144    9572582.30047   7393431.61762
  23545227.9894   -4616827.82246  -2883584.50161
  21772661.622     5333858.483 7   4176176.02322
  20754636.106    -5599776.936 8  -4299097.88522
 91  4  8  2 19 15.0010000  0  4G 2G12G 6G13
  22715218.7084    9604400.11547   7418224.72762
  23537369.8254   -4658123.37446  -2915762.75561
  21780394.013     5374506.443 6   4207849.73522
  20757876.771    -5582740.743 8  -4285822.91522
 91  4  8  2 19 30.0010000  0  4G 2G12G 6G13
  22721287.2004    9636276.28747   7443063.29862
  23529519.0914   -4699371.97246  -2947904.42561
  21788152.606     5415283.446 6   4239623.99622
  20761140.544    -5565592.093 8  -4272460.31722
 91  4  8  2 19 45.0010000  0  4G 2G12G 6G13
  22727361.1304    9668208.13547   7467945.25062
  23521678.271    -4740575.822 6  -2980011.23321
  21795937.036     5456186.692 6   4271496.63422
  20764426.013    -5548333.933 8  -4259012.38722
 91  4  8  2 20  0.0010000  0  4G 2G12G 6G13
  22733447.1854    9700198.84347   7492873.07262
  23513846.8884   -4781731.39046  -3012080.41461
  21803746.880     5497219.274 7   4303470.05022
  20767729.841    -5530963.036 8  -4245476.61122
 91  4  8  2 20 15.0010000  0  4G 2G12G 6G13
  22739546.1614    9732246.28747   7517845.10362
  23506022.661    -4822840.629 6  -3044113.49821
  21811578.3334    5538378.70447   4335542.30062
  20771056.185    -5513481.979 8  -4231854.99422
 91  4  8  2 20 30.0010000  0  4G 2G12G 6G13
  22745657.1144    9764356.16647   7542865.78662
  23498210.0214   -4863897.75446  -3076105.95661
  21819438.3174    5579670.34147   4367717.57062
  20774405.286    -5495885.669 8  -4218143.57322
 91  4  8  2 20 45.0010000  0  4G 2G12G 6G13
  22751777.7784    9796524.88747   7567932.31562
  23490407.1534   -4904905.95346  -3108060.31061
  21827318.0214    5621090.54647   4399993.02762
  20777773.903    -5478177.738 8  -4204345.16822
 91  4  8  2 21  0.0010000  0  4G 2G12G 6G13
  22757908.1144    9828749.19447   7593042.17662
  23482612.505    -4945867.880 6  -3139978.59821
  21835225.3024    5662635.88547   4432365.98962
  20781165.349    -5460361.698 8  -4190462.52222
 91  4  8  2 21 15.0010000  0  4G 2G12G 6G13
  22764052.6694    9861031.39547   7618197.14062
  23474825.817    -4986781.095 6  -3171858.91721
  21843154.919     5704308.412 6   4464838.06422
  20784577.153    -5442435.567 8  -4176494.10022
 91  4  8  2 21 30.0010000  0  4G 2G12G 6G13
  22770209.7714    9893373.42447   7643398.71862
  23467050.497    -5027643.437 6  -3203699.59621
  21851108.341     5746109.722 6   4497410.49122
  20788010.060    -5424398.152 8  -4162438.95522
 91  4  8  2 21 45.0010000  0  4G 2G12G 6G13
  22776373.2634    9925774.91247   7668646.62662
  23459284.4504   -5068454.78546  -3235500.55861
  21859087.708     5788039.360 6   4530082.91022
  20791463.263    -5406249.745 8  -4148297.31922
 91  4  8  2 22  0.0010000  0  4G 2G12G 6G13
  22782546.6064    9958228.74547   7693935.32562
  23451527.8334   -5109221.95046  -3267267.07861
  21867090.7004    5830090.10846   4562849.69562
  20794936.2084   -5387997.84448  -4134075.04862
 91  4  8  2 22 15.0010000  0  4G 2G12G 6G13
  22788735.2164    9990738.55447   7719267.64961
  23443777.9974   -5149941.11646  -3298996.21461
  21875114.8564    5872265.20846   4595713.38162
  20798429.505    -5369638.913 8  -4119769.37222
 91  4  8  2 22 30.0010000  0  4G 2G12G 6G13
  22794934.2784   10023309.56147   7744647.65461
  23436038.989    -5190606.719 6  -3330683.60921
  21883166.294     5914569.648 6   4628677.85122
  20801944.825    -5351168.244 8  -4105376.62122
 91  4  8  2 22 45.0010000  0  4G 2G12G 6G13
  22801142.8414   10055938.25947   7770072.60961
  23428309.3494   -5231221.82246  -3362331.65061
  21891240.739     5956999.886 6   4661740.34522
  20805479.599    -5332589.720 8  -4090899.83322
 91  4  8  2 23  0.0010000  0  4G 2G12G 6G13
  22807362.6384   10088622.62447   7795540.94461
  23420589.185    -5271788.418 6  -3393941.91021
  21899338.497     5999553.399 6   4694898.90322
  20809035.060    -5313905.523 8  -4076340.71022
 91  4  8  2 23 15.0010000  0  4G 2G12G 6G13
  22813592.9274   10121367.99547   7821056.82062
  23412880.013    -5312300.799 6  -3425509.91021
  21907460.8104    6042235.44046   4728157.60862
  20812611.466    -5295110.762 8  -4061695.43122
 91  4  8  2 23 30.0010000  0  4G 2G12G 6G13
  22819836.7164   10154173.20647   7846619.31961
  23405181.122    -5352759.772 6  -3457036.29521
  21915606.0214    6085044.57446   4761515.33762
  20816208.622    -5276206.967 8  -4046965.18422
 91  4  8  2 23 45.0010000  0  4G 2G12G 6G13
  22826090.8964   10187036.35947   7872226.96961
  23397490.731    -5393167.013 6  -3488522.38421
  21923777.1854    6127978.69746   4794970.46862
  20819826.825    -5257196.357 8  -4032151.70422
 91  4  8  2 24  0.0010000  0  4G 2G12G 6G13
  22832356.0604   10219960.26347   7897881.96061
  23389813.192    -5433519.158 6  -3519965.52421
  21931971.0284    6171040.56446   4828525.14062
  20823464.536    -5238076.170 8  -4017252.83722
 91  4  8  2 24 15.0010000  0  4G 2G12G 6G13
  22838632.2084   10252941.05847   7923581.27961
  23382145.0914   -5473819.85046  -3551368.58461
  21940188.5284    6214225.91846   4862176.02962
  20827123.341    -5218850.669 8  -4002271.90922
 91  4  8  2 24 30.0010000  0  4G 2G12G 6G13
  22844920.0054   10285981.99347   7949327.46161
  23374487.200    -5514065.576 6  -3582728.81721
  21948429.1924    6257537.81646   4895925.52862
  20830801.200    -5199516.649 8  -3987206.42522
 91  4  8  2 24 45.0010000  0  4G 2G12G 6G13
  22851218.7714   10319081.48447   7975119.26961
  23366838.841    -5554257.603 6  -3614047.20221
  21956694.778     6300974.433 6   4929772.21722
  20834501.935    -5180076.308 8  -3972058.09322
 91  4  8  2 25  0.0010000  0  4G 2G12G 6G13
  22857525.8104   10352241.82346   8000958.48961
  23359201.513    -5594393.415 6  -3645321.78421
  21964986.6534    6344537.75446   4963717.63162
  20838221.833    -5160527.812 8  -3956825.47722
 91  4  8  2 25 15.0010000  0  4G 2G12G 6G13
  22863845.8494   10385460.05046   8026842.82361
  23351573.599    -5634475.659 6  -3676554.62021
  21973300.4114    6388224.55646   4997759.25662
  20841961.950    -5140874.384 8  -3941511.09622
 91  4  8  2 25 30.0010000  0  4G 2G12G 6G13
  22870182.2004   10418737.13447   8052773.01761
  23343955.856    -5674502.811 6  -3707744.53421
  21981636.4194    6432035.84946   5031897.89962
  20845721.396    -5121115.237 8  -3926114.34522
 91  4  8  2 25 45.0010000  0  4G 2G12G 6G13
  22876526.7864   10452072.59247   8078748.68561
  23336349.989    -5714475.187 6  -3738891.75721
  21989997.9034    6475970.68546   5066132.80462
  20849501.411    -5101251.339 8  -3910635.96422
 91  4  8  2 26  0.0010000  0  4G 2G12G 6G13
  22882878.3884   10485465.00546   8104768.73861
  23328753.7554   -5754393.60046  -3769996.93761
  21998381.2474    6520027.58246   5100462.82462
  20853300.856    -5081283.927 8  -3895076.92322
 91  4  8  2 26 15.0010000  0  4G 2G12G 6G13
  22889244.1854   10518914.80446   8130833.52061
  23321168.1384   -5794257.50246  -3801059.64861
  22006787.5054    6564206.65846   5134888.04562
  20857120.106    -5061213.143 8  -3879437.33122
 91  4  8  2 26 30.0010000  0  4G 2G12G 6G13
  22895621.3494   10552422.33547   8156943.27361
  23313593.2164   -5834066.36646  -3832079.48161
  22015218.4114    6608508.07246   5169408.58862
  20860958.786    -5041039.072 8  -3863717.26522
 91  4  8  2 26 45.0010000  0  4G 2G12G 6G13
  22902007.6464   10585988.38746   8183098.62962
  23306026.9744   -5873819.23446  -3863055.68061
  22023671.4354    6652932.07046   5204024.65962
  20864818.466    -5020761.463 8  -3847916.51122
 91  4  8  2 27  0.0010000  0  4G 2G12G 6G13
  22908402.4814   10619611.18146   8209298.20362
  23298473.2164   -5913517.21946  -3893989.10461
  22032148.3804    6697476.97946   5238734.94462
  20868695.810    -5000382.164 8  -3832036.51822
 91  4  8  2 27 15.0010000  0  4G 2G12G 6G13
  22914814.3724   10653289.19546   8235540.81462
  23290929.474    -5953161.752 6  -3924880.87721
  22040647.9194    6742140.78446   5273537.87562
  20872592.739    -4979902.872 8  -3816078.61422
 91  4  8  2 27 30.0010000  0  4G 2G12G 6G13
  22921235.786    10687026.554 7   8261829.64622
  23283396.5364   -5992748.32246  -3955727.50061
  22049171.1924    6786927.56846   5308436.63362
  20876509.755    -4959319.858 8  -3800039.89022
 91  4  8  2 27 45.0010000  0  4G 2G12G 6G13
  22927663.942    10720820.514 6   8288162.57821
  23275875.099    -6032279.482 6  -3986530.92721
  22057716.2164    6831834.17346   5343428.75462
  20880446.786    -4938636.363 8  -3783922.86422
 91  4  8  2 28  0.0010000  0  4G 2G12G 6G13
  22934104.0994   10754672.81146   8314540.98562
  23268363.0914   -6071753.14246  -4017289.56161
  22066283.9814    6876862.21946   5378515.50162
  20884400.7944   -4917850.83648  -3767726.34062
 91  4  8  2 28 15.0010000  0  4G 2G12G 6G13
  22940556.5754   10788578.78246   8340961.22362
  23260860.497    -6111173.476 6  -4048006.64721
  22074873.9974    6922006.93646   5413693.16861
  20888374.638    -4896968.223 8  -3751454.15922
 91  4  8  2 28 30.0010000  0  4G 2G12G 6G13
  22947021.9194   10822543.48647   8367427.21961
  23253369.2474   -6150535.15146  -4078678.01561
  22083487.8024    6967273.02546   5448965.41762
  20892369.474    -4875983.697 8  -3735102.56222
 91  4  8  2 28 45.0010000  0  4G 2G12G 6G13
  22953497.083    10856567.093 6   8393939.10621
  23245890.513    -6189837.719 6  -4109303.32721
  22092125.2634    7012660.32946   5484332.11662
  20896381.302    -4854897.516 8  -3718671.75522
 91  4  8  2 29  0.0010000  0  4G 2G12G 6G13
  22959979.8254   10890645.74146   8420493.88261
  23238421.685    -6229084.744 6  -4139885.36721
  22100786.4274    7058164.83346   5519790.13062
  20900411.481    -4833713.810 8  -3702164.96022
 91  4  8  2 29 15.0010000  0  4G 2G12G 6G13
  22966475.2714   10924780.95446   8447092.73461
  23230963.6924   -6268274.23746  -4170422.57661
  22109467.130     7103787.823 6   5555340.46122
  20904462.044    -4812431.443 8  -3685581.28722
 91  4  8  2 29 30.0010000  0  4G 2G12G 6G13
  22972982.567    10958976.043 6   8473738.24221
  23223517.669    -6307402.641 6  -4200912.18721
  22118169.9814    7149532.39746   5590985.54762
  20908531.630    -4791047.271 8  -3668918.27122
 91  4  8  2 29 45.0010000  0  4G 2G12G 6G13
  22979502.294    10993225.470 6   8500426.09122
  23216082.3254   -6346475.09446  -4231358.18861
  22126896.4744    7195392.66446   5626720.78962
  20912618.794    -4769567.198 8  -3652180.53222
 91  4  8  2 30  0.0010000  0  4G 2G12G 6G13
  22986029.9114   11027528.33346   8527155.58261
  23208658.841    -6385492.224 6  -4261761.07621
  22135647.3174    7241367.53046   5662545.32462
  20916723.903    -4747992.649 8  -3635369.18922
 91  4  8  2 30 15.0010000  0  4G 2G12G 6G13
  22992568.153    11061890.530 6   8553931.30822
  23201246.0444   -6424447.82446  -4292116.02061
  22144421.2394    7287462.67546   5698463.58262
  20920849.8884   -4726318.02848  -3618479.86562
 91  4  8  2 30 30.0010000  0  4G 2G12G 6G13
  22999118.5524   11096311.34346   8580752.71361
  23193843.552    -6463342.320 6  -4322423.33121
  22153214.466     7333677.040 6   5734474.72722
  20924992.349    -4704544.034 8  -3601513.10222
 91  4  8  2 30 45.0010000  0  4G 2G12G 6G13
  23005679.271    11130789.077 6   8607618.46821
  23186453.5054   -6502177.14946  -4352684.17861
  22162027.4584    7380008.66846   5770577.25762
  20929153.864    -4682672.910 8  -3584470.65322
 91  4  8  2 31  0.0010000  0  4G 2G12G 6G13
  23012250.388    11165323.632 6   8634528.49222
  23179076.2394   -6540952.10946  -4382898.36461
  22170868.9504    7426457.16346   5806770.85062
  20933334.7474   -4660704.98648  -3567352.78362
 91  4  8  2 31 15.0010000  0  4G 2G12G 6G13
  23018831.9744   11199914.15946   8661482.14662
  23171709.1924   -6579667.69746  -4413066.28761
  22179729.013     7473021.395 6   5843054.62622
  20937532.747    -4638641.509 8  -3550160.45222
 91  4  8  2 31 30.0010000  0  4G 2G12G 6G13
  23025429.4814   11234560.56347   8688479.33562
  23164352.8644   -6618323.62746  -4443187.72061
  22188614.130     7519701.139 6   5879428.40422
  20941748.685    -4616482.841 8  -3532893.94422
 91  4  8  2 31 45.0010000  0  4G 2G12G 6G13
  23032031.3414   11269264.80046   8715521.58161
  23157006.4114   -6656917.49046  -4473260.79261
  22197517.0914    7566498.15746   5915893.57961
  20945984.778    -4594227.376 8  -3515552.00822
 91  4  8  2 32  0.0010000  0  4G 2G12G 6G13
  23038645.3174   11304023.24546   8742606.07862
  23149674.2714   -6695452.65746  -4503288.12761
  22206445.6224    7613408.39246   5952446.97362
  20950237.0524   -4571879.16348  -3498137.81062
 91  4  8  2 32 15.0010000  0  4G 2G12G 6G13
  23045270.6854   11338842.25146   8769737.76961
  23142352.5524   -6733922.44846  -4533264.51761
  22215396.3964    7660438.06546   5989093.43461
  20954508.349    -4549431.875 8  -3480646.40222
 91  4  8  2 32 30.0010000  0  4G 2G12G 6G13
  23051907.817    11373718.514 6   8796914.05921
  23135044.528    -6772329.749 6  -4563192.21321
  22224366.9194    7707583.65046   6025830.21461
  20958798.3494   -4526889.27948  -3463080.73462
 91  4  8  2 32 45.0010000  0  4G 2G12G 6G13
  23058553.9664   11408652.42746   8824135.28261
  23127747.5674   -6810673.92646  -4593070.73161
  22233360.5524    7754845.29146   6062657.43561
  20963106.4274   -4504251.19148  -3445440.65762
 91  4  8  2 33  0.0010000  0  4G 2G12G 6G13
  23065213.6534   11443645.29246   8851402.44961
  23120462.661    -6848953.428 6  -4622898.83121
  22242374.3254    7802223.83146   6099575.74361
  20967433.146    -4481516.618 8  -3427725.39022
 91  4  8  2 33 15.0010000  0  4G 2G12G 6G13
  23071884.5994   11478693.78646   8878712.95461
  23113191.302    -6887171.075 6  -4652678.73621
  22251412.5754    7849715.94146   6136582.55161
  20971776.7314   -4458689.23348  -3409937.80962
 91  4  8  2 33 30.0010000  0  4G 2G12G 6G13
  23078565.0054   11513797.44046   8906066.43961
  23105930.622    -6925327.080 6  -4682410.61721
  22260472.0994    7897320.84946   6173677.25161
  20976138.177    -4435769.794 8  -3392078.49322
 91  4  8  2 33 45.0010000  0  4G 2G12G 6G13
  23085253.7394   11548956.17246   8933462.84561
  23098682.567    -6963421.199 6  -4712094.26021
  22269551.5134    7945038.25146   6210859.60861
  20980516.685    -4412758.721 8  -3374147.77322
 91  4  8  2 34  0.0010000  0  4G 2G12G 6G13
  23091954.6304   11584165.72846   8960898.85861
  23091442.9664   -7001457.37246  -4741732.74861
  22278651.0834    7992863.56446   6248126.04761
  20984912.247    -4389660.638 8  -3356149.25022
 91  4  8  2 34 15.0010000  0  4G 2G12G 6G13
  23098663.4194   11619426.78046   8988374.99261
  23084216.575    -7039434.667 6  -4771325.36421
  22287773.4274    8040797.15446   6285476.86261
  20989324.677    -4366475.443 8  -3338082.85322
 91  4  8  2 34 30.0010000  0  4G 2G12G 6G13
  23105382.0914   11654740.43946   9015892.11661
  23077000.810    -7077351.613 6  -4800870.95921
  22296917.161     8088839.847 6   6322912.68321
  20993753.7394   -4343202.15348  -3319947.81062
 91  4  8  2 34 45.0010000  0  4G 2G12G 6G13
  23112114.0054   11690109.96946   9043452.78761
  23069797.685    -7115204.691 6  -4830366.78521
  22306080.7394    8136994.60546   6360435.83261
  20998198.771    -4319837.947 8  -3301741.92122
 91  4  8  2 35  0.0010000  0  4G 2G12G 6G13
  23118857.8644   11725537.86646   9071058.93461
  23062606.700    -7152990.967 6  -4859810.55721
  22315265.364     8185263.716 6   6398048.08721
  21002662.849    -4296380.396 8  -3283463.29322
 91  4  8  2 35 15.0010000  0  4G 2G12G 6G13
  23125610.1924   11761019.91046   9098707.27661
  23055429.0214   -7190714.28146  -4889205.25761
  22324471.6144    8233642.74446   6435745.99661
  21007144.146    -4272833.852 8  -3265115.32022
 91  4  8  2 35 30.0010000  0  4G 2G12G 6G13
  23132370.9744   11796555.64746   9126397.45861
  23048262.5214   -7228374.72446  -4918550.97561
  22333699.661     8282130.914 6   6473528.94421
  21011640.802    -4249199.234 8  -3246698.72022
 91  4  8  2 35 45.0010000  0  4G 2G12G 6G13
  23139144.0054   11832147.41146   9154131.29461
  23041107.7474   -7265969.71246  -4947845.69061
  22342949.427     8330730.286 6   6511398.54321
  21016155.700    -4225474.826 8  -3228212.15722
 91  4  8  2 36  0.0010000  0  4G 2G12G 6G13
  23145927.0444   11867793.77946   9181907.67661
  23033967.7084   -7303500.20646  -4977090.14361
  22352215.3414    8379439.21246   6549353.50561
  21020687.341    -4201662.147 8  -3209656.81222
 91  4  8  2 36 15.0010000  0  4G 2G12G 6G13
  23152718.958    11903492.379 6   9209724.75521
  23026837.2164   -7340968.27446  -5006285.94861
  22361503.778     8428255.160 6   6587391.86921
  21025234.481    -4177763.878 8  -3191034.76822
 91  4  8  2 36 30.0010000  0  4G 2G12G 6G13
  23159523.9114   11939246.25846   9237584.91361
  23019718.771    -7378370.737 6  -5035430.63421
  22370814.0134    8477180.61646   6625515.56661
  21029799.591    -4153777.331 8  -3172343.93822
 91  4  8  2 36 45.0010000  0  4G 2G12G 6G13
  23166339.2244   11975056.57146   9265489.04661
  23012614.2714   -7415706.05046  -5064522.99661
  22380145.4744    8526216.51546   6663725.32361
  21034380.7554   -4129701.91848  -3153583.87262
 91  4  8  2 37  0.0010000  0  4G 2G12G 6G13
  23173165.341    12010922.817 6   9293436.76021
  23005521.8644   -7452974.46246  -5093563.23161
  22389499.6534    8575362.10846   6702020.55761
  21038978.849    -4105538.243 8  -3134755.02122
 91  4  8  2 37 15.0010000  0  4G 2G12G 6G13
  23179998.4354   12046844.09646   9321427.35361
  22998442.9814   -7490176.29946  -5122551.58261
  22398872.8174    8624616.30946   6740400.42261
  21043593.481    -4081287.258 8  -3115858.13622
 91  4  8  2 37 30.0010000  0  4G 2G12G 6G13
  23186844.8104   12082820.18446   9349460.66261
  22991375.7784   -7527311.31946  -5151487.86661
  22408265.6064    8673978.83746   6778864.68761
  21048225.685    -4056949.580 8  -3096893.69622
 91  4  8  2 37 45.0010000  0  4G 2G12G 6G13
  23193702.1854   12118851.12446   9377536.71061
  22984322.450    -7564379.384 6  -5180371.99021
  22417679.1384    8723449.20346   6817412.99161
  21052872.364    -4032525.733 8  -3077862.11322
 91  4  8  2 38  0.0010000  0  4G 2G12G 6G13
  23200569.4424   12154936.66546   9405655.30261
  22977280.3254   -7601380.16346  -5209203.67861
  22427114.6854    8773027.14046   6856045.12161
  21057537.192    -4008016.009 8  -3058763.60722
 91  4  8  2 38 15.0010000  0  4G 2G12G 6G13
  23207447.5834   12191077.97046   9433817.35361
  22970253.0914   -7638312.36446  -5237981.92961
  22436568.8804    8822713.21246   6894761.50161
  21062218.0214   -3983419.78748  -3039597.71562
 91  4  8  2 38 30.0010000  0  4G 2G12G 6G13
  23214334.856    12227275.864 6   9462023.48621
  22963237.3414   -7675174.65546  -5266705.70761
  22446045.5674    8872508.22646   6933562.77061
  21066914.427    -3958736.517 8  -3020363.98822
 91  4  8  2 38 45.0010000  0  4G 2G12G 6G13
  23221235.7314   12263530.10246   9490273.54061
  22956236.8804   -7711967.05446  -5295375.02661
  22455541.114     8922411.587 6   6972448.46421
  21071627.341    -3933966.628 8  -3001062.75722
 91  4  8  2 39  0.0010000  0  4G 2G12G 6G13
  23228143.3334   12299841.51846   9518568.14761
  22949248.411    -7748688.441 6  -5323989.00521
  22465058.1774    8972423.69446   7011418.89661
  21076357.778    -3909109.592 8  -2981693.63022
 91  4  8  2 39 15.0010000  0  4G 2G12G 6G13
  23235064.0524   12336208.56946   9546906.10061
  22942273.817    -7785339.936 6  -5352548.53221
  22474593.7714    9022542.88046   7050472.76761
  21081104.060    -3884167.365 8  -2962258.11022
 91  4  8  2 39 30.0010000  0  4G 2G12G 6G13
  23241996.1144   12372632.17546   9575288.12161
  22935313.5364   -7821920.34746  -5381052.66261
  22484151.8024    9072769.82846   7089610.60861
  21085867.474    -3859139.379 8  -2942755.77422
 91  4  8  2 39 45.0010000  0  4G 2G12G 6G13
  23248938.005    12409111.703 6   9603713.71321
  22928366.130    -7858429.807 6  -5409501.50821
  22493730.888     9123103.688 6   7128831.75721
  21090646.3724   -3834026.46248  -2923187.26262
 91  4  8  2 40  0.0010000  0  4G 2G12G 6G13
  23255888.833    12445648.532 6   9632183.95721
  22921431.919    -7894866.579 6  -5437893.72321
  22503329.528     9173545.497 6   7168137.01621
  21095441.1854   -3808827.37348  -2903551.60662
 91  4  8  2 40 15.0010000  0  4G 2G12G 6G13
  23262851.3414   12482241.03846   9660697.58261
  22914511.614    -7931232.118 6  -5466230.42321
  22512949.450     9224093.190 6   7207524.78421
  21100252.0604   -3783544.33048  -2883850.52462
 91  4  8  2 40 30.0010000  0  4G 2G12G 6G13
  23269827.474    12518888.943 6   9689254.37521
  22907604.974    -7967526.333 6  -5494511.55821
  22522587.9354    9274746.34846   7246994.74161
  21105079.3414   -3758177.87048  -2864084.44562
 91  4  8  2 40 45.0010000  0  4G 2G12G 6G13
  23276813.060    12555592.849 6   9717854.80921
  22900712.442    -8003748.383 6  -5522736.45121
  22532245.5834    9325505.14646   7286547.00961
  21109922.3964   -3732727.67648  -2844253.11862
 91  4  8  2 41  0.0010000  0  4G 2G12G 6G13
  23283807.505    12592352.045 6   9746498.32421
  22893833.114    -8039898.561 6  -5550905.34021
  22541927.5524    9376368.74246   7326180.94361
  21114781.638    -3707194.781 8  -2824357.34322
 91  4  8  2 41 15.0010000  0  4G 2G12G 6G13
  23290811.1924   12629167.44446   9775185.64261
  22886967.1614   -8075975.55946  -5579017.21861
  22551624.583     9427337.781 6   7365897.03421
  21119656.2394   -3681578.51348  -2804396.60962
 91  4  8  2 41 30.0010000  0  4G 2G12G 6G13
  23297827.372    12666038.517 6   9803916.32821
  22880115.9354   -8111979.58646  -5607072.24361
  22561344.716     9478411.300 6   7405694.52721
  21124546.028    -3655879.860 8  -2784371.67322
 91  4  8  2 41 45.0010000  0  4G 2G12G 6G13
  23304856.731    12702966.682 6   9832691.50521
  22873278.825    -8147908.793 6  -5635068.95621
  22571084.169     9529590.503 6   7445574.38421
  21129451.6774   -3630097.49948  -2764281.51362
 91  4  8  2 42  0.0010000  0  4G 2G12G 6G13
  23311894.099    12739951.171 6   9861510.56921
  22866456.646    -8183763.688 7  -5663007.76121
  22580841.5054    9580874.34646   7485535.77961
  21134374.5284   -3604232.70848  -2744127.12362
 91  4  8  2 42 15.0010000  0  4G 2G12G 6G13
  23318940.271    12776989.192 6   9890371.35021
  22859647.747    -8219546.595 7  -5690890.47021
  22590619.3174    9632259.96246   7525576.48861
  21139311.7394   -3578288.35648  -2723910.73762
 91  4  8  2 42 30.0010000  0  4G 2G12G 6G13
  23325998.536    12814084.245 6   9919276.56421
  22852853.005    -8255253.604 7  -5718714.03621
  22600420.6384    9683750.35446   7565698.83961
  21144264.1384   -3552261.44148  -2703630.01462
 91  4  8  2 42 45.0010000  0  4G 2G12G 6G13
  23333068.981    12851234.957 6   9948225.16121
  22846072.0604   -8290885.91647  -5746479.40461
  22610238.700     9735343.870 6   7605901.53221
  21149231.692    -3526153.684 8  -2683286.29622
 91  4  8  2 43  0.0010000  0  4G 2G12G 6G13
  23340150.864    12888441.807 6   9977217.49621
  22839304.7864   -8326442.65046  -5774185.88661
  22620076.880     9787040.727 6   7646184.75321
  21154214.7314   -3499964.80148  -2662879.36662
 91  4  8  2 43 15.0010000  0  4G 2G12G 6G13
  23347240.856    12925704.480 6  10006253.33521
  22832553.0444   -8361923.68747  -5801833.38761
  22629930.263     9838840.353 6   7686548.05021
  21159214.1774   -3473695.47548  -2642409.75962
 91  4  8  2 43 30.0010000  0  4G 2G12G 6G13
  23354342.896    12963022.596 6  10035332.36221
  22825816.052    -8397329.073 7  -5829421.94421
  22639809.1304    9890742.06646   7726990.90061
  21164227.8804   -3447346.41348  -2621878.01662
 91  4  8  2 43 45.0010000  0  4G 2G12G 6G13
  23361454.185    13000399.292 6  10064457.03821
  22819093.1694   -8432655.37947  -5856948.87061
  22649705.153     9942748.759 6   7767515.55521
  21169257.981    -3420914.776 8  -2601281.92422
 91  4  8  2 44  0.0010000  0  4G 2G12G 6G13
  23368578.950    13037833.617 6  10093626.61721
  22812385.7244   -8467903.32947  -5884414.73961
  22659622.302     9994859.059 6   7808120.93521
  21174303.8024   -3394401.87748  -2580622.51362
 91  4  8  2 44 15.0010000  0  4G 2G12G 6G13
  23375714.7784   13075322.33746  10122838.58561
  22805691.9744   -8503075.80347  -5911821.79761
  22669556.8494   10047069.47746   7848804.33261
  21179363.075    -3367811.437 8  -2559902.67722
 91  4  8  2 44 30.0010000  0  4G 2G12G 6G13
  23382857.396    13112866.559 6  10152093.80321
  22799013.2944   -8538171.31947  -5939168.89161
  22679512.380    10099380.834 6   7889566.38121
  21184438.067    -3341142.375 8  -2539121.57922
 91  4  8  2 44 45.0010000  0  4G 2G12G 6G13
  23390010.8964   13150464.39846  10181390.79961
  22792349.2944   -8573191.04947  -5966456.93561
  22689484.4744   10151791.12046   7930405.52461
  21189527.489    -3314396.730 8  -2518280.80722
 91  4  8  2 45  0.0010000  0  4G 2G12G 6G13
  23397176.661    13188120.289 6  10210733.04321
  22785699.9814   -8608130.45447  -5993682.38061
  22699477.802    10204304.435 6   7971324.94521
  21194633.185    -3287570.594 8  -2497377.31122
 91  4  8  2 45 15.0010000  0  4G 2G12G 6G13
  23404353.739    13225836.013 6  10240121.89021
  22779067.4504   -8642987.52947  -6020843.67761
  22709489.9114   10256922.11046   8012325.69461
  21199753.067    -3260662.617 8  -2476410.04322
 91  4  8  2 45 30.0010000  0  4G 2G12G 6G13
  23411541.763    13263611.537 6  10269557.33621
  22772450.521    -8677761.754 7  -6047940.42021
  22719522.802    10309644.049 6   8053407.68021
  21204889.2004   -3233672.84648  -2455379.04762
 91  4  8  2 45 45.0010000  0  4G 2G12G 6G13
  23418739.927    13301442.735 6  10299036.17621
  22765848.0054   -8712456.99847  -6074975.61461
  22729576.786    10362465.726 6   8094567.38421
  21210039.3174   -3206605.79548  -2434287.83262
 91  4  8  2 46  0.0010000  0  4G 2G12G 6G13
  23425951.817    13339330.243 6  10328558.89021
  22759261.4664   -8747072.33447  -6101948.54061
  22739646.856    10415387.433 6   8135805.03121
  21215204.685    -3179461.065 8  -2413136.08022
 91  4  8  2 46 15.0010000  0  4G 2G12G 6G13
  23433173.9894   13377274.56646  10358125.86561
  22752689.9424   -8781606.96947  -6128858.58261
  22749736.638    10468409.291 6   8177120.70821
  21220385.497    -3152238.676 8  -2391923.82122
 91  4  8  2 46 30.0010000  0  4G 2G12G 6G13
  23440403.7084   13415273.36746  10387735.29661
  22746132.3644   -8816062.67847  -6155707.12261
  22759843.239    10521528.828 6   8218512.50621
  21225579.810    -3124941.059 8  -2370652.93922
 91  4  8  2 46 45.0010000  0  4G 2G12G 6G13
  23447643.161    13453330.055 6  10417389.83921
  22739591.3414   -8850435.75447  -6182491.27561
  22769971.1534   10574749.20646   8259982.89261
  21230789.4584   -3097565.25648  -2349321.13662
 91  4  8  2 47  0.0010000  0  4G 2G12G 6G13
  23454898.028    13491443.564 6  10447088.65421
  22733065.4584   -8884726.77547  -6209211.49061
  22780118.419    10628069.116 6   8301530.82521
  21236013.841    -3070112.641 7  -2327929.47722
 91  4  8  2 47 15.0010000  0  4G 2G12G 6G13
  23462158.286    13529614.010 6  10476831.84221
  22726557.1064   -8918935.32747  -6235867.44461
  22790283.888    10681488.323 6   8343156.13321
  21241252.3334   -3042583.28648  -2306478.02062
 91  4  8  2 47 30.0010000  0  4G 2G12G 6G13
  23469435.372    13567841.624 6  10506619.57421
  22720062.9274   -8953060.82247  -6262458.66761
  22800467.677    10735006.797 6   8384858.78621
  21246505.130    -3014977.151 8  -2284966.73122
 91  4  8  2 47 45.0010000  0  4G 2G12G 6G13
  23476721.310    13606127.279 6  10536452.53421
  22713585.9354   -8987102.14347  -6288984.30661
  22810671.028    10788625.058 6   8426639.20421
  21251773.161    -2987293.774 8  -2263395.25022
 91  4  8  2 48  0.0010000  0  4G 2G12G 6G13
  23484017.9894   13644470.81546  10566330.58261
  22707123.3334   -9021059.07347  -6315444.18661
  22820891.567    10842342.607 6   8468496.98521
  21257055.169    -2959533.618 7  -2241763.94322
 91  4  8  2 48 15.0010000  0  4G 2G12G 6G13
  23491326.1304   13682870.98246  10596252.76261
  22700677.4194   -9054932.41347  -6341838.93861
  22831133.997    10896158.010 6   8510431.01121
  21262352.192    -2931698.136 7  -2220073.94722
 91  4  8  2 48 30.0010000  0  4G 2G12G 6G13
  23498643.286    13721325.784 6  10626217.52721
  22694246.9114   -9088723.94547  -6368169.93961
  22841393.466    10950068.811 6   8552439.37921
  21267663.872    -2903789.893 8  -2198327.24922
 91  4  8  2 48 45.0010000  0  4G 2G12G 6G13
  23505969.802    13759839.010 6  10656227.80821
  22687831.3804   -9122429.58147  -6394434.01361
  22851672.036    11004078.603 6   8594524.87221
  21272989.708    -2875805.248 8  -2176521.01922
 91  4  8  2 49  0.0010000  0  4G 2G12G 6G13
  23513310.755    13798409.254 6  10686282.52321
  22681433.7784   -9156050.32347  -6420631.92161
  22861965.825    11058185.580 6   8636686.09921
  21278328.403    -2847746.039 8  -2154656.67922
 91  4  8  2 49 15.0010000  0  4G 2G12G 6G13
  23520661.161    13837038.884 6  10716383.51221
  22675052.8884   -9189583.27647  -6446761.42461
  22872280.575    11112391.947 6   8678924.77821
  21283682.755    -2819610.077 8  -2132732.53422
 91  4  8  2 49 30.0010000  0  4G 2G12G 6G13
  23528024.560    13875726.809 6  10746529.92621
  22668687.7714   -9223029.17547  -6472823.09561
  22882615.325    11166696.330 6   8721239.82521
  21289050.763    -2791398.757 8  -2110749.67822
 91  4  8  2 49 45.0010000  0  4G 2G12G 6G13
  23535396.9114   13914471.78346  10776720.78761
  22662340.3884   -9256389.05247  -6498817.73561
  22892967.731    11221097.069 6   8763629.95821
  21294433.622    -2763113.794 8  -2088709.42122
 91  4  8  2 50  0.0010000  0  4G 2G12G 6G13
  23542783.028    13953274.903 6  10806956.95821
  22656009.1224   -9289661.44147  -6524744.21561
  22903336.606    11275595.004 6   8806095.82921
  21299830.622    -2734754.270 8  -2066611.07322
 91  4  8  2 50 15.0010000  0  4G 2G12G 6G13
  23550176.583    13992132.587 6  10837235.65321
  22649692.8964   -9322849.52647  -6550604.99461
  22913723.427    11330186.274 6   8848634.43321
  21305240.317    -2706323.862 8  -2044457.49722
 91  4  8  2 50 30.0010000  0  4G 2G12G 6G13
  23557584.341    14031049.522 6  10867560.51621
  22643395.028    -9355948.133 7  -6576396.05221
  22924132.786    11384875.421 6   8891249.30421
  21310663.528    -2677818.255 8  -2022245.31422
 91  4  8  2 50 45.0010000  0  4G 2G12G 6G13
  23564997.622    14070025.839 6  10897931.64821
  22637113.3334   -9388956.86147  -6602117.07461
  22934557.817    11439662.186 6   8933940.23421
  21316102.9424   -2649237.52948  -1999974.59362
 91  4  8  2 51  0.0010000  0  4G 2G12G 6G13
  23572427.0754   14109059.29846  10928347.30061
  22630848.661    -9421877.660 7  -6627769.57521
  22945002.591    11494543.909 6   8976705.16621
  21321555.880    -2620584.688 8  -1977647.68622
 91  4  8  2 51 15.0010000  0  4G 2G12G 6G13
  23579864.052    14148146.354 6  10958804.72721
  22624600.2944   -9454713.62747  -6653355.97561
  22955464.380    11549516.869 6   9019541.18821
  21327021.130    -2591863.267 8  -1955267.34222
 91  4  8  2 51 30.0010000  0  4G 2G12G 6G13
  23587314.833    14187291.763 6  10989307.61821
  22618368.7474   -9487459.67747  -6678872.31161
  22965945.810    11604585.446 6   9062451.71521
  21332500.247    -2563068.893 8  -1932830.14622
 91  4  8  2 51 45.0010000  0  4G 2G12G 6G13
  23594775.146    14226495.345 6  11019855.85021
  22612154.2554   -9520115.67047  -6704318.47161
  22976439.0834   11659749.22246   9105436.41861
  21337994.138    -2534201.944 8  -1910336.40322
 91  4  8  2 52  0.0010000  0  4G 2G12G 6G13
  23602245.9424   14265756.60346  11050449.00361
  22605957.3334   -9552681.67547  -6729694.51961
  22986952.755    11715007.403 6   9148494.68521
  21343500.185    -2505263.087 8  -1887786.63022
 91  4  8  2 52 15.0010000  0  4G 2G12G 6G13
  23609729.536    14305076.348 6  11081087.73321
  22599777.7714   -9585156.55247  -6754999.54861
  22997486.864    11770360.456 6   9191626.88421
  21349020.716    -2476251.921 8  -1865180.51422
 91  4  8  2 52 30.0010000  0  4G 2G12G 6G13
  23617218.9274   14344454.36546  11111771.87561
  22593615.2244   -9617540.19347  -6780233.48761
  23008038.044    11825807.847 6   9234832.58921
  21354555.591    -2447169.048 8  -1842518.52122
 91  4  8  2 52 45.0010000  0  4G 2G12G 6G13
  23624724.0914   14383890.97846  11142501.67261
  22587470.3724   -9649831.90147  -6805395.79461
  23018609.247    11881349.626 6   9278111.85121
  21360102.896    -2418014.283 8  -1819800.50622
 91  4  8  2 53  0.0010000  0  4G 2G12G 6G13
  23632241.7314   14423381.57546  11173273.54561
  22581342.0054   -9682035.92747  -6830489.77362
  23029197.247    11936980.948 6   9321460.87421
  21365662.5524   -2388792.62548  -1797030.37562
 91  4  8  2 53 15.0010000  0  4G 2G12G 6G13
  23639765.0834   14462929.02646  11204089.70861
  22575230.2944   -9714148.92847  -6855512.83162
  23039802.1924   11992704.27346   9364881.58361
  21371237.5214   -2359501.37148  -1774206.01162
 91  4  8  2 53 30.0010000  0  4G 2G12G 6G13
  23647301.3334   14502534.38746  11234950.99261
  22569138.2784   -9746169.59247  -6880463.93162
  23050420.9114   12048520.27246   9408374.50861
  21376825.583    -2330139.892 8  -1751326.92622
 91  4  8  2 53 45.0010000  0  4G 2G12G 6G13
  23654852.5674   14542202.87846  11265861.47161
  22563063.1614   -9778092.49947  -6905338.84962
  23061060.5834   12104433.85446   9451943.47061
  21382426.724    -2300703.366 8  -1728389.35722
 91  4  8  2 54  0.0010000  0  4G 2G12G 6G13
  23662413.2084   14581929.73046  11296817.42561
  22557006.5994   -9809921.85747  -6930140.88361
  23071717.450    12160440.072 6   9495584.63521
  21388042.8174   -2271196.69648  -1705397.14262
 91  4  8  2 54 15.0010000  0  4G 2G12G 6G13
  23669983.1854   14621715.11146  11327818.98261
  22550966.8414   -9841656.89547  -6954869.42061
  23082394.153    12216539.039 6   9539298.06321
  21393670.1384   -2241620.16548  -1682350.48662
 91  4  8  2 54 30.0010000  0  4G 2G12G 6G13
  23677563.7164   14661557.01146  11358864.59261
  22544945.5994   -9873299.52547  -6979525.95462
  23093087.622    12272728.161 6   9583081.73821
  21399310.700    -2211976.049 8  -1659251.16522
 91  4  8  2 54 45.0010000  0  4G 2G12G 6G13
  23685154.9504   14701455.10246  11389953.97461
  22538941.2164   -9904849.63147  -7004110.39862
  23103798.1694   12329006.86746   9626935.21061
  21404965.1614   -2182264.79148  -1636099.52962
 91  4  8  2 55  0.0010000  0  4G 2G12G 6G13
  23692759.6774   14741412.08446  11421089.24861
  22532955.8884   -9936304.16647  -7028620.35562
  23114523.8884   12385377.51146   9670860.32461
  21410632.4894   -2152483.90848  -1612893.63962
 91  4  8  2 55 15.0010000  0  4G 2G12G 6G13
  23700374.5444   14781423.31046  11452266.79661
  22526988.614    -9967667.510 7  -7053059.25422
  23125266.341    12441835.154 6   9714853.23921
  21416311.3254   -2122638.52448  -1589637.48462
 91  4  8  2 55 30.0010000  0  4G 2G12G 6G13
  23707996.4504   14821490.35246  11483487.83061
  22521038.1854   -9998937.47147  -7077425.39262
  23136024.888    12498381.218 6   9758915.05021
  21422004.122    -2092727.131 8  -1566329.89022
 91  4  8  2 55 45.0010000  0  4G 2G12G 6G13
  23715633.7244   14861615.04346  11514753.79261
  22515104.7474  -10030112.09947  -7101717.24762
  23146805.356    12555017.141 6   9803046.88721
  21427708.3644   -2062748.31648  -1542969.76762
 91  4  8  2 56  0.0010000  0  4G 2G12G 6G13
  23723279.0914   14901794.80146  11546062.66061
  22509189.7314  -10061193.50347  -7125936.46662
  23157597.474    12611739.924 6   9847246.40721
  21433425.231    -2032704.792 8  -1519559.22422
 91  4  8  2 56 15.0010000  0  4G 2G12G 6G13
  23730939.200    14942034.067 6  11577417.91321
  22503294.0604  -10092176.98647  -7150079.37862
  23168410.575    12668553.773 6   9891516.86721
  21439155.130    -2002592.546 8  -1496095.12522
 91  4  8  2 56 30.0010000  0  4G 2G12G 6G13
  23738607.6854   14982331.57046  11608818.52661
  22497416.5754  -10123063.35747  -7174146.62862
  23179240.1144   12725457.15746   9935857.10361
  21444898.2084   -1972413.01748  -1472578.60762
 91  4  8  2 56 45.0010000  0  4G 2G12G 6G13
  23746285.4354   15022688.90746  11640265.76961
  22491557.849   -10153850.840 7  -7198136.81922
  23190084.7944   12782451.29146   9980268.05961
  21450654.0134   -1942164.92048  -1449008.65862
 91  4  8  2 57  0.0010000  0  4G 2G12G 6G13
  23753974.942    15063105.705 6  11671759.35621
  22485717.7784  -10184539.27947  -7222049.82962
  23200947.8174   12839535.58146  10024749.26261
  21456423.763    -1911849.057 8  -1425385.90222
 91  4  8  2 57 15.0010000  0  4G 2G12G 6G13
  23761678.7314   15103580.28946  11703297.95761
  22479896.6534  -10215129.89347  -7245886.61562
  23211824.083    12896708.027 6  10069299.16121
  21462205.9504   -1881467.40848  -1401711.88462
 91  4  8  2 57 30.0010000  0  4G 2G12G 6G13
  23769392.560    15144111.942 6  11734881.04921
  22474094.4894  -10245623.09547  -7269647.49762
  23222720.7714   12953967.65746  10113916.99161
  21467998.2554   -1851020.97848  -1377987.39262
 91  4  8  2 57 45.0020000  0  4G 2G12G 6G13
  23777113.9394   15184702.87446  11766510.31061
  22468309.768   -10276021.166 7  -7293334.25621
  23233636.7524   13011317.31946  10158604.98761
  21473805.0574   -1820508.53948  -1354211.45762
 91  4  8  2 58  0.0020000  0  4G 2G12G 6G13
  23784848.7134   15225344.35346  11798178.96461
  22462543.838   -10306323.010 7  -7316946.02622
  23244567.7214   13068745.82846  10203354.40561
  21479621.7604   -1789937.54348  -1330389.89762
 91  4  8  2 58 15.0020000  0  4G 2G12G 6G13
  23792593.8074   15266046.70346  11829895.05361
  22456797.354   -10336522.510 7  -7340478.04721
  23255509.119    13126264.412 6  10248174.02821
  21485453.1354   -1759298.55748  -1306515.35962
 91  4  8  2 58 30.0020000  0  4G 2G12G 6G13
  23800348.713    15306801.233 6  11861651.80321
  22451066.721   -10366628.176 7  -7363936.95621
  23266470.1974   13183863.91246  10293056.68461
  21491293.9864   -1728600.89148  -1282595.08962
 91  4  8  2 58 45.0020000  0  4G 2G12G 6G13
  23808114.1584   15347610.83346  11893451.46161
  22445356.197   -10396636.475 7  -7387319.99521
  23277448.5574   13241547.07646  10338004.54461
  21497148.7754   -1697841.69448  -1258626.87562
 91  4  8  2 59  0.0020000  0  4G 2G12G 6G13
  23815892.9164   15388478.44746  11925296.31761
  22439665.3224  -10426544.35347  -7410624.77861
  23288441.2294   13299316.45846  10383019.57661
  21503012.6114   -1667018.33748  -1234608.67162
 91  4  8  2 59 15.0020000  0  4G 2G12G 6G13
  23823682.0024   15429403.26646  11957185.75861
  22433992.424   -10456352.066 7  -7433851.51421
  23299451.4164   13357171.11346  10428101.07061
  21508889.8144   -1636131.81448  -1210541.24662
 91  4  8  2 59 30.0020000  0  4G 2G12G 6G13
  23831481.3614   15470385.25146  11989119.74061
  22428339.838   -10486059.463 7  -7457000.08821
  23310476.7914   13415110.44146  10473248.53661
  21514779.9794   -1605182.68348  -1186425.03262
 91  4  8  2 59 45.0020000  0  4G 2G12G 6G13
  23839289.4554   15511425.90946  12021099.44461
  22422705.400   -10515664.425 7  -7480068.83821
  23321518.900    13473135.869 6  10518463.08221
  21520681.3464   -1574169.74848  -1162259.10662
 91  4  8  3  0  0.0020000  0  4G 2G12G 6G13
  23847109.4244   15552520.92546  12053121.48961
  22417091.291   -10545171.059 7  -7503060.97122
  23332575.8074   13531242.63146  10563741.01261
  21526594.041    -1543097.299 8  -1138046.79122
 91  4  8  3  0 15.0020000  0  4G 2G12G 6G13
  23854940.9474   15593675.96446  12085190.32461
  22411496.510   -10574573.351 7  -7525971.79922
  23343647.6664   13589436.19246  10609086.58061
  21532519.9714   -1511960.06048  -1113784.00462
 91  4  8  3  0 30.0020000  0  4G 2G12G 6G13
  23862785.604    15634887.263 6  12117302.97921
  22405920.424   -10603874.830 7  -7548804.08121
  23354737.5884   13647712.29646  10654496.47161
  21538457.2294   -1480762.11548  -1089473.91162
 91  4  8  3  0 45.0020000  0  4G 2G12G 6G13
  23870638.0414   15676155.69846  12149460.17661
  22400363.338   -10633074.050 7  -7571556.67222
  23365844.5804   13706071.58946  10699971.17561
  21544405.7364   -1449502.71648  -1065115.92962
 91  4  8  3  1  0.0020000  0  4G 2G12G 6G13
  23878502.111    15717482.854 6  12181663.10821
  22394826.971   -10662169.062 7  -7594228.06322
  23376966.5644   13764515.50246  10745511.82261
  21550365.4394   -1418180.56148  -1040709.04662
 91  4  8  3  1 15.0020000  0  4G 2G12G 6G13
  23886376.291    15758867.303 6  12213910.69521
  22389310.049   -10691160.971 7  -7616819.11422
  23388102.7994   13823042.02446  10791116.83961
  21556337.3224   -1386797.58648  -1016254.77662
 91  4  8  3  1 30.0020000  0  4G 2G12G 6G13
  23894263.3144   15800312.21246  12246205.39661
  22383812.643   -10720046.194 7  -7639327.04322
  23399257.4164   13881654.25746  10836788.64261
  21562320.8144   -1355350.70448   -991750.70862
 91  4  8  3  1 45.0020000  0  4G 2G12G 6G13
  23902158.807    15841814.632 6  12278544.90121
  22378335.869   -10748827.318 7  -7661753.85022
  23410427.252    13940348.818 6  10882524.59521
  21568317.3074   -1323843.13448   -967199.34062
 91  4  8  3  2  0.0020000  0  4G 2G12G 6G13
  23910070.604    15883371.955 6  12310927.18821
  22372878.7684  -10777506.69347  -7684101.37462
  23421611.963    13999122.838 6  10928322.46621
  21574323.9794   -1292277.79948   -942602.97262
 91  4  8  3  2 15.0020000  0  4G 2G12G 6G13
  23917987.197    15924986.274 6  12343353.88821
  22367440.424   -10806081.791 7  -7706367.63822
  23432813.3934   14057978.07546  10974183.62461
  21580341.5334   -1260652.82748   -917960.13562
 91  4  8  3  2 30.0020000  0  4G 2G12G 6G13
  23925917.7994   15966658.53446  12375825.74161
  22362023.135   -10834551.478 7  -7728551.76222
  23444027.9794   14116915.12046  11020108.52561
  21586371.189    -1228967.583 8   -893270.31522
 91  4  8  3  2 45.0020000  0  4G 2G12G 6G13
  23933855.814    16008384.564 6  12408339.48321
  22356625.432   -10862919.361 7  -7750656.56722
  23455259.0184   14175929.55246  11066093.72861
  21592411.8304   -1197226.60148   -868537.07962
 91  4  8  3  3  0.0020000  0  4G 2G12G 6G13
  23941808.8614   16050168.67646  12440898.48861
  22351247.3224  -10891180.78547  -7772678.42261
  23466503.252    14235025.381 6  11112142.35721
  21598462.9714   -1165425.88948   -843757.29662
 91  4  8  3  3 15.0020000  0  4G 2G12G 6G13
  23949772.0254   16092009.01246  12473501.30961
  22345889.9474  -10919337.13947  -7794618.40162
  23477763.2294   14294200.47646  11158252.74561
  21604525.455    -1133567.342 8   -818932.43622
 91  4  8  3  3 30.0020000  0  4G 2G12G 6G13
  23957746.3854   16133908.52046  12506150.23661
  22340551.674   -10947385.232 7  -7816474.01522
  23489035.8144   14353457.47546  11204426.96861
  21610599.7364   -1101648.27348   -794060.42862
 91  4  8  3  3 45.0020000  0  4G 2G12G 6G13
  23965729.2524   16175864.55746  12538843.21361
  22335234.877   -10975327.378 7  -7838247.06722
  23500328.2134   14412793.36545  11250662.66061
  21616684.604    -1069671.647 8   -769143.56622
 91  4  8  3  4  0.0020000  0  4G 2G12G 6G13
  23973724.1894   16217877.52046  12571580.55061
  22329938.2684  -11003162.72747  -7859936.90362
  23511634.4864   14472208.23246  11296959.89161
  21622780.002    -1037637.460 8   -744181.85022
 91  4  8  3  4 15.0020000  0  4G 2G12G 6G13
  23981726.8224   16259944.39246  12604359.88861
  22324660.8464  -11030893.96547  -7881545.62262
  23522956.0104   14531698.73246  11343316.05861
  21628886.713    -1005548.798 8   -719177.68922
 91  4  8  3  4 30.0020000  0  4G 2G12G 6G13
  23989743.9004   16302069.80046  12637184.84261
  22319404.7834  -11058515.98847  -7903069.24362
  23534295.1354   14591269.42446  11389734.70561
  21635004.080     -973401.235 8   -694127.62922
 91  4  8  3  4 45.0020000  0  4G 2G12G 6G13
  23997771.947    16344252.841 6  12670054.69021
  22314169.5494  -11086029.38347  -7924508.21562
  23545644.791    14650918.866 6  11436214.71821
  21641131.174     -941196.196 8   -669032.78022
 91  4  8  3  5  0.0020000  0  4G 2G12G 6G13
  24005809.5574   16386493.15946  12702969.17661
  22308954.330   -11113434.288 7  -7945862.64322
  23557008.6114   14710646.31146  11482755.50761
  21647271.5724    -908934.23848   -643893.58662
 91  4  8  3  5 15.0020000  0  4G 2G12G 6G13
  24013854.932    16428791.324 6  12735928.73321
  22303761.549   -11140729.599 7  -7967131.67022
  23568389.3384   14770452.17646  11529357.41961
  21653421.4864    -876614.73348   -618709.54562
 91  4  8  3  5 30.0020000  0  4G 2G12G 6G13
  24021914.5644   16471144.22046  12768930.95861
  22298586.424   -11167918.024 7  -7988317.40922
  23579783.861    14830333.205 6  11576017.89121
  21659581.658     -844241.163 8   -593483.37522
 91  4  8  3  5 45.0020000  0  4G 2G12G 6G13
  24029986.682    16513554.632 6  12801977.99721
  22293433.3614  -11194996.53547  -8009417.51162
  23591194.5804   14890291.67346  11622738.70661
  21665754.119     -811811.200 8   -568213.25922
 91  4  8  3  6  0.0020000  0  4G 2G12G 6G13
  24038070.6504   16556019.37046  12835067.36061
  22288300.7524  -11221968.09647  -8030434.27462
  23602617.252    14950323.993 6  11669517.07021
  21671934.3464    -779328.16548   -542901.80162
 91  4  8  3  6 15.0020000  0  4G 2G12G 6G13
  24046159.908    16598539.582 6  12868199.94121
  22283188.174   -11248831.181 7  -8051366.50522
  23614057.213    15010431.031 6  11716353.64321
  21678125.658     -746791.307 8   -517548.39622
 91  4  8  3  6 30.0020000  0  4G 2G12G 6G13
  24054261.908    16641113.433 5  12901374.32321
  22278097.182   -11275587.021 7  -8072215.16522
  23625508.752    15070610.763 6  11763246.86921
  21684328.041     -714202.640 8   -492154.61522
 91  4  8  3  6 45.0020000  0  4G 2G12G 6G13
  24062374.5414   16683748.42246  12934596.35461
  22273027.400   -11302227.743 7  -8092974.12222
  23636976.369    15130870.370 6  11810202.33121
  21690540.5964    -681554.86848   -466714.79162
 91  4  8  3  7  0.0020000  0  4G 2G12G 6G13
  24070500.354    16726439.487 6  12967862.07121
  22267979.377   -11328758.170 7  -8113647.14022
  23648455.1744   15191204.40046  11857215.79661
  21696762.064     -648853.473 7   -441233.17522
 91  4  8  3  7 15.0020000  0  4G 2G12G 6G13
  24078632.5334   16769183.45746  13001169.00161
  22262951.049   -11355181.015 7  -8134236.32322
  23659953.455    15251609.341 6  11904284.49221
  21702995.596     -616101.811 8   -415712.38122
 91  4  8  3  7 30.0020000  0  4G 2G12G 6G13
  24086778.439    16811986.944 6  13034522.32521
  22257944.650   -11381489.268 7  -8154736.21222
  23671461.174    15312091.606 5  11951413.45721
  21709238.9554    -583293.48048   -390147.44762
 91  4  8  3  7 45.0020000  0  4G 2G12G 6G13
  24094934.619    16854849.789 6  13067921.90021
  22252960.814   -11407682.829 7  -8175146.73122
  23682985.861    15372650.693 5  11998602.27821
  21715492.518     -550428.983 8   -364538.73222
 91  4  8  3  8  0.0020000  0  4G 2G12G 6G13
  24103100.6114   16897769.51845  13101365.80361
  22247996.674   -11433763.614 7  -8195469.37822
  23694522.7914   15433284.01045  12045848.94661
  21721757.908     -517510.720 8   -338888.12422
 91  4  8  3  8 15.0020000  0  4G 2G12G 6G13
  24111282.010    16940748.127 6  13134855.57621
  22243055.838   -11459729.478 7  -8215702.47422
  23706076.1504   15493993.01345  12093154.58861
  21728031.3854    -484536.89948   -313194.23762
 91  4  8  3  8 30.0020000  0  4G 2G12G 6G13
  24119473.939    16983780.697 6  13168387.39521
  22238135.611   -11485584.992 7  -8235849.58322
  23717643.1664   15554772.43345  12140515.10661
  21734314.799     -451512.910 8   -287461.23922
 91  4  8  3  8 45.0020000  0  4G 2G12G 6G13
  24127670.244    17026871.547 5  13201964.63421
  22233237.354   -11511325.270 7  -8255906.89122
  23729219.947    15615626.543 5  12187933.81321
  21740610.8144    -418434.70048   -261686.00162
 91  4  8  3  9  0.0020000  0  4G 2G12G 6G13
  24135880.252    17070020.742 6  13235587.33521
  22228360.564   -11536950.011 7  -8275874.17122
  23740817.533    15676554.911 5  12235410.38921
  21746914.3384    -385302.46948   -235868.67062
 91  4  8  3  9 15.0020000  0  4G 2G12G 6G13
  24144104.260    17113225.713 6  13269253.49221
  22223505.791   -11562461.577 7  -8295753.27022
  23752423.713    15737554.569 5  12282942.50021
  21753228.8544    -352118.99947   -210011.41562
 91  4  8  3  9 30.0020000  0  4G 2G12G 6G13
  24152335.2684   17156488.18446  13302964.45361
  22218673.314   -11587857.618 7  -8315542.34322
  23764046.416    15798627.136 5  12330531.42821
  21759554.197     -318882.692 7   -184112.97922
 91  4  8  3  9 45.0020000  0  4G 2G12G 6G13
  24160578.275    17199806.363 6  13336718.82621
  22213862.4864  -11613139.72947  -8335242.63162
  23775681.7294   15859770.35145  12378175.41961
  21765889.0334    -285595.76148   -158175.09662
 91  4  8  3 10  0.0020000  0  4G 2G12G 6G13
  24168832.643    17243181.594 6  13370517.66221
  22209073.299   -11638306.259 7  -8354852.86622
  23787330.768    15920985.297 5  12425875.31421
  21772231.9474    -252257.23147   -132197.02162
 91  4  8  3 10 15.0020000  0  4G 2G12G 6G13
  24177096.8144   17286610.87446  13404358.59761
  22204306.064   -11663359.720 7  -8374374.99922
  23798992.307    15982268.610 5  12473628.46721
  21778585.182     -218870.259 7   -106181.18322
 91  4  8  3 10 30.0020000  0  4G 2G12G 6G13
  24185371.541    17330097.810 6  13438244.45921
  22199560.244   -11688295.898 7  -8393805.73322
  23810666.783    16043623.939 5  12521437.74321
  21784949.5184    -185430.98648    -80124.59862
 91  4  8  3 10 45.0020000  0  4G 2G12G 6G13
  24193660.525    17373647.774 6  13472179.45021
  22194838.158   -11713109.247 7  -8413140.76322
  23822357.7364   16105056.12545  12569306.90461
  21791323.2834    -151934.55448    -54023.47862
 91  4  8  3 11  0.0020000  0  4G 2G12G 6G13
  24201957.721    17417255.281 5  13506159.27221
  22190139.729   -11737805.159 7  -8432384.27422
  23834062.166    16166559.126 5  12617231.24921
  21797707.361     -118386.964 8    -27882.48122
 91  4  8  3 11 15.0020000  0  4G 2G12G 6G13
  24210270.424    17460922.534 6  13540185.64521
  22185462.572   -11762380.869 7  -8451534.13222
  23845780.924    16228135.077 5  12665212.43321
  21804101.6044     -84786.03148     -1699.93062
 91  4  8  3 11 30.0020000  0  4G 2G12G 6G13
  24218592.0884   17504649.14046  13574258.25561
  22180808.432   -11786836.464 7  -8470590.38922
  23857511.080    16289783.235 5  12713249.87221
  21810504.744      -51132.400 8     24523.68422
 91  4  8  3 11 45.0020000  0  4G 2G12G 6G13
  24226920.143    17548433.244 6  13608375.69221
  22176175.713   -11811173.259 7  -8489554.07522
  23869254.6664   16351501.53045  12761341.97461
  21816919.408      -17428.194 8     50786.71722
 91  4  8  3 12  0.0020000  0  4G 2G12G 6G13
  24235263.9004   17592275.59646  13642538.50261
  22171568.807   -11835390.263 7  -8508424.42322
  23881015.869    16413290.331 5  12809489.00721
  21823342.4944      16327.14948     77089.58662
 91  4  8  3 12 15.0020000  0  4G 2G12G 6G13
  24243617.9634   17636175.96446  13676746.52061
  22166983.057   -11859487.561 7  -8527201.49322
  23892784.5964   16475148.96545  12857690.45561
  21829775.111       50132.942 8    103431.77622
 91  4  8  3 12 30.0020000  0  4G 2G12G 6G13
  24251982.5724   17680134.68346  13711000.00161
  22162421.018   -11883464.065 7  -8545884.43622
  23904568.916    16537077.777 5  12905946.58521
  21836217.9864      83989.66048    129813.64762
 91  4  8  3 12 45.0020000  0  4G 2G12G 6G13
  24260358.0024   17724152.79645  13745299.76761
  22157881.885   -11907318.535 7  -8564472.29422
  23916366.096    16599077.216 5  12954257.76321
  21842670.4084     117898.02148    156235.74862
 91  4  8  3 13  0.0020000  0  4G 2G12G 6G13
  24268745.4944   17768231.30945  13779646.59961
  22153365.861   -11931049.521 7  -8582963.92022
  23928178.736    16661148.035 5  13002624.55921
  21849132.783      151858.734 8    182698.65222
 91  4  8  3 13 15.0020000  0  4G 2G12G 6G13
  24277145.7364   17812362.89045  13814034.78261
  22148872.307   -11954663.909 7  -8601364.69522
  23940001.018    16723282.820 5  13051041.18021
  21855603.721      185864.201 8    209196.43022
 91  4  8  3 13 30.0020000  0  4G 2G12G 6G13
  24285551.877    17856552.055 5  13848467.83221
  22144402.471   -11978156.830 7  -8619670.82522
  23951840.1354   16785485.63745  13099510.83661
  21862084.0884     219918.58348    235732.32162
 91  4  8  3 13 45.0020000  0  4G 2G12G 6G13
  24293973.166    17900799.881 5  13882946.59921
  22139954.549   -12001527.106 7  -8637881.38422
  23963687.1584   16847757.15345  13148034.00861
  21868574.8614     254022.84148    262307.07462
 91  4  8  3 14  0.0020000  0  4G 2G12G 6G13
  24302405.2684   17945106.17645  13917470.92961
  22135530.768   -12024774.532 7  -8655996.21922
  23975553.588    16910096.921 5  13196610.36721
  21875075.0334     288176.51548    288920.33162
 91  4  8  3 14 15.0020000  0  4G 2G12G 6G13
  24310846.5254   17989468.19845  13952038.67461
  22131130.799   -12047901.375 7  -8674017.09322
  23987425.627    16972501.920 5  13245237.54721
  21881582.1274     322376.82248    315569.93062
 91  4  8  3 14 30.0020000  0  4G 2G12G 6G13
  24319299.7994   18033885.18345  13986649.24861
  22126752.549   -12070908.008 8  -8691944.29522
  23999315.0254   17034971.04245  13293914.69561
  21888098.0494     356622.61448    342254.96362
 91  4  8  3 14 45.0020000  0  4G 2G12G 6G13
  24327761.229    18078361.510 5  14021306.07221
  22122398.314   -12093789.746 7  -8709774.17422
  24011217.135    17097508.510 5  13342645.09521
  21894624.6044     390918.13248    368978.75162
 91  4  8  3 15  0.0020000  0  4G 2G12G 6G13
  24336236.2054   18122894.19545  14056006.80061
  22118066.533   -12116549.379 7  -8727508.90922
  24023128.3774   17160110.80945  13391426.03061
  21901159.8934     425259.93148    395738.59961
 91  4  8  3 15 15.0020000  0  4G 2G12G 6G13
  24344719.869    18167483.841 5  14090751.94021
  22113757.783   -12139185.807 7  -8745147.64122
  24035055.4944   17222778.27645  13440257.72361
  21907703.7754     459648.51748    422534.90662
 91  4  8  3 15 30.0020000  0  4G 2G12G 6G13
  24353219.564    18212134.858 6  14125544.88921
  22109474.807   -12161694.245 7  -8762686.64222
  24046997.3074   17285515.10045  13489143.47761
  21914257.9554     494088.12748    449370.97562
 91  4  8  3 15 45.0020000  0  4G 2G12G 6G13
  24361730.588    18256846.000 6  14160384.67121
  22105215.338   -12184075.693 7  -8780126.69022
  24058947.416    17348319.738 5  13538082.05421
  21920819.0574     528577.30748    476245.66162
 91  4  8  3 16  0.0020000  0  4G 2G12G 6G13
  24370246.721    18301613.192 5  14195268.14721
  22100980.182   -12206333.742 7  -8797470.58022
  24070914.0884   17411187.80145  13587070.06461
  21927391.5334     563111.76948    503155.63662
 91  4  8  3 16 15.0020000  0  4G 2G12G 6G13
  24378776.4324   18346438.34845  14230196.78161
  22096768.518   -12228466.048 7  -8814716.48922
  24082886.963    17474120.962 5  13636108.79521
  21933973.9394     597693.20148    530102.21262
 91  4  8  3 16 30.0020000  0  4G 2G12G 6G13
  24387317.8074   18391320.49746  14265169.82761
  22092580.5644  -12250473.26147  -8831864.93162
  24094872.3224   17537117.91245  13685197.23861
  21940561.7294     632320.38047    557084.42462
 91  4  8  3 16 45.0020000  0  4G 2G12G 6G13
  24395869.986    18436258.854 6  14300186.67321
  22088416.6974  -12272355.85447  -8848916.26562
  24106874.346    17600177.498 5  13734334.48821
  21947158.7054     666992.46247    584101.64162
 91  4  8  3 17  0.0020000  0  4G 2G12G 6G13
  24404431.0644   18481255.61646  14335249.02161
  22084277.8074  -12294111.22447  -8865868.47062
  24118884.1044   17663301.66545  13783522.05161
  21953767.7604     701711.52348    611155.44962
 91  4  8  3 17 15.0020000  0  4G 2G12G 6G13
  24413004.064    18526308.179 6  14370354.86121
  22080160.9794  -12315741.62147  -8882723.28962
  24130909.0414   17726487.46445  13832757.63661
  21960382.5104     736474.47748    638243.46862
 91  4  8  3 17 30.0020000  0  4G 2G12G 6G13
  24421587.8464   18571418.49346  14405505.69861
  22076069.6894  -12337244.76047  -8899478.94462
  24142947.5184   17789736.49945  13882042.50461
  21967005.0884     771283.11647    665367.09162
 91  4  8  3 17 45.0020000  0  4G 2G12G 6G13
  24430183.6824   18616585.82146  14440700.95961
  22072000.7684  -12358620.94547  -8916135.67262
  24154991.814    17853047.922 5  13931375.97721
  21973638.7684     806136.70948    692525.74262
 91  4  8  3 18  0.0020000  0  4G 2G12G 6G13
  24438791.9794   18661811.16446  14475941.42261
  22067958.0184  -12379868.97647  -8932692.54462
  24167050.994    17916422.231 5  13980758.45421
  21980279.4944     841035.72548    719719.78162
 91  4  8  3 18 15.0020000  0  4G 2G12G 6G13
  24447408.9554   18707095.22946  14511227.65461
  22063938.8774  -12400987.57847  -8949148.56262
  24179119.604    17979860.026 5  14030190.40621
  21986928.6274     875980.89247    746949.78062
 91  4  8  3 18 30.0020000  0  4G 2G12G 6G13
  24456035.4004   18752440.92045  14546561.88661
  22059945.6274  -12421973.64147  -8965501.30562
  24191206.971    18043363.804 5  14079673.76821
  21993588.330      910974.725 8    774217.71422
 91  4  8  3 18 45.0020000  0  4G 2G12G 6G13
  24464675.0254   18797846.41845  14581942.74761
  22055976.3464  -12442828.70447  -8981751.96762
  24203307.3144   18106931.33945  14129206.80261
  22000256.4474     946015.42848    801522.16162
 91  4  8  3 19  0.0020000  0  4G 2G12G 6G13
  24473328.299    18843311.184 5  14617369.77321
  22052033.4634  -12463552.88747  -8997900.64162
  24215417.869    18170562.016 5  14178789.05021
  22006933.0184     981102.17848    828862.48862
 91  4  8  3 19 15.0020000  0  4G 2G12G 6G13
  24481992.1504   18888833.60645  14652841.74561
  22048113.7214  -12484147.39647  -9013948.28362
  24227537.8074   18234253.70445  14228418.83761
  22013618.3774    1016232.96448    856237.13462
 91  4  8  3 19 30.0020000  0  4G 2G12G 6G13
  24490667.0494   18934415.37145  14688359.93161
  22044220.4084  -12504610.15047  -9029893.25562
  24239669.0254   18298007.80345  14278097.23761
  22020312.4084    1051409.33248    883647.29762
 91  4  8  3 19 45.0020000  0  4G 2G12G 6G13
  24499351.7684   18980053.45745  14723921.99161
  22040350.6194  -12524943.90047  -9045737.70562
  24251811.4084   18361821.06645  14327821.73961
  22027014.1044    1086628.08048    911090.48062
 91  4  8  3 20  0.0020000  0  4G 2G12G 6G13
  24508046.8774   19025747.09245  14759527.35861
  22036505.6584  -12545149.03847  -9061481.93262
  24263961.9164   18425692.38045  14377591.50361
  22033723.7364    1121888.12348    938565.84362
 91  4  8  3 20 15.0020000  0  4G 2G12G 6G13
  24516750.346    19071497.550 5  14795177.01021
  22032685.5334  -12565223.72847  -9077124.51962
  24276128.6504   18489622.79745  14427407.30561
  22040442.1274    1157190.54548    966074.23162
 91  4  8  3 20 30.0020000  0  4G 2G12G 6G13
  24525468.2684   19117303.65845  14830870.00661
  22028889.6824  -12585168.96947  -9092666.24262
  24288303.2754   18553610.88145  14477268.03061
  22047168.0884    1192534.13448    993614.69662
 91  4  8  3 20 45.0020000  0  4G 2G12G 6G13
  24534194.486    19163164.962 5  14866606.02321
  22025118.4714  -12604984.87747  -9108107.17262
  24300491.713    18617655.753 5  14527172.99721
  22053900.9794    1227918.19248   1021186.69462
 91  4  8  3 21  0.0020000  0  4G 2G12G 6G13
  24542932.3224   19209080.52545  14902384.31261
  22021372.8074  -12624672.12447  -9123447.84862
  24312693.2524   18681756.08045  14577121.21261
  22060642.1584    1263341.47548   1048789.25862
 91  4  8  3 21 15.0020000  0  4G 2G12G 6G13
  24551681.1194   19255049.85945  14938204.50561
  22017651.6114  -12644230.66847  -9138688.24462
  24324898.213    18745911.345 5  14627112.20121
  22067388.5804    1298803.50348   1076422.00862
 91  4  8  3 21 30.0020000  0  4G 2G12G 6G13
  24560439.229    19301073.198 5  14974066.77021
  22013953.1194  -12663660.07947  -9153828.01562
  24337118.893    18810121.491 5  14677145.97321
  22074144.854     1334304.355 8   1104085.02622
 91  4  8  3 21 45.0020000  0  4G 2G12G 6G13
  24569206.0104   19347146.59645  15009968.05561
  22010279.7134  -12682964.04247  -9168870.03462
  24349344.627    18874381.971 5  14727218.95921
  22080907.8934    1369839.66948   1131774.88562
 91  4  8  3 22  0.0020000  0  4G 2G12G 6G13
  24577981.143    19393275.530 5  15045912.63121
  22006631.0184  -12702136.58047  -9183809.64462
  24361585.986    18938698.214 5  14777335.37821
  22087677.2754    1405414.83848   1159495.79762
 91  4  8  3 22 15.0020000  0  4G 2G12G 6G13
  24586770.2294   19439461.56945  15081901.70061
  22003008.3384  -12721175.75047  -9198645.32262
  24373829.963    19003071.447 5  14827496.23221
  22094453.4244    1441031.28348   1187248.87962
 91  4  8  3 22 30.0020000  0  4G 2G12G 6G13
  24595572.932    19485704.873 5  15117935.35121
  21999412.1114  -12740080.97648  -9213376.63462
  24386094.588    19067501.609 5  14877701.41821
  22101237.6894    1476689.02047   1215034.13962
 91  4  8  3 22 45.0020000  0  4G 2G12G 6G13
  24604385.525    19532002.302 5  15154011.19921
  21995839.0494  -12758855.18248  -9228005.85462
  24398366.6744   19131985.18645  14927948.25461
  22108032.0884    1512384.63548   1242848.91762
 91  4  8  3 23  0.0020000  0  4G 2G12G 6G13
  24613207.658    19578354.408 5  15190129.66821
  21992290.3934  -12777497.52047  -9242532.31562
  24410649.8074   19196522.35445  14978236.81661
  22114833.6744    1548118.52748   1270693.51362
 91  4  8  3 23 15.0020000  0  4G 2G12G 6G13
  24622037.0574   19624760.60545  15226290.26261
  21988768.6584  -12796008.22748  -9256956.21062
  24422937.627    19261112.240 5  15028566.46821
  22121639.0964    1583889.74547   1298567.19262
 91  4  8  3 23 30.0020000  0  4G 2G12G 6G13
  24630876.338    19671219.928 5  15262492.27521
  21985271.1824  -12814387.83748  -9271277.95062
  24435239.9714   19325753.56145  15078936.20361
  22128452.439     1619697.086 7   1326469.03122
 91  4  8  3 23 45.0020000  0  4G 2G12G 6G13
  24639727.408    19717731.223 5  15298734.79921
  21981797.4324  -12832637.12447  -9285498.14362
  24447554.8854   19390444.91945  15129344.90961
  22135274.260     1655539.408 8   1354398.12521
 91  4  8  3 24  0.0020000  0  4G 2G12G 6G13
  24648587.338    19764293.634 5  15335017.11421
  21978350.2214  -12850756.57648  -9299617.15962
  24459870.377    19455185.355 5  15179791.87521
  22142101.518     1691415.836 7   1382353.79121
 91  4  8  3 24 15.0020000  0  4G 2G12G 6G13
  24657453.119    19810907.849 5  15371339.81721
  21974927.1974  -12868745.11148  -9313634.16962
  24472200.8614   19519975.14945  15230277.29061
  22148934.697     1727326.862 7   1410336.42222
 91  4  8  3 24 30.0020000  0  4G 2G12G 6G13
  24666332.643    19857575.491 5  15407704.15921
  21971529.3074  -12886600.78548  -9327547.64862
  24484540.713    19584815.645 5  15280802.21021
  22155774.1194    1763273.72147   1438346.96962
 91  4  8  3 24 45.0020000  0  4G 2G12G 6G13
  24675227.4244   19904294.92245  15444108.83361
  21968155.4244  -12904325.08548  -9341358.75362
  24496888.5494   19649704.77845  15331365.02861
  22162622.369     1799254.577 7   1466384.00821
 91  4  8  3 25  0.0020000  0  4G 2G12G 6G13
  24684128.697    19951066.568 5  15480554.19721
  21964808.322   -12921917.256 7  -9355066.89622
  24509240.525    19714642.523 5  15381965.72521
  22169475.8144    1835269.44747   1494447.54761
 91  4  8  3 25 15.0020000  0  3G12G 6G13
  21961485.5494  -12939377.22247  -9368672.02962
  24521607.9474   19779628.45645  15432603.99961
  22176334.822     1871318.120 7   1522537.44221
 91  4  8  3 25 30.0020000  0  3G12G 6G13
  21958187.8464  -12956706.98347  -9382175.70362
  24533984.377    19844659.867 5  15483277.70321
  22183200.4244    1907398.15547   1550651.76661
 91  4  8  3 25 45.0020000  0  3G12G 6G13
  21954915.2834  -12973902.05547  -9395574.42162
  24546370.2054   19909740.71645  15533989.89261
  22190073.268     1943513.364 7   1578793.50221
 91  4  8  3 26  0.0020000  0  3G12G 6G13
  21951669.9634  -12990962.27847  -9408868.07162
  24558765.1664   19974870.42945  15584740.19361
  22196953.7604    1979663.18147   1606962.20161
 91  4  8  3 26 15.0020000  0  3G12G 6G13
  21948448.2834  -13007889.53047  -9422058.09962
  24571169.424    20040046.510 5  15635526.60021
  22203837.0574    2015845.42147   1635156.15661
 91  4  8  3 26 30.0020000  0  3G12G 6G13
  21945253.111   -13024680.627 7  -9435142.02822
  24583582.2054   20105271.51645  15686351.13161
  22210729.5184    2052062.81947   1663377.51961
 91  4  8  3 26 45.0020000  0  3G12G 6G13
  21942082.713   -13041334.643 7  -9448119.14422
  24596005.275    20170545.624 5  15737213.91521
  22217628.0184    2088315.59547   1691626.43861
 91  4  8  3 27  0.0020000  0  3G12G 6G13
  21938940.5884  -13057850.99347  -9460988.99062
  24608432.119    20235868.807 5  15788114.94721
  22224533.650     2124603.774 8   1719902.95421
 91  4  8  3 27 15.0020000  0  3G12G 6G13
  21935824.736   -13074229.595 7  -9473751.49622
  24620868.7134   20301240.60745  15839053.86961
  22231445.1664    2160927.08547   1748206.83461
 91  4  8  3 27 30.0020000  0  3G12G 6G13
  21932732.5644  -13090475.06447  -9486410.25962
  24633315.986    20366655.838 5  15890026.61721
  22238364.385     2197280.396 8   1776534.10621
 91  4  8  3 27 45.0020000  0  3G12G 6G13
  21929666.588   -13106586.673 7  -9498964.71922
  24645775.596    20432114.567 5  15941033.26521
  22245287.3694    2233663.85548   1804884.85561
 91  4  8  3 28  0.0020000  0  3G12G 6G13
  21926626.658   -13122558.836 7  -9511410.51622
  24658243.5964   20497621.79245  15992077.69061
  22252217.229     2270082.674 8   1833263.16721
 91  4  8  3 28 15.0020000  0  3G12G 6G13
  21923613.619   -13138390.559 7  -9523746.87822
  24670716.8074   20563177.91745  16043160.23761
  22259155.5024    2306537.56848   1861669.58161
 91  4  8  3 28 30.0020000  0  3G12G 6G13
  21920627.533   -13154083.471 7  -9535975.07022
  24683200.5804   20628780.60045  16094279.05561
  22266097.6894    2343026.01647   1890102.14361
 91  4  8  3 28 45.0020000  0  3G12G 6G13
  21917668.213   -13169635.619 7  -9548093.58122
  24695695.783    20694431.106 5  16145435.11721
  22273049.1664    2379549.67948   1918562.15361
 91  4  8  3 29  0.0020000  0  3G12G 6G13
  21914736.549   -13185045.891 7  -9560101.54322
  24708197.0964   20760130.09845  16196628.95661
  22280005.1504    2416109.32847   1947050.19361
 91  4  8  3 29 15.0020000  0  3G12G 6G13
  21911830.1114  -13200314.96347  -9571999.48662
  24720708.3854   20825876.02045  16247859.37161
  22286970.4554    2452703.49748   1975565.13662
 91  4  8  3 29 30.0020000  0  3G12G 6G13
  21908951.900   -13215438.868 7  -9583784.29323
  24733229.127    20891672.327 4  16299129.05221
  22293938.7994    2489335.66947   2004109.68261
 91  4  8  3 29 45.0020000  0  3G12G 6G13
  21906101.869   -13230420.899 7  -9595458.56223
  24745755.5804   20957515.14044  16350434.96461
  22300917.885     2526001.910 7   2032680.79022
